<?xml version="1.0" encoding="UTF-8" standalone="no" ?>
<gpx xmlns="http://www.topografix.com/GPX/1/1" xmlns:xsi="http://www.w3.org/2001/XMLSchema-instance" xsi:schemaLocation="http://www.topografix.com/GPX/1/1 http://www.topografix.com/GPX/1/1/gpx.xsd" version="1.1" creator="VisuGPX - https://www.visugpx.com">
  <metadata>
    <name>Boucle Freyte-étang Bleu-Pic des 3 Seigneurs-Pic de la Journalade-Cap de la Dosse</name>
    <desc><![CDATA[Longue boucle superbe de 1 600m de D ]]></desc>
  </metadata>
  <trk>
    <name><![CDATA[3 Seigneurs Journalade Dosse]]></name>
    <trkseg>
      <trkpt lat="42.84037" lon="1.48535">
        <ele>1005.68</ele>
        <time>2014-09-07T06:17:22Z</time>
      </trkpt>
      <trkpt lat="42.84009" lon="1.48514">
        <ele>1009.04</ele>
        <time>2014-09-07T06:17:34Z</time>
      </trkpt>
      <trkpt lat="42.84015" lon="1.4851">
        <ele>1007.6</ele>
        <time>2014-09-07T06:17:47Z</time>
      </trkpt>
      <trkpt lat="42.84016" lon="1.48509">
        <ele>1008.56</ele>
        <time>2014-09-07T06:18:03Z</time>
      </trkpt>
      <trkpt lat="42.84011" lon="1.48509">
        <ele>1009.04</ele>
        <time>2014-09-07T06:18:23Z</time>
      </trkpt>
      <trkpt lat="42.84007" lon="1.48514">
        <ele>1010</ele>
        <time>2014-09-07T06:18:44Z</time>
      </trkpt>
      <trkpt lat="42.8401" lon="1.48516">
        <ele>1011.44</ele>
        <time>2014-09-07T06:19:09Z</time>
      </trkpt>
      <trkpt lat="42.84019" lon="1.48504">
        <ele>1013.37</ele>
        <time>2014-09-07T06:19:25Z</time>
      </trkpt>
      <trkpt lat="42.84019" lon="1.48499">
        <ele>1015.29</ele>
        <time>2014-09-07T06:19:30Z</time>
      </trkpt>
      <trkpt lat="42.84007" lon="1.4848">
        <ele>1017.21</ele>
        <time>2014-09-07T06:19:48Z</time>
      </trkpt>
      <trkpt lat="42.84" lon="1.48464">
        <ele>1019.13</ele>
        <time>2014-09-07T06:20:05Z</time>
      </trkpt>
      <trkpt lat="42.83989" lon="1.48446">
        <ele>1021.06</ele>
        <time>2014-09-07T06:20:22Z</time>
      </trkpt>
      <trkpt lat="42.83998" lon="1.48435">
        <ele>1021.54</ele>
        <time>2014-09-07T06:20:40Z</time>
      </trkpt>
      <trkpt lat="42.83991" lon="1.48416">
        <ele>1022.5</ele>
        <time>2014-09-07T06:20:57Z</time>
      </trkpt>
      <trkpt lat="42.83981" lon="1.48388">
        <ele>1023.46</ele>
        <time>2014-09-07T06:21:15Z</time>
      </trkpt>
      <trkpt lat="42.83983" lon="1.48363">
        <ele>1024.42</ele>
        <time>2014-09-07T06:21:33Z</time>
      </trkpt>
      <trkpt lat="42.83983" lon="1.48348">
        <ele>1024.9</ele>
        <time>2014-09-07T06:21:45Z</time>
      </trkpt>
      <trkpt lat="42.83975" lon="1.48317">
        <ele>1025.86</ele>
        <time>2014-09-07T06:22:03Z</time>
      </trkpt>
      <trkpt lat="42.83971" lon="1.48283">
        <ele>1026.83</ele>
        <time>2014-09-07T06:22:24Z</time>
      </trkpt>
      <trkpt lat="42.83971" lon="1.48258">
        <ele>1026.34</ele>
        <time>2014-09-07T06:22:39Z</time>
      </trkpt>
      <trkpt lat="42.83973" lon="1.48234">
        <ele>1026.83</ele>
        <time>2014-09-07T06:22:54Z</time>
      </trkpt>
      <trkpt lat="42.83967" lon="1.48204">
        <ele>1027.79</ele>
        <time>2014-09-07T06:23:13Z</time>
      </trkpt>
      <trkpt lat="42.83967" lon="1.482">
        <ele>1027.31</ele>
        <time>2014-09-07T06:23:15Z</time>
      </trkpt>
      <trkpt lat="42.83967" lon="1.48186">
        <ele>1027.79</ele>
        <time>2014-09-07T06:23:24Z</time>
      </trkpt>
      <trkpt lat="42.8396" lon="1.48159">
        <ele>1028.75</ele>
        <time>2014-09-07T06:23:41Z</time>
      </trkpt>
      <trkpt lat="42.83956" lon="1.48141">
        <ele>1029.71</ele>
        <time>2014-09-07T06:23:54Z</time>
      </trkpt>
      <trkpt lat="42.83948" lon="1.48115">
        <ele>1031.15</ele>
        <time>2014-09-07T06:24:12Z</time>
      </trkpt>
      <trkpt lat="42.83945" lon="1.48095">
        <ele>1032.11</ele>
        <time>2014-09-07T06:24:23Z</time>
      </trkpt>
      <trkpt lat="42.83943" lon="1.48062">
        <ele>1033.55</ele>
        <time>2014-09-07T06:24:44Z</time>
      </trkpt>
      <trkpt lat="42.83945" lon="1.48059">
        <ele>1033.55</ele>
        <time>2014-09-07T06:24:46Z</time>
      </trkpt>
      <trkpt lat="42.83954" lon="1.48032">
        <ele>1035</ele>
        <time>2014-09-07T06:25:01Z</time>
      </trkpt>
      <trkpt lat="42.83959" lon="1.48004">
        <ele>1035</ele>
        <time>2014-09-07T06:25:17Z</time>
      </trkpt>
      <trkpt lat="42.83955" lon="1.4798">
        <ele>1036.92</ele>
        <time>2014-09-07T06:25:34Z</time>
      </trkpt>
      <trkpt lat="42.83954" lon="1.47978">
        <ele>1037.4</ele>
        <time>2014-09-07T06:25:36Z</time>
      </trkpt>
      <trkpt lat="42.83944" lon="1.47955">
        <ele>1039.8</ele>
        <time>2014-09-07T06:25:53Z</time>
      </trkpt>
      <trkpt lat="42.83933" lon="1.47925">
        <ele>1042.21</ele>
        <time>2014-09-07T06:26:12Z</time>
      </trkpt>
      <trkpt lat="42.8393" lon="1.47904">
        <ele>1044.13</ele>
        <time>2014-09-07T06:26:28Z</time>
      </trkpt>
      <trkpt lat="42.83924" lon="1.47884">
        <ele>1046.05</ele>
        <time>2014-09-07T06:26:46Z</time>
      </trkpt>
      <trkpt lat="42.83914" lon="1.47857">
        <ele>1048.45</ele>
        <time>2014-09-07T06:27:04Z</time>
      </trkpt>
      <trkpt lat="42.83911" lon="1.47844">
        <ele>1050.38</ele>
        <time>2014-09-07T06:27:13Z</time>
      </trkpt>
      <trkpt lat="42.83907" lon="1.47838">
        <ele>1050.38</ele>
        <time>2014-09-07T06:27:18Z</time>
      </trkpt>
      <trkpt lat="42.83899" lon="1.4782">
        <ele>1051.82</ele>
        <time>2014-09-07T06:27:32Z</time>
      </trkpt>
      <trkpt lat="42.83896" lon="1.478">
        <ele>1052.78</ele>
        <time>2014-09-07T06:27:46Z</time>
      </trkpt>
      <trkpt lat="42.83892" lon="1.47778">
        <ele>1053.26</ele>
        <time>2014-09-07T06:28:00Z</time>
      </trkpt>
      <trkpt lat="42.83895" lon="1.47753">
        <ele>1053.74</ele>
        <time>2014-09-07T06:28:15Z</time>
      </trkpt>
      <trkpt lat="42.83897" lon="1.47737">
        <ele>1053.74</ele>
        <time>2014-09-07T06:28:24Z</time>
      </trkpt>
      <trkpt lat="42.83899" lon="1.47733">
        <ele>1054.22</ele>
        <time>2014-09-07T06:28:26Z</time>
      </trkpt>
      <trkpt lat="42.83901" lon="1.47703">
        <ele>1053.74</ele>
        <time>2014-09-07T06:28:45Z</time>
      </trkpt>
      <trkpt lat="42.839" lon="1.47697">
        <ele>1053.74</ele>
        <time>2014-09-07T06:28:49Z</time>
      </trkpt>
      <trkpt lat="42.83899" lon="1.47671">
        <ele>1052.78</ele>
        <time>2014-09-07T06:29:04Z</time>
      </trkpt>
      <trkpt lat="42.83899" lon="1.47669">
        <ele>1052.78</ele>
        <time>2014-09-07T06:29:05Z</time>
      </trkpt>
      <trkpt lat="42.83899" lon="1.47649">
        <ele>1053.26</ele>
        <time>2014-09-07T06:29:17Z</time>
      </trkpt>
      <trkpt lat="42.83898" lon="1.47641">
        <ele>1053.26</ele>
        <time>2014-09-07T06:29:21Z</time>
      </trkpt>
      <trkpt lat="42.83893" lon="1.47613">
        <ele>1052.78</ele>
        <time>2014-09-07T06:29:42Z</time>
      </trkpt>
      <trkpt lat="42.83889" lon="1.47587">
        <ele>1055.18</ele>
        <time>2014-09-07T06:30:00Z</time>
      </trkpt>
      <trkpt lat="42.83887" lon="1.47561">
        <ele>1058.55</ele>
        <time>2014-09-07T06:30:17Z</time>
      </trkpt>
      <trkpt lat="42.83886" lon="1.4754">
        <ele>1059.99</ele>
        <time>2014-09-07T06:30:33Z</time>
      </trkpt>
      <trkpt lat="42.8388" lon="1.47513">
        <ele>1062.87</ele>
        <time>2014-09-07T06:30:52Z</time>
      </trkpt>
      <trkpt lat="42.83876" lon="1.47487">
        <ele>1065.76</ele>
        <time>2014-09-07T06:31:11Z</time>
      </trkpt>
      <trkpt lat="42.83868" lon="1.47463">
        <ele>1068.64</ele>
        <time>2014-09-07T06:31:29Z</time>
      </trkpt>
      <trkpt lat="42.83873" lon="1.4744">
        <ele>1071.05</ele>
        <time>2014-09-07T06:31:46Z</time>
      </trkpt>
      <trkpt lat="42.83879" lon="1.47423">
        <ele>1074.41</ele>
        <time>2014-09-07T06:32:01Z</time>
      </trkpt>
      <trkpt lat="42.8388" lon="1.47408">
        <ele>1077.78</ele>
        <time>2014-09-07T06:32:20Z</time>
      </trkpt>
      <trkpt lat="42.83881" lon="1.47401">
        <ele>1079.7</ele>
        <time>2014-09-07T06:32:29Z</time>
      </trkpt>
      <trkpt lat="42.83864" lon="1.47367">
        <ele>1081.14</ele>
        <time>2014-09-07T06:32:47Z</time>
      </trkpt>
      <trkpt lat="42.83855" lon="1.47352">
        <ele>1082.58</ele>
        <time>2014-09-07T06:33:02Z</time>
      </trkpt>
      <trkpt lat="42.83845" lon="1.47335">
        <ele>1083.54</ele>
        <time>2014-09-07T06:33:13Z</time>
      </trkpt>
      <trkpt lat="42.83848" lon="1.47312">
        <ele>1084.99</ele>
        <time>2014-09-07T06:33:30Z</time>
      </trkpt>
      <trkpt lat="42.83855" lon="1.47292">
        <ele>1085.95</ele>
        <time>2014-09-07T06:33:46Z</time>
      </trkpt>
      <trkpt lat="42.83859" lon="1.47283">
        <ele>1085.95</ele>
        <time>2014-09-07T06:33:52Z</time>
      </trkpt>
      <trkpt lat="42.8386" lon="1.47252">
        <ele>1086.91</ele>
        <time>2014-09-07T06:34:08Z</time>
      </trkpt>
      <trkpt lat="42.83861" lon="1.47227">
        <ele>1088.83</ele>
        <time>2014-09-07T06:34:23Z</time>
      </trkpt>
      <trkpt lat="42.83868" lon="1.47203">
        <ele>1090.75</ele>
        <time>2014-09-07T06:34:40Z</time>
      </trkpt>
      <trkpt lat="42.8387" lon="1.47178">
        <ele>1093.16</ele>
        <time>2014-09-07T06:34:57Z</time>
      </trkpt>
      <trkpt lat="42.83873" lon="1.47157">
        <ele>1095.08</ele>
        <time>2014-09-07T06:35:14Z</time>
      </trkpt>
      <trkpt lat="42.83868" lon="1.47131">
        <ele>1097.96</ele>
        <time>2014-09-07T06:35:33Z</time>
      </trkpt>
      <trkpt lat="42.83865" lon="1.47107">
        <ele>1099.4</ele>
        <time>2014-09-07T06:35:50Z</time>
      </trkpt>
      <trkpt lat="42.8386" lon="1.47086">
        <ele>1102.77</ele>
        <time>2014-09-07T06:36:04Z</time>
      </trkpt>
      <trkpt lat="42.83861" lon="1.47063">
        <ele>1105.65</ele>
        <time>2014-09-07T06:36:23Z</time>
      </trkpt>
      <trkpt lat="42.83872" lon="1.47048">
        <ele>1108.06</ele>
        <time>2014-09-07T06:36:38Z</time>
      </trkpt>
      <trkpt lat="42.83884" lon="1.47032">
        <ele>1109.98</ele>
        <time>2014-09-07T06:36:54Z</time>
      </trkpt>
      <trkpt lat="42.8388" lon="1.47016">
        <ele>1111.9</ele>
        <time>2014-09-07T06:37:06Z</time>
      </trkpt>
      <trkpt lat="42.8388" lon="1.46997">
        <ele>1114.31</ele>
        <time>2014-09-07T06:37:23Z</time>
      </trkpt>
      <trkpt lat="42.83877" lon="1.46977">
        <ele>1116.71</ele>
        <time>2014-09-07T06:37:38Z</time>
      </trkpt>
      <trkpt lat="42.83876" lon="1.4696">
        <ele>1119.59</ele>
        <time>2014-09-07T06:37:54Z</time>
      </trkpt>
      <trkpt lat="42.83878" lon="1.46938">
        <ele>1121.52</ele>
        <time>2014-09-07T06:38:12Z</time>
      </trkpt>
      <trkpt lat="42.83874" lon="1.46913">
        <ele>1122.48</ele>
        <time>2014-09-07T06:38:26Z</time>
      </trkpt>
      <trkpt lat="42.83873" lon="1.46907">
        <ele>1123.44</ele>
        <time>2014-09-07T06:38:30Z</time>
      </trkpt>
      <trkpt lat="42.83873" lon="1.4689">
        <ele>1124.4</ele>
        <time>2014-09-07T06:38:43Z</time>
      </trkpt>
      <trkpt lat="42.83876" lon="1.46872">
        <ele>1125.84</ele>
        <time>2014-09-07T06:38:57Z</time>
      </trkpt>
      <trkpt lat="42.83879" lon="1.46854">
        <ele>1127.76</ele>
        <time>2014-09-07T06:39:13Z</time>
      </trkpt>
      <trkpt lat="42.83882" lon="1.4683">
        <ele>1129.69</ele>
        <time>2014-09-07T06:39:28Z</time>
      </trkpt>
      <trkpt lat="42.83886" lon="1.46811">
        <ele>1132.09</ele>
        <time>2014-09-07T06:39:43Z</time>
      </trkpt>
      <trkpt lat="42.83893" lon="1.46793">
        <ele>1134.01</ele>
        <time>2014-09-07T06:39:58Z</time>
      </trkpt>
      <trkpt lat="42.83895" lon="1.46778">
        <ele>1135.45</ele>
        <time>2014-09-07T06:40:11Z</time>
      </trkpt>
      <trkpt lat="42.83899" lon="1.4676">
        <ele>1138.34</ele>
        <time>2014-09-07T06:40:27Z</time>
      </trkpt>
      <trkpt lat="42.83903" lon="1.46737">
        <ele>1140.26</ele>
        <time>2014-09-07T06:40:46Z</time>
      </trkpt>
      <trkpt lat="42.83908" lon="1.46713">
        <ele>1141.7</ele>
        <time>2014-09-07T06:41:04Z</time>
      </trkpt>
      <trkpt lat="42.8391" lon="1.46695">
        <ele>1143.14</ele>
        <time>2014-09-07T06:41:16Z</time>
      </trkpt>
      <trkpt lat="42.83911" lon="1.46672">
        <ele>1145.55</ele>
        <time>2014-09-07T06:41:33Z</time>
      </trkpt>
      <trkpt lat="42.83915" lon="1.46649">
        <ele>1147.47</ele>
        <time>2014-09-07T06:41:49Z</time>
      </trkpt>
      <trkpt lat="42.83917" lon="1.46622">
        <ele>1149.87</ele>
        <time>2014-09-07T06:42:08Z</time>
      </trkpt>
      <trkpt lat="42.83917" lon="1.46598">
        <ele>1151.8</ele>
        <time>2014-09-07T06:42:27Z</time>
      </trkpt>
      <trkpt lat="42.83914" lon="1.46593">
        <ele>1153.24</ele>
        <time>2014-09-07T06:42:34Z</time>
      </trkpt>
      <trkpt lat="42.83909" lon="1.4658">
        <ele>1153.72</ele>
        <time>2014-09-07T06:42:44Z</time>
      </trkpt>
      <trkpt lat="42.83903" lon="1.46552">
        <ele>1155.16</ele>
        <time>2014-09-07T06:43:02Z</time>
      </trkpt>
      <trkpt lat="42.83901" lon="1.46533">
        <ele>1156.12</ele>
        <time>2014-09-07T06:43:14Z</time>
      </trkpt>
      <trkpt lat="42.83901" lon="1.4653">
        <ele>1155.64</ele>
        <time>2014-09-07T06:43:16Z</time>
      </trkpt>
      <trkpt lat="42.83899" lon="1.46524">
        <ele>1156.6</ele>
        <time>2014-09-07T06:43:20Z</time>
      </trkpt>
      <trkpt lat="42.83894" lon="1.46498">
        <ele>1156.6</ele>
        <time>2014-09-07T06:43:35Z</time>
      </trkpt>
      <trkpt lat="42.83887" lon="1.46475">
        <ele>1157.56</ele>
        <time>2014-09-07T06:43:50Z</time>
      </trkpt>
      <trkpt lat="42.83883" lon="1.46453">
        <ele>1158.05</ele>
        <time>2014-09-07T06:44:04Z</time>
      </trkpt>
      <trkpt lat="42.83884" lon="1.46444">
        <ele>1159.49</ele>
        <time>2014-09-07T06:44:10Z</time>
      </trkpt>
      <trkpt lat="42.83891" lon="1.46422">
        <ele>1159.49</ele>
        <time>2014-09-07T06:44:25Z</time>
      </trkpt>
      <trkpt lat="42.83895" lon="1.46397">
        <ele>1161.41</ele>
        <time>2014-09-07T06:44:41Z</time>
      </trkpt>
      <trkpt lat="42.83896" lon="1.46377">
        <ele>1161.89</ele>
        <time>2014-09-07T06:44:58Z</time>
      </trkpt>
      <trkpt lat="42.83897" lon="1.46371">
        <ele>1162.37</ele>
        <time>2014-09-07T06:45:03Z</time>
      </trkpt>
      <trkpt lat="42.83896" lon="1.46359">
        <ele>1162.37</ele>
        <time>2014-09-07T06:45:10Z</time>
      </trkpt>
      <trkpt lat="42.83897" lon="1.46333">
        <ele>1163.33</ele>
        <time>2014-09-07T06:45:27Z</time>
      </trkpt>
      <trkpt lat="42.83896" lon="1.46308">
        <ele>1164.29</ele>
        <time>2014-09-07T06:45:43Z</time>
      </trkpt>
      <trkpt lat="42.83891" lon="1.46291">
        <ele>1164.29</ele>
        <time>2014-09-07T06:45:56Z</time>
      </trkpt>
      <trkpt lat="42.83893" lon="1.4627">
        <ele>1165.74</ele>
        <time>2014-09-07T06:46:12Z</time>
      </trkpt>
      <trkpt lat="42.83894" lon="1.46259">
        <ele>1165.74</ele>
        <time>2014-09-07T06:46:19Z</time>
      </trkpt>
      <trkpt lat="42.83891" lon="1.46252">
        <ele>1165.74</ele>
        <time>2014-09-07T06:46:23Z</time>
      </trkpt>
      <trkpt lat="42.83884" lon="1.46237">
        <ele>1166.7</ele>
        <time>2014-09-07T06:46:38Z</time>
      </trkpt>
      <trkpt lat="42.83878" lon="1.4624">
        <ele>1165.26</ele>
        <time>2014-09-07T06:46:50Z</time>
      </trkpt>
      <trkpt lat="42.83869" lon="1.46247">
        <ele>1165.26</ele>
        <time>2014-09-07T06:47:05Z</time>
      </trkpt>
      <trkpt lat="42.83864" lon="1.46248">
        <ele>1165.26</ele>
        <time>2014-09-07T06:47:24Z</time>
      </trkpt>
      <trkpt lat="42.8386" lon="1.46245">
        <ele>1165.74</ele>
        <time>2014-09-07T06:47:42Z</time>
      </trkpt>
      <trkpt lat="42.83863" lon="1.46252">
        <ele>1164.77</ele>
        <time>2014-09-07T06:47:58Z</time>
      </trkpt>
      <trkpt lat="42.83866" lon="1.46248">
        <ele>1165.26</ele>
        <time>2014-09-07T06:48:32Z</time>
      </trkpt>
      <trkpt lat="42.83867" lon="1.46253">
        <ele>1166.22</ele>
        <time>2014-09-07T06:48:51Z</time>
      </trkpt>
      <trkpt lat="42.83857" lon="1.46256">
        <ele>1165.74</ele>
        <time>2014-09-07T06:49:10Z</time>
      </trkpt>
      <trkpt lat="42.83857" lon="1.46254">
        <ele>1166.22</ele>
        <time>2014-09-07T06:49:28Z</time>
      </trkpt>
      <trkpt lat="42.83856" lon="1.46238">
        <ele>1166.22</ele>
        <time>2014-09-07T06:49:55Z</time>
      </trkpt>
      <trkpt lat="42.83853" lon="1.46248">
        <ele>1166.22</ele>
        <time>2014-09-07T06:50:22Z</time>
      </trkpt>
      <trkpt lat="42.83853" lon="1.46242">
        <ele>1166.22</ele>
        <time>2014-09-07T06:50:52Z</time>
      </trkpt>
      <trkpt lat="42.83852" lon="1.46226">
        <ele>1167.66</ele>
        <time>2014-09-07T06:51:20Z</time>
      </trkpt>
      <trkpt lat="42.83845" lon="1.46216">
        <ele>1168.14</ele>
        <time>2014-09-07T06:51:37Z</time>
      </trkpt>
      <trkpt lat="42.83843" lon="1.46216">
        <ele>1168.62</ele>
        <time>2014-09-07T06:51:56Z</time>
      </trkpt>
      <trkpt lat="42.83844" lon="1.46215">
        <ele>1169.58</ele>
        <time>2014-09-07T06:52:12Z</time>
      </trkpt>
      <trkpt lat="42.83842" lon="1.46211">
        <ele>1170.06</ele>
        <time>2014-09-07T06:52:29Z</time>
      </trkpt>
      <trkpt lat="42.83841" lon="1.46193">
        <ele>1171.02</ele>
        <time>2014-09-07T06:52:44Z</time>
      </trkpt>
      <trkpt lat="42.83837" lon="1.46172">
        <ele>1171.5</ele>
        <time>2014-09-07T06:53:00Z</time>
      </trkpt>
      <trkpt lat="42.83836" lon="1.46151">
        <ele>1172.95</ele>
        <time>2014-09-07T06:53:16Z</time>
      </trkpt>
      <trkpt lat="42.83836" lon="1.46144">
        <ele>1173.43</ele>
        <time>2014-09-07T06:53:33Z</time>
      </trkpt>
      <trkpt lat="42.83831" lon="1.46128">
        <ele>1174.39</ele>
        <time>2014-09-07T06:53:50Z</time>
      </trkpt>
      <trkpt lat="42.83829" lon="1.46122">
        <ele>1174.39</ele>
        <time>2014-09-07T06:53:54Z</time>
      </trkpt>
      <trkpt lat="42.83826" lon="1.46111">
        <ele>1173.91</ele>
        <time>2014-09-07T06:54:03Z</time>
      </trkpt>
      <trkpt lat="42.83825" lon="1.46094">
        <ele>1174.87</ele>
        <time>2014-09-07T06:54:17Z</time>
      </trkpt>
      <trkpt lat="42.83824" lon="1.46073">
        <ele>1176.31</ele>
        <time>2014-09-07T06:54:32Z</time>
      </trkpt>
      <trkpt lat="42.83818" lon="1.46055">
        <ele>1176.31</ele>
        <time>2014-09-07T06:54:47Z</time>
      </trkpt>
      <trkpt lat="42.83819" lon="1.46038">
        <ele>1177.75</ele>
        <time>2014-09-07T06:55:01Z</time>
      </trkpt>
      <trkpt lat="42.83817" lon="1.46018">
        <ele>1179.19</ele>
        <time>2014-09-07T06:55:16Z</time>
      </trkpt>
      <trkpt lat="42.83815" lon="1.46008">
        <ele>1181.12</ele>
        <time>2014-09-07T06:55:30Z</time>
      </trkpt>
      <trkpt lat="42.83812" lon="1.46">
        <ele>1183.04</ele>
        <time>2014-09-07T06:55:35Z</time>
      </trkpt>
      <trkpt lat="42.83812" lon="1.45996">
        <ele>1183.04</ele>
        <time>2014-09-07T06:55:39Z</time>
      </trkpt>
      <trkpt lat="42.838" lon="1.45976">
        <ele>1185.44</ele>
        <time>2014-09-07T06:55:57Z</time>
      </trkpt>
      <trkpt lat="42.83791" lon="1.45959">
        <ele>1188.33</ele>
        <time>2014-09-07T06:56:13Z</time>
      </trkpt>
      <trkpt lat="42.83782" lon="1.45944">
        <ele>1191.21</ele>
        <time>2014-09-07T06:56:31Z</time>
      </trkpt>
      <trkpt lat="42.83791" lon="1.45935">
        <ele>1193.61</ele>
        <time>2014-09-07T06:56:47Z</time>
      </trkpt>
      <trkpt lat="42.83789" lon="1.45933">
        <ele>1193.61</ele>
        <time>2014-09-07T06:57:08Z</time>
      </trkpt>
      <trkpt lat="42.83791" lon="1.45935">
        <ele>1193.61</ele>
        <time>2014-09-07T06:57:37Z</time>
      </trkpt>
      <trkpt lat="42.83783" lon="1.45933">
        <ele>1193.61</ele>
        <time>2014-09-07T06:57:58Z</time>
      </trkpt>
      <trkpt lat="42.83776" lon="1.45925">
        <ele>1196.02</ele>
        <time>2014-09-07T06:58:30Z</time>
      </trkpt>
      <trkpt lat="42.83777" lon="1.45915">
        <ele>1199.38</ele>
        <time>2014-09-07T06:58:46Z</time>
      </trkpt>
      <trkpt lat="42.83766" lon="1.45912">
        <ele>1202.75</ele>
        <time>2014-09-07T06:59:02Z</time>
      </trkpt>
      <trkpt lat="42.83757" lon="1.45908">
        <ele>1205.63</ele>
        <time>2014-09-07T06:59:18Z</time>
      </trkpt>
      <trkpt lat="42.83761" lon="1.459">
        <ele>1209</ele>
        <time>2014-09-07T06:59:33Z</time>
      </trkpt>
      <trkpt lat="42.83744" lon="1.45901">
        <ele>1211.88</ele>
        <time>2014-09-07T06:59:50Z</time>
      </trkpt>
      <trkpt lat="42.83733" lon="1.45916">
        <ele>1215.24</ele>
        <time>2014-09-07T07:00:07Z</time>
      </trkpt>
      <trkpt lat="42.83723" lon="1.45922">
        <ele>1218.13</ele>
        <time>2014-09-07T07:00:26Z</time>
      </trkpt>
      <trkpt lat="42.83721" lon="1.45929">
        <ele>1221.49</ele>
        <time>2014-09-07T07:00:45Z</time>
      </trkpt>
      <trkpt lat="42.83727" lon="1.45922">
        <ele>1224.38</ele>
        <time>2014-09-07T07:01:02Z</time>
      </trkpt>
      <trkpt lat="42.83716" lon="1.45925">
        <ele>1227.74</ele>
        <time>2014-09-07T07:01:22Z</time>
      </trkpt>
      <trkpt lat="42.83721" lon="1.45911">
        <ele>1231.11</ele>
        <time>2014-09-07T07:01:41Z</time>
      </trkpt>
      <trkpt lat="42.83699" lon="1.45912">
        <ele>1234.47</ele>
        <time>2014-09-07T07:01:58Z</time>
      </trkpt>
      <trkpt lat="42.83705" lon="1.45905">
        <ele>1236.87</ele>
        <time>2014-09-07T07:02:17Z</time>
      </trkpt>
      <trkpt lat="42.83704" lon="1.45899">
        <ele>1240.24</ele>
        <time>2014-09-07T07:02:35Z</time>
      </trkpt>
      <trkpt lat="42.83695" lon="1.45898">
        <ele>1243.12</ele>
        <time>2014-09-07T07:02:53Z</time>
      </trkpt>
      <trkpt lat="42.83703" lon="1.45887">
        <ele>1246.01</ele>
        <time>2014-09-07T07:03:08Z</time>
      </trkpt>
      <trkpt lat="42.83703" lon="1.4588">
        <ele>1248.41</ele>
        <time>2014-09-07T07:03:27Z</time>
      </trkpt>
      <trkpt lat="42.83695" lon="1.45876">
        <ele>1251.29</ele>
        <time>2014-09-07T07:03:44Z</time>
      </trkpt>
      <trkpt lat="42.83694" lon="1.45865">
        <ele>1254.18</ele>
        <time>2014-09-07T07:03:59Z</time>
      </trkpt>
      <trkpt lat="42.83675" lon="1.45873">
        <ele>1255.62</ele>
        <time>2014-09-07T07:04:15Z</time>
      </trkpt>
      <trkpt lat="42.83671" lon="1.45872">
        <ele>1259.46</ele>
        <time>2014-09-07T07:04:29Z</time>
      </trkpt>
      <trkpt lat="42.83674" lon="1.45861">
        <ele>1262.35</ele>
        <time>2014-09-07T07:04:48Z</time>
      </trkpt>
      <trkpt lat="42.83672" lon="1.4585">
        <ele>1265.23</ele>
        <time>2014-09-07T07:05:05Z</time>
      </trkpt>
      <trkpt lat="42.8367" lon="1.45845">
        <ele>1269.08</ele>
        <time>2014-09-07T07:05:23Z</time>
      </trkpt>
      <trkpt lat="42.83657" lon="1.45847">
        <ele>1271.96</ele>
        <time>2014-09-07T07:05:42Z</time>
      </trkpt>
      <trkpt lat="42.83646" lon="1.4585">
        <ele>1274.36</ele>
        <time>2014-09-07T07:06:01Z</time>
      </trkpt>
      <trkpt lat="42.83641" lon="1.45847">
        <ele>1277.73</ele>
        <time>2014-09-07T07:06:15Z</time>
      </trkpt>
      <trkpt lat="42.83627" lon="1.45864">
        <ele>1280.61</ele>
        <time>2014-09-07T07:06:33Z</time>
      </trkpt>
      <trkpt lat="42.83634" lon="1.45862">
        <ele>1283.5</ele>
        <time>2014-09-07T07:06:49Z</time>
      </trkpt>
      <trkpt lat="42.8364" lon="1.45845">
        <ele>1286.86</ele>
        <time>2014-09-07T07:07:09Z</time>
      </trkpt>
      <trkpt lat="42.83623" lon="1.45855">
        <ele>1289.75</ele>
        <time>2014-09-07T07:07:27Z</time>
      </trkpt>
      <trkpt lat="42.83616" lon="1.45862">
        <ele>1293.11</ele>
        <time>2014-09-07T07:07:43Z</time>
      </trkpt>
      <trkpt lat="42.83628" lon="1.45851">
        <ele>1295.03</ele>
        <time>2014-09-07T07:07:57Z</time>
      </trkpt>
      <trkpt lat="42.83621" lon="1.4585">
        <ele>1298.4</ele>
        <time>2014-09-07T07:08:17Z</time>
      </trkpt>
      <trkpt lat="42.83626" lon="1.45848">
        <ele>1301.28</ele>
        <time>2014-09-07T07:08:34Z</time>
      </trkpt>
      <trkpt lat="42.83617" lon="1.45835">
        <ele>1304.65</ele>
        <time>2014-09-07T07:08:54Z</time>
      </trkpt>
      <trkpt lat="42.83617" lon="1.45825">
        <ele>1307.53</ele>
        <time>2014-09-07T07:09:10Z</time>
      </trkpt>
      <trkpt lat="42.83615" lon="1.45822">
        <ele>1309.45</ele>
        <time>2014-09-07T07:09:19Z</time>
      </trkpt>
      <trkpt lat="42.83608" lon="1.45808">
        <ele>1310.41</ele>
        <time>2014-09-07T07:09:36Z</time>
      </trkpt>
      <trkpt lat="42.83609" lon="1.4579">
        <ele>1313.78</ele>
        <time>2014-09-07T07:09:53Z</time>
      </trkpt>
      <trkpt lat="42.83598" lon="1.45778">
        <ele>1315.7</ele>
        <time>2014-09-07T07:10:11Z</time>
      </trkpt>
      <trkpt lat="42.83594" lon="1.45767">
        <ele>1318.59</ele>
        <time>2014-09-07T07:10:27Z</time>
      </trkpt>
      <trkpt lat="42.83584" lon="1.45764">
        <ele>1321.47</ele>
        <time>2014-09-07T07:10:45Z</time>
      </trkpt>
      <trkpt lat="42.8358" lon="1.45754">
        <ele>1323.39</ele>
        <time>2014-09-07T07:11:02Z</time>
      </trkpt>
      <trkpt lat="42.83575" lon="1.45742">
        <ele>1326.76</ele>
        <time>2014-09-07T07:11:21Z</time>
      </trkpt>
      <trkpt lat="42.83564" lon="1.45728">
        <ele>1328.2</ele>
        <time>2014-09-07T07:11:40Z</time>
      </trkpt>
      <trkpt lat="42.83559" lon="1.45719">
        <ele>1329.16</ele>
        <time>2014-09-07T07:11:55Z</time>
      </trkpt>
      <trkpt lat="42.83552" lon="1.45713">
        <ele>1332.52</ele>
        <time>2014-09-07T07:12:10Z</time>
      </trkpt>
      <trkpt lat="42.8355" lon="1.45705">
        <ele>1335.41</ele>
        <time>2014-09-07T07:12:20Z</time>
      </trkpt>
      <trkpt lat="42.83551" lon="1.45687">
        <ele>1336.37</ele>
        <time>2014-09-07T07:12:39Z</time>
      </trkpt>
      <trkpt lat="42.83551" lon="1.45672">
        <ele>1339.25</ele>
        <time>2014-09-07T07:12:55Z</time>
      </trkpt>
      <trkpt lat="42.8355" lon="1.45659">
        <ele>1342.14</ele>
        <time>2014-09-07T07:13:13Z</time>
      </trkpt>
      <trkpt lat="42.83548" lon="1.45649">
        <ele>1344.54</ele>
        <time>2014-09-07T07:13:29Z</time>
      </trkpt>
      <trkpt lat="42.83538" lon="1.4564">
        <ele>1345.98</ele>
        <time>2014-09-07T07:13:45Z</time>
      </trkpt>
      <trkpt lat="42.83528" lon="1.45629">
        <ele>1345.02</ele>
        <time>2014-09-07T07:14:02Z</time>
      </trkpt>
      <trkpt lat="42.83513" lon="1.45622">
        <ele>1347.43</ele>
        <time>2014-09-07T07:14:20Z</time>
      </trkpt>
      <trkpt lat="42.83493" lon="1.45625">
        <ele>1348.87</ele>
        <time>2014-09-07T07:14:39Z</time>
      </trkpt>
      <trkpt lat="42.83482" lon="1.4563">
        <ele>1350.31</ele>
        <time>2014-09-07T07:14:53Z</time>
      </trkpt>
      <trkpt lat="42.83475" lon="1.45624">
        <ele>1352.23</ele>
        <time>2014-09-07T07:15:12Z</time>
      </trkpt>
      <trkpt lat="42.83457" lon="1.45624">
        <ele>1355.12</ele>
        <time>2014-09-07T07:15:30Z</time>
      </trkpt>
      <trkpt lat="42.83451" lon="1.45624">
        <ele>1357.04</ele>
        <time>2014-09-07T07:15:46Z</time>
      </trkpt>
      <trkpt lat="42.83448" lon="1.45619">
        <ele>1359.92</ele>
        <time>2014-09-07T07:16:02Z</time>
      </trkpt>
      <trkpt lat="42.83438" lon="1.45615">
        <ele>1362.33</ele>
        <time>2014-09-07T07:16:19Z</time>
      </trkpt>
      <trkpt lat="42.83426" lon="1.45622">
        <ele>1365.21</ele>
        <time>2014-09-07T07:16:35Z</time>
      </trkpt>
      <trkpt lat="42.83421" lon="1.45623">
        <ele>1368.57</ele>
        <time>2014-09-07T07:16:51Z</time>
      </trkpt>
      <trkpt lat="42.83416" lon="1.45621">
        <ele>1369.54</ele>
        <time>2014-09-07T07:17:08Z</time>
      </trkpt>
      <trkpt lat="42.8341" lon="1.45628">
        <ele>1371.94</ele>
        <time>2014-09-07T07:17:20Z</time>
      </trkpt>
      <trkpt lat="42.83405" lon="1.45625">
        <ele>1374.34</ele>
        <time>2014-09-07T07:17:36Z</time>
      </trkpt>
      <trkpt lat="42.83394" lon="1.4563">
        <ele>1377.23</ele>
        <time>2014-09-07T07:17:51Z</time>
      </trkpt>
      <trkpt lat="42.83394" lon="1.45629">
        <ele>1380.11</ele>
        <time>2014-09-07T07:18:07Z</time>
      </trkpt>
      <trkpt lat="42.8339" lon="1.45622">
        <ele>1381.55</ele>
        <time>2014-09-07T07:18:25Z</time>
      </trkpt>
      <trkpt lat="42.8339" lon="1.45618">
        <ele>1385.4</ele>
        <time>2014-09-07T07:18:42Z</time>
      </trkpt>
      <trkpt lat="42.83375" lon="1.45617">
        <ele>1388.28</ele>
        <time>2014-09-07T07:18:59Z</time>
      </trkpt>
      <trkpt lat="42.8337" lon="1.4561">
        <ele>1389.24</ele>
        <time>2014-09-07T07:19:14Z</time>
      </trkpt>
      <trkpt lat="42.83363" lon="1.45607">
        <ele>1390.2</ele>
        <time>2014-09-07T07:19:28Z</time>
      </trkpt>
      <trkpt lat="42.83358" lon="1.45602">
        <ele>1392.61</ele>
        <time>2014-09-07T07:19:41Z</time>
      </trkpt>
      <trkpt lat="42.83353" lon="1.4559">
        <ele>1391.65</ele>
        <time>2014-09-07T07:19:56Z</time>
      </trkpt>
      <trkpt lat="42.83349" lon="1.4558">
        <ele>1392.13</ele>
        <time>2014-09-07T07:20:09Z</time>
      </trkpt>
      <trkpt lat="42.8334" lon="1.45571">
        <ele>1393.09</ele>
        <time>2014-09-07T07:20:25Z</time>
      </trkpt>
      <trkpt lat="42.83335" lon="1.45564">
        <ele>1393.57</ele>
        <time>2014-09-07T07:20:39Z</time>
      </trkpt>
      <trkpt lat="42.83327" lon="1.45555">
        <ele>1395.49</ele>
        <time>2014-09-07T07:20:55Z</time>
      </trkpt>
      <trkpt lat="42.83317" lon="1.45549">
        <ele>1397.41</ele>
        <time>2014-09-07T07:21:15Z</time>
      </trkpt>
      <trkpt lat="42.83309" lon="1.45551">
        <ele>1399.34</ele>
        <time>2014-09-07T07:21:29Z</time>
      </trkpt>
      <trkpt lat="42.833" lon="1.45544">
        <ele>1401.26</ele>
        <time>2014-09-07T07:21:45Z</time>
      </trkpt>
      <trkpt lat="42.83294" lon="1.45531">
        <ele>1402.7</ele>
        <time>2014-09-07T07:22:03Z</time>
      </trkpt>
      <trkpt lat="42.83282" lon="1.4552">
        <ele>1403.18</ele>
        <time>2014-09-07T07:22:18Z</time>
      </trkpt>
      <trkpt lat="42.83273" lon="1.45508">
        <ele>1405.58</ele>
        <time>2014-09-07T07:22:33Z</time>
      </trkpt>
      <trkpt lat="42.83269" lon="1.45499">
        <ele>1407.03</ele>
        <time>2014-09-07T07:22:46Z</time>
      </trkpt>
      <trkpt lat="42.83264" lon="1.45491">
        <ele>1408.95</ele>
        <time>2014-09-07T07:23:02Z</time>
      </trkpt>
      <trkpt lat="42.83256" lon="1.45487">
        <ele>1411.35</ele>
        <time>2014-09-07T07:23:16Z</time>
      </trkpt>
      <trkpt lat="42.83259" lon="1.45474">
        <ele>1413.28</ele>
        <time>2014-09-07T07:23:34Z</time>
      </trkpt>
      <trkpt lat="42.83256" lon="1.45471">
        <ele>1415.68</ele>
        <time>2014-09-07T07:23:50Z</time>
      </trkpt>
      <trkpt lat="42.8326" lon="1.45475">
        <ele>1416.64</ele>
        <time>2014-09-07T07:24:05Z</time>
      </trkpt>
      <trkpt lat="42.83263" lon="1.45473">
        <ele>1419.04</ele>
        <time>2014-09-07T07:24:19Z</time>
      </trkpt>
      <trkpt lat="42.8326" lon="1.45466">
        <ele>1421.45</ele>
        <time>2014-09-07T07:24:36Z</time>
      </trkpt>
      <trkpt lat="42.83258" lon="1.45457">
        <ele>1423.37</ele>
        <time>2014-09-07T07:24:51Z</time>
      </trkpt>
      <trkpt lat="42.83261" lon="1.45449">
        <ele>1425.77</ele>
        <time>2014-09-07T07:25:08Z</time>
      </trkpt>
      <trkpt lat="42.83261" lon="1.45442">
        <ele>1428.18</ele>
        <time>2014-09-07T07:25:22Z</time>
      </trkpt>
      <trkpt lat="42.8327" lon="1.45438">
        <ele>1431.06</ele>
        <time>2014-09-07T07:25:38Z</time>
      </trkpt>
      <trkpt lat="42.83273" lon="1.4543">
        <ele>1432.5</ele>
        <time>2014-09-07T07:25:52Z</time>
      </trkpt>
      <trkpt lat="42.83275" lon="1.45417">
        <ele>1434.42</ele>
        <time>2014-09-07T07:26:06Z</time>
      </trkpt>
      <trkpt lat="42.83276" lon="1.45402">
        <ele>1436.83</ele>
        <time>2014-09-07T07:26:25Z</time>
      </trkpt>
      <trkpt lat="42.8328" lon="1.45395">
        <ele>1438.75</ele>
        <time>2014-09-07T07:26:41Z</time>
      </trkpt>
      <trkpt lat="42.83285" lon="1.45383">
        <ele>1441.63</ele>
        <time>2014-09-07T07:26:55Z</time>
      </trkpt>
      <trkpt lat="42.83287" lon="1.45379">
        <ele>1441.63</ele>
        <time>2014-09-07T07:27:10Z</time>
      </trkpt>
      <trkpt lat="42.83286" lon="1.45374">
        <ele>1443.08</ele>
        <time>2014-09-07T07:27:23Z</time>
      </trkpt>
      <trkpt lat="42.83285" lon="1.45362">
        <ele>1445</ele>
        <time>2014-09-07T07:27:39Z</time>
      </trkpt>
      <trkpt lat="42.83286" lon="1.45348">
        <ele>1446.44</ele>
        <time>2014-09-07T07:27:52Z</time>
      </trkpt>
      <trkpt lat="42.83278" lon="1.45336">
        <ele>1448.36</ele>
        <time>2014-09-07T07:28:07Z</time>
      </trkpt>
      <trkpt lat="42.83274" lon="1.45326">
        <ele>1450.29</ele>
        <time>2014-09-07T07:28:21Z</time>
      </trkpt>
      <trkpt lat="42.83271" lon="1.45323">
        <ele>1450.29</ele>
        <time>2014-09-07T07:28:26Z</time>
      </trkpt>
      <trkpt lat="42.83259" lon="1.45315">
        <ele>1453.17</ele>
        <time>2014-09-07T07:28:41Z</time>
      </trkpt>
      <trkpt lat="42.83251" lon="1.45305">
        <ele>1454.61</ele>
        <time>2014-09-07T07:28:56Z</time>
      </trkpt>
      <trkpt lat="42.83249" lon="1.45303">
        <ele>1455.09</ele>
        <time>2014-09-07T07:28:59Z</time>
      </trkpt>
      <trkpt lat="42.83237" lon="1.453">
        <ele>1457.02</ele>
        <time>2014-09-07T07:29:14Z</time>
      </trkpt>
      <trkpt lat="42.83225" lon="1.453">
        <ele>1459.42</ele>
        <time>2014-09-07T07:29:29Z</time>
      </trkpt>
      <trkpt lat="42.83216" lon="1.45302">
        <ele>1461.82</ele>
        <time>2014-09-07T07:29:43Z</time>
      </trkpt>
      <trkpt lat="42.83205" lon="1.45302">
        <ele>1464.23</ele>
        <time>2014-09-07T07:29:59Z</time>
      </trkpt>
      <trkpt lat="42.83195" lon="1.45301">
        <ele>1467.11</ele>
        <time>2014-09-07T07:30:15Z</time>
      </trkpt>
      <trkpt lat="42.83188" lon="1.45295">
        <ele>1469.99</ele>
        <time>2014-09-07T07:30:30Z</time>
      </trkpt>
      <trkpt lat="42.83177" lon="1.453">
        <ele>1472.4</ele>
        <time>2014-09-07T07:30:44Z</time>
      </trkpt>
      <trkpt lat="42.83168" lon="1.45297">
        <ele>1475.76</ele>
        <time>2014-09-07T07:30:58Z</time>
      </trkpt>
      <trkpt lat="42.8316" lon="1.45286">
        <ele>1477.68</ele>
        <time>2014-09-07T07:31:13Z</time>
      </trkpt>
      <trkpt lat="42.83144" lon="1.45286">
        <ele>1479.61</ele>
        <time>2014-09-07T07:31:29Z</time>
      </trkpt>
      <trkpt lat="42.83141" lon="1.45284">
        <ele>1482.97</ele>
        <time>2014-09-07T07:31:42Z</time>
      </trkpt>
      <trkpt lat="42.83133" lon="1.45282">
        <ele>1484.89</ele>
        <time>2014-09-07T07:31:56Z</time>
      </trkpt>
      <trkpt lat="42.83123" lon="1.45279">
        <ele>1487.78</ele>
        <time>2014-09-07T07:32:11Z</time>
      </trkpt>
      <trkpt lat="42.83119" lon="1.45272">
        <ele>1490.18</ele>
        <time>2014-09-07T07:32:25Z</time>
      </trkpt>
      <trkpt lat="42.83106" lon="1.45271">
        <ele>1493.55</ele>
        <time>2014-09-07T07:32:44Z</time>
      </trkpt>
      <trkpt lat="42.83096" lon="1.45271">
        <ele>1495.95</ele>
        <time>2014-09-07T07:33:00Z</time>
      </trkpt>
      <trkpt lat="42.83087" lon="1.45271">
        <ele>1497.39</ele>
        <time>2014-09-07T07:33:12Z</time>
      </trkpt>
      <trkpt lat="42.8308" lon="1.4527">
        <ele>1500.76</ele>
        <time>2014-09-07T07:33:27Z</time>
      </trkpt>
      <trkpt lat="42.83078" lon="1.45266">
        <ele>1503.16</ele>
        <time>2014-09-07T07:33:40Z</time>
      </trkpt>
      <trkpt lat="42.8307" lon="1.4527">
        <ele>1506.04</ele>
        <time>2014-09-07T07:33:56Z</time>
      </trkpt>
      <trkpt lat="42.83064" lon="1.45265">
        <ele>1508.45</ele>
        <time>2014-09-07T07:34:13Z</time>
      </trkpt>
      <trkpt lat="42.83064" lon="1.4526">
        <ele>1511.81</ele>
        <time>2014-09-07T07:34:27Z</time>
      </trkpt>
      <trkpt lat="42.83057" lon="1.45259">
        <ele>1514.21</ele>
        <time>2014-09-07T07:34:44Z</time>
      </trkpt>
      <trkpt lat="42.83053" lon="1.45258">
        <ele>1517.58</ele>
        <time>2014-09-07T07:35:02Z</time>
      </trkpt>
      <trkpt lat="42.83054" lon="1.45249">
        <ele>1519.98</ele>
        <time>2014-09-07T07:35:17Z</time>
      </trkpt>
      <trkpt lat="42.83051" lon="1.45242">
        <ele>1522.87</ele>
        <time>2014-09-07T07:35:30Z</time>
      </trkpt>
      <trkpt lat="42.83051" lon="1.45235">
        <ele>1524.79</ele>
        <time>2014-09-07T07:35:45Z</time>
      </trkpt>
      <trkpt lat="42.8304" lon="1.45236">
        <ele>1527.19</ele>
        <time>2014-09-07T07:36:05Z</time>
      </trkpt>
      <trkpt lat="42.83039" lon="1.45229">
        <ele>1530.56</ele>
        <time>2014-09-07T07:36:21Z</time>
      </trkpt>
      <trkpt lat="42.83039" lon="1.45218">
        <ele>1533.44</ele>
        <time>2014-09-07T07:36:37Z</time>
      </trkpt>
      <trkpt lat="42.83035" lon="1.45215">
        <ele>1536.8</ele>
        <time>2014-09-07T07:36:53Z</time>
      </trkpt>
      <trkpt lat="42.83025" lon="1.45232">
        <ele>1539.69</ele>
        <time>2014-09-07T07:37:09Z</time>
      </trkpt>
      <trkpt lat="42.83022" lon="1.4524">
        <ele>1542.09</ele>
        <time>2014-09-07T07:37:24Z</time>
      </trkpt>
      <trkpt lat="42.83014" lon="1.45236">
        <ele>1544.5</ele>
        <time>2014-09-07T07:37:38Z</time>
      </trkpt>
      <trkpt lat="42.83015" lon="1.45226">
        <ele>1546.9</ele>
        <time>2014-09-07T07:37:54Z</time>
      </trkpt>
      <trkpt lat="42.83006" lon="1.45228">
        <ele>1550.26</ele>
        <time>2014-09-07T07:38:11Z</time>
      </trkpt>
      <trkpt lat="42.82999" lon="1.45237">
        <ele>1553.63</ele>
        <time>2014-09-07T07:38:26Z</time>
      </trkpt>
      <trkpt lat="42.82997" lon="1.45242">
        <ele>1555.55</ele>
        <time>2014-09-07T07:38:43Z</time>
      </trkpt>
      <trkpt lat="42.82997" lon="1.45249">
        <ele>1558.43</ele>
        <time>2014-09-07T07:38:59Z</time>
      </trkpt>
      <trkpt lat="42.83004" lon="1.45257">
        <ele>1561.32</ele>
        <time>2014-09-07T07:39:17Z</time>
      </trkpt>
      <trkpt lat="42.82998" lon="1.45266">
        <ele>1563.72</ele>
        <time>2014-09-07T07:39:34Z</time>
      </trkpt>
      <trkpt lat="42.82994" lon="1.45271">
        <ele>1567.09</ele>
        <time>2014-09-07T07:39:50Z</time>
      </trkpt>
      <trkpt lat="42.82992" lon="1.45278">
        <ele>1569.01</ele>
        <time>2014-09-07T07:40:07Z</time>
      </trkpt>
      <trkpt lat="42.82987" lon="1.45274">
        <ele>1572.37</ele>
        <time>2014-09-07T07:40:22Z</time>
      </trkpt>
      <trkpt lat="42.82983" lon="1.4528">
        <ele>1574.78</ele>
        <time>2014-09-07T07:40:37Z</time>
      </trkpt>
      <trkpt lat="42.82981" lon="1.4529">
        <ele>1576.7</ele>
        <time>2014-09-07T07:40:51Z</time>
      </trkpt>
      <trkpt lat="42.82982" lon="1.45294">
        <ele>1579.1</ele>
        <time>2014-09-07T07:41:07Z</time>
      </trkpt>
      <trkpt lat="42.82981" lon="1.45297">
        <ele>1582.47</ele>
        <time>2014-09-07T07:41:21Z</time>
      </trkpt>
      <trkpt lat="42.82976" lon="1.45306">
        <ele>1584.87</ele>
        <time>2014-09-07T07:41:36Z</time>
      </trkpt>
      <trkpt lat="42.82975" lon="1.45312">
        <ele>1587.75</ele>
        <time>2014-09-07T07:41:53Z</time>
      </trkpt>
      <trkpt lat="42.82974" lon="1.45321">
        <ele>1590.16</ele>
        <time>2014-09-07T07:42:09Z</time>
      </trkpt>
      <trkpt lat="42.82972" lon="1.45324">
        <ele>1593.04</ele>
        <time>2014-09-07T07:42:25Z</time>
      </trkpt>
      <trkpt lat="42.82971" lon="1.45335">
        <ele>1594.96</ele>
        <time>2014-09-07T07:42:40Z</time>
      </trkpt>
      <trkpt lat="42.82967" lon="1.45332">
        <ele>1597.37</ele>
        <time>2014-09-07T07:42:55Z</time>
      </trkpt>
      <trkpt lat="42.82965" lon="1.45342">
        <ele>1600.25</ele>
        <time>2014-09-07T07:43:09Z</time>
      </trkpt>
      <trkpt lat="42.8296" lon="1.45344">
        <ele>1603.14</ele>
        <time>2014-09-07T07:43:24Z</time>
      </trkpt>
      <trkpt lat="42.82959" lon="1.45346">
        <ele>1604.58</ele>
        <time>2014-09-07T07:43:44Z</time>
      </trkpt>
      <trkpt lat="42.82954" lon="1.45355">
        <ele>1607.94</ele>
        <time>2014-09-07T07:43:58Z</time>
      </trkpt>
      <trkpt lat="42.82951" lon="1.45358">
        <ele>1610.83</ele>
        <time>2014-09-07T07:44:12Z</time>
      </trkpt>
      <trkpt lat="42.82947" lon="1.45364">
        <ele>1612.27</ele>
        <time>2014-09-07T07:44:21Z</time>
      </trkpt>
      <trkpt lat="42.82937" lon="1.45374">
        <ele>1613.23</ele>
        <time>2014-09-07T07:44:39Z</time>
      </trkpt>
      <trkpt lat="42.82933" lon="1.45381">
        <ele>1613.71</ele>
        <time>2014-09-07T07:44:57Z</time>
      </trkpt>
      <trkpt lat="42.82935" lon="1.45381">
        <ele>1615.15</ele>
        <time>2014-09-07T07:45:13Z</time>
      </trkpt>
      <trkpt lat="42.82939" lon="1.45392">
        <ele>1618.52</ele>
        <time>2014-09-07T07:45:29Z</time>
      </trkpt>
      <trkpt lat="42.82942" lon="1.45405">
        <ele>1619.48</ele>
        <time>2014-09-07T07:45:44Z</time>
      </trkpt>
      <trkpt lat="42.82942" lon="1.45408">
        <ele>1620.92</ele>
        <time>2014-09-07T07:46:00Z</time>
      </trkpt>
      <trkpt lat="42.82942" lon="1.45415">
        <ele>1623.32</ele>
        <time>2014-09-07T07:46:16Z</time>
      </trkpt>
      <trkpt lat="42.82935" lon="1.45417">
        <ele>1625.25</ele>
        <time>2014-09-07T07:46:31Z</time>
      </trkpt>
      <trkpt lat="42.82927" lon="1.45416">
        <ele>1628.13</ele>
        <time>2014-09-07T07:46:46Z</time>
      </trkpt>
      <trkpt lat="42.82919" lon="1.45416">
        <ele>1631.01</ele>
        <time>2014-09-07T07:47:01Z</time>
      </trkpt>
      <trkpt lat="42.82914" lon="1.45416">
        <ele>1632.46</ele>
        <time>2014-09-07T07:47:09Z</time>
      </trkpt>
      <trkpt lat="42.82911" lon="1.45426">
        <ele>1635.34</ele>
        <time>2014-09-07T07:47:27Z</time>
      </trkpt>
      <trkpt lat="42.82901" lon="1.45422">
        <ele>1636.78</ele>
        <time>2014-09-07T07:47:42Z</time>
      </trkpt>
      <trkpt lat="42.82899" lon="1.45427">
        <ele>1639.19</ele>
        <time>2014-09-07T07:47:57Z</time>
      </trkpt>
      <trkpt lat="42.82904" lon="1.45439">
        <ele>1641.59</ele>
        <time>2014-09-07T07:48:14Z</time>
      </trkpt>
      <trkpt lat="42.82905" lon="1.45444">
        <ele>1644.47</ele>
        <time>2014-09-07T07:48:29Z</time>
      </trkpt>
      <trkpt lat="42.82908" lon="1.4545">
        <ele>1646.88</ele>
        <time>2014-09-07T07:48:42Z</time>
      </trkpt>
      <trkpt lat="42.8292" lon="1.45456">
        <ele>1648.32</ele>
        <time>2014-09-07T07:48:57Z</time>
      </trkpt>
      <trkpt lat="42.82921" lon="1.45467">
        <ele>1651.2</ele>
        <time>2014-09-07T07:49:13Z</time>
      </trkpt>
      <trkpt lat="42.82924" lon="1.45474">
        <ele>1653.12</ele>
        <time>2014-09-07T07:49:29Z</time>
      </trkpt>
      <trkpt lat="42.82924" lon="1.4548">
        <ele>1654.57</ele>
        <time>2014-09-07T07:49:45Z</time>
      </trkpt>
      <trkpt lat="42.82928" lon="1.4549">
        <ele>1656.49</ele>
        <time>2014-09-07T07:49:59Z</time>
      </trkpt>
      <trkpt lat="42.82931" lon="1.45496">
        <ele>1657.93</ele>
        <time>2014-09-07T07:50:08Z</time>
      </trkpt>
      <trkpt lat="42.82939" lon="1.45508">
        <ele>1660.33</ele>
        <time>2014-09-07T07:50:25Z</time>
      </trkpt>
      <trkpt lat="42.82943" lon="1.45514">
        <ele>1663.22</ele>
        <time>2014-09-07T07:50:36Z</time>
      </trkpt>
      <trkpt lat="42.82948" lon="1.45519">
        <ele>1663.7</ele>
        <time>2014-09-07T07:50:48Z</time>
      </trkpt>
      <trkpt lat="42.82948" lon="1.45527">
        <ele>1666.58</ele>
        <time>2014-09-07T07:51:00Z</time>
      </trkpt>
      <trkpt lat="42.82944" lon="1.45537">
        <ele>1668.51</ele>
        <time>2014-09-07T07:51:15Z</time>
      </trkpt>
      <trkpt lat="42.8294" lon="1.45541">
        <ele>1671.39</ele>
        <time>2014-09-07T07:51:28Z</time>
      </trkpt>
      <trkpt lat="42.82932" lon="1.45538">
        <ele>1672.35</ele>
        <time>2014-09-07T07:51:41Z</time>
      </trkpt>
      <trkpt lat="42.82923" lon="1.4554">
        <ele>1674.75</ele>
        <time>2014-09-07T07:51:55Z</time>
      </trkpt>
      <trkpt lat="42.82915" lon="1.45543">
        <ele>1676.68</ele>
        <time>2014-09-07T07:52:09Z</time>
      </trkpt>
      <trkpt lat="42.8291" lon="1.45539">
        <ele>1678.12</ele>
        <time>2014-09-07T07:52:19Z</time>
      </trkpt>
      <trkpt lat="42.82898" lon="1.45533">
        <ele>1679.08</ele>
        <time>2014-09-07T07:52:34Z</time>
      </trkpt>
      <trkpt lat="42.82896" lon="1.4554">
        <ele>1681.48</ele>
        <time>2014-09-07T07:52:47Z</time>
      </trkpt>
      <trkpt lat="42.82899" lon="1.45551">
        <ele>1683.89</ele>
        <time>2014-09-07T07:53:01Z</time>
      </trkpt>
      <trkpt lat="42.82894" lon="1.45553">
        <ele>1686.77</ele>
        <time>2014-09-07T07:53:17Z</time>
      </trkpt>
      <trkpt lat="42.82891" lon="1.45561">
        <ele>1689.17</ele>
        <time>2014-09-07T07:53:30Z</time>
      </trkpt>
      <trkpt lat="42.8289" lon="1.4557">
        <ele>1691.58</ele>
        <time>2014-09-07T07:53:47Z</time>
      </trkpt>
      <trkpt lat="42.82885" lon="1.4557">
        <ele>1694.46</ele>
        <time>2014-09-07T07:54:01Z</time>
      </trkpt>
      <trkpt lat="42.82878" lon="1.4557">
        <ele>1696.38</ele>
        <time>2014-09-07T07:54:14Z</time>
      </trkpt>
      <trkpt lat="42.8287" lon="1.4557">
        <ele>1699.75</ele>
        <time>2014-09-07T07:54:31Z</time>
      </trkpt>
      <trkpt lat="42.82864" lon="1.45573">
        <ele>1702.63</ele>
        <time>2014-09-07T07:54:47Z</time>
      </trkpt>
      <trkpt lat="42.82861" lon="1.4558">
        <ele>1704.07</ele>
        <time>2014-09-07T07:55:00Z</time>
      </trkpt>
      <trkpt lat="42.82858" lon="1.45586">
        <ele>1707.44</ele>
        <time>2014-09-07T07:55:16Z</time>
      </trkpt>
      <trkpt lat="42.82854" lon="1.45594">
        <ele>1709.84</ele>
        <time>2014-09-07T07:55:32Z</time>
      </trkpt>
      <trkpt lat="42.82853" lon="1.45594">
        <ele>1712.73</ele>
        <time>2014-09-07T07:55:46Z</time>
      </trkpt>
      <trkpt lat="42.82846" lon="1.45602">
        <ele>1713.69</ele>
        <time>2014-09-07T07:56:01Z</time>
      </trkpt>
      <trkpt lat="42.82842" lon="1.45609">
        <ele>1716.09</ele>
        <time>2014-09-07T07:56:15Z</time>
      </trkpt>
      <trkpt lat="42.82835" lon="1.45621">
        <ele>1718.49</ele>
        <time>2014-09-07T07:56:32Z</time>
      </trkpt>
      <trkpt lat="42.82829" lon="1.45632">
        <ele>1720.9</ele>
        <time>2014-09-07T07:56:47Z</time>
      </trkpt>
      <trkpt lat="42.82825" lon="1.45634">
        <ele>1723.78</ele>
        <time>2014-09-07T07:57:00Z</time>
      </trkpt>
      <trkpt lat="42.82821" lon="1.45637">
        <ele>1725.22</ele>
        <time>2014-09-07T07:57:09Z</time>
      </trkpt>
      <trkpt lat="42.82818" lon="1.45645">
        <ele>1727.63</ele>
        <time>2014-09-07T07:57:22Z</time>
      </trkpt>
      <trkpt lat="42.8281" lon="1.45654">
        <ele>1729.55</ele>
        <time>2014-09-07T07:57:37Z</time>
      </trkpt>
      <trkpt lat="42.82803" lon="1.45661">
        <ele>1731.95</ele>
        <time>2014-09-07T07:57:51Z</time>
      </trkpt>
      <trkpt lat="42.82795" lon="1.45668">
        <ele>1733.88</ele>
        <time>2014-09-07T07:58:06Z</time>
      </trkpt>
      <trkpt lat="42.82801" lon="1.45676">
        <ele>1736.76</ele>
        <time>2014-09-07T07:58:21Z</time>
      </trkpt>
      <trkpt lat="42.82805" lon="1.45683">
        <ele>1739.16</ele>
        <time>2014-09-07T07:58:35Z</time>
      </trkpt>
      <trkpt lat="42.82803" lon="1.4569">
        <ele>1741.08</ele>
        <time>2014-09-07T07:58:50Z</time>
      </trkpt>
      <trkpt lat="42.82805" lon="1.457">
        <ele>1742.05</ele>
        <time>2014-09-07T07:59:03Z</time>
      </trkpt>
      <trkpt lat="42.82806" lon="1.45709">
        <ele>1745.41</ele>
        <time>2014-09-07T07:59:18Z</time>
      </trkpt>
      <trkpt lat="42.82809" lon="1.45716">
        <ele>1747.33</ele>
        <time>2014-09-07T07:59:31Z</time>
      </trkpt>
      <trkpt lat="42.82813" lon="1.4572">
        <ele>1750.22</ele>
        <time>2014-09-07T07:59:46Z</time>
      </trkpt>
      <trkpt lat="42.82818" lon="1.45722">
        <ele>1751.66</ele>
        <time>2014-09-07T07:59:57Z</time>
      </trkpt>
      <trkpt lat="42.82827" lon="1.45728">
        <ele>1755.02</ele>
        <time>2014-09-07T08:00:15Z</time>
      </trkpt>
      <trkpt lat="42.82834" lon="1.45734">
        <ele>1757.91</ele>
        <time>2014-09-07T08:00:30Z</time>
      </trkpt>
      <trkpt lat="42.82845" lon="1.45741">
        <ele>1760.31</ele>
        <time>2014-09-07T08:00:49Z</time>
      </trkpt>
      <trkpt lat="42.82851" lon="1.45749">
        <ele>1762.71</ele>
        <time>2014-09-07T08:01:01Z</time>
      </trkpt>
      <trkpt lat="42.82851" lon="1.45754">
        <ele>1763.2</ele>
        <time>2014-09-07T08:01:11Z</time>
      </trkpt>
      <trkpt lat="42.82846" lon="1.45755">
        <ele>1765.12</ele>
        <time>2014-09-07T08:01:19Z</time>
      </trkpt>
      <trkpt lat="42.82833" lon="1.45757">
        <ele>1768</ele>
        <time>2014-09-07T08:01:35Z</time>
      </trkpt>
      <trkpt lat="42.82821" lon="1.45761">
        <ele>1769.44</ele>
        <time>2014-09-07T08:01:50Z</time>
      </trkpt>
      <trkpt lat="42.82819" lon="1.45761">
        <ele>1769.44</ele>
        <time>2014-09-07T08:01:53Z</time>
      </trkpt>
      <trkpt lat="42.82826" lon="1.45769">
        <ele>1771.85</ele>
        <time>2014-09-07T08:02:06Z</time>
      </trkpt>
      <trkpt lat="42.82836" lon="1.45781">
        <ele>1774.25</ele>
        <time>2014-09-07T08:02:23Z</time>
      </trkpt>
      <trkpt lat="42.82843" lon="1.45795">
        <ele>1777.61</ele>
        <time>2014-09-07T08:02:41Z</time>
      </trkpt>
      <trkpt lat="42.82848" lon="1.4581">
        <ele>1780.02</ele>
        <time>2014-09-07T08:02:57Z</time>
      </trkpt>
      <trkpt lat="42.82851" lon="1.45824">
        <ele>1781.46</ele>
        <time>2014-09-07T08:03:12Z</time>
      </trkpt>
      <trkpt lat="42.82855" lon="1.45839">
        <ele>1784.82</ele>
        <time>2014-09-07T08:03:29Z</time>
      </trkpt>
      <trkpt lat="42.82859" lon="1.45855">
        <ele>1786.75</ele>
        <time>2014-09-07T08:03:47Z</time>
      </trkpt>
      <trkpt lat="42.82858" lon="1.45868">
        <ele>1790.11</ele>
        <time>2014-09-07T08:04:02Z</time>
      </trkpt>
      <trkpt lat="42.82849" lon="1.45877">
        <ele>1793.48</ele>
        <time>2014-09-07T08:04:20Z</time>
      </trkpt>
      <trkpt lat="42.82839" lon="1.4587">
        <ele>1795.4</ele>
        <time>2014-09-07T08:04:35Z</time>
      </trkpt>
      <trkpt lat="42.82831" lon="1.45867">
        <ele>1796.84</ele>
        <time>2014-09-07T08:04:51Z</time>
      </trkpt>
      <trkpt lat="42.82824" lon="1.45865">
        <ele>1796.84</ele>
        <time>2014-09-07T08:05:04Z</time>
      </trkpt>
      <trkpt lat="42.82821" lon="1.45861">
        <ele>1798.28</ele>
        <time>2014-09-07T08:05:18Z</time>
      </trkpt>
      <trkpt lat="42.82808" lon="1.45857">
        <ele>1798.76</ele>
        <time>2014-09-07T08:05:36Z</time>
      </trkpt>
      <trkpt lat="42.82802" lon="1.45857">
        <ele>1798.76</ele>
        <time>2014-09-07T08:05:45Z</time>
      </trkpt>
      <trkpt lat="42.82797" lon="1.45858">
        <ele>1802.13</ele>
        <time>2014-09-07T08:05:54Z</time>
      </trkpt>
      <trkpt lat="42.82785" lon="1.45858">
        <ele>1804.05</ele>
        <time>2014-09-07T08:06:12Z</time>
      </trkpt>
      <trkpt lat="42.82782" lon="1.45858">
        <ele>1804.05</ele>
        <time>2014-09-07T08:06:29Z</time>
      </trkpt>
      <trkpt lat="42.8278" lon="1.45857">
        <ele>1804.53</ele>
        <time>2014-09-07T08:07:13Z</time>
      </trkpt>
      <trkpt lat="42.82782" lon="1.45858">
        <ele>1804.53</ele>
        <time>2014-09-07T08:07:39Z</time>
      </trkpt>
      <trkpt lat="42.82778" lon="1.45856">
        <ele>1805.49</ele>
        <time>2014-09-07T08:08:00Z</time>
      </trkpt>
      <trkpt lat="42.82759" lon="1.45854">
        <ele>1806.45</ele>
        <time>2014-09-07T08:08:19Z</time>
      </trkpt>
      <trkpt lat="42.82742" lon="1.45844">
        <ele>1806.45</ele>
        <time>2014-09-07T08:08:39Z</time>
      </trkpt>
      <trkpt lat="42.8273" lon="1.45845">
        <ele>1804.05</ele>
        <time>2014-09-07T08:08:57Z</time>
      </trkpt>
      <trkpt lat="42.8272" lon="1.45844">
        <ele>1800.69</ele>
        <time>2014-09-07T08:09:12Z</time>
      </trkpt>
      <trkpt lat="42.82704" lon="1.45841">
        <ele>1797.8</ele>
        <time>2014-09-07T08:09:29Z</time>
      </trkpt>
      <trkpt lat="42.82697" lon="1.4585">
        <ele>1799.73</ele>
        <time>2014-09-07T08:09:41Z</time>
      </trkpt>
      <trkpt lat="42.82693" lon="1.45849">
        <ele>1800.69</ele>
        <time>2014-09-07T08:09:48Z</time>
      </trkpt>
      <trkpt lat="42.82687" lon="1.45851">
        <ele>1802.13</ele>
        <time>2014-09-07T08:09:55Z</time>
      </trkpt>
      <trkpt lat="42.82674" lon="1.45852">
        <ele>1804.53</ele>
        <time>2014-09-07T08:10:11Z</time>
      </trkpt>
      <trkpt lat="42.82674" lon="1.45851">
        <ele>1803.57</ele>
        <time>2014-09-07T08:10:28Z</time>
      </trkpt>
      <trkpt lat="42.82673" lon="1.4585">
        <ele>1804.05</ele>
        <time>2014-09-07T08:10:46Z</time>
      </trkpt>
      <trkpt lat="42.82666" lon="1.45858">
        <ele>1803.09</ele>
        <time>2014-09-07T08:11:04Z</time>
      </trkpt>
      <trkpt lat="42.82663" lon="1.45858">
        <ele>1801.65</ele>
        <time>2014-09-07T08:11:09Z</time>
      </trkpt>
      <trkpt lat="42.82657" lon="1.45851">
        <ele>1798.76</ele>
        <time>2014-09-07T08:11:22Z</time>
      </trkpt>
      <trkpt lat="42.82653" lon="1.45854">
        <ele>1797.32</ele>
        <time>2014-09-07T08:11:37Z</time>
      </trkpt>
      <trkpt lat="42.82649" lon="1.45855">
        <ele>1793.96</ele>
        <time>2014-09-07T08:11:49Z</time>
      </trkpt>
      <trkpt lat="42.82639" lon="1.4586">
        <ele>1790.59</ele>
        <time>2014-09-07T08:12:05Z</time>
      </trkpt>
      <trkpt lat="42.82628" lon="1.45877">
        <ele>1792.03</ele>
        <time>2014-09-07T08:12:20Z</time>
      </trkpt>
      <trkpt lat="42.82619" lon="1.45891">
        <ele>1794.44</ele>
        <time>2014-09-07T08:12:37Z</time>
      </trkpt>
      <trkpt lat="42.82601" lon="1.459">
        <ele>1795.4</ele>
        <time>2014-09-07T08:12:55Z</time>
      </trkpt>
      <trkpt lat="42.82584" lon="1.45902">
        <ele>1795.4</ele>
        <time>2014-09-07T08:13:12Z</time>
      </trkpt>
      <trkpt lat="42.82572" lon="1.45907">
        <ele>1795.4</ele>
        <time>2014-09-07T08:13:27Z</time>
      </trkpt>
      <trkpt lat="42.82568" lon="1.45906">
        <ele>1795.4</ele>
        <time>2014-09-07T08:13:31Z</time>
      </trkpt>
      <trkpt lat="42.82548" lon="1.4591">
        <ele>1797.32</ele>
        <time>2014-09-07T08:13:51Z</time>
      </trkpt>
      <trkpt lat="42.82533" lon="1.45906">
        <ele>1797.8</ele>
        <time>2014-09-07T08:14:10Z</time>
      </trkpt>
      <trkpt lat="42.8252" lon="1.45901">
        <ele>1796.84</ele>
        <time>2014-09-07T08:14:27Z</time>
      </trkpt>
      <trkpt lat="42.82515" lon="1.45903">
        <ele>1796.84</ele>
        <time>2014-09-07T08:14:38Z</time>
      </trkpt>
      <trkpt lat="42.82508" lon="1.45903">
        <ele>1797.8</ele>
        <time>2014-09-07T08:14:45Z</time>
      </trkpt>
      <trkpt lat="42.82499" lon="1.45913">
        <ele>1797.8</ele>
        <time>2014-09-07T08:15:00Z</time>
      </trkpt>
      <trkpt lat="42.82491" lon="1.45918">
        <ele>1800.69</ele>
        <time>2014-09-07T08:15:12Z</time>
      </trkpt>
      <trkpt lat="42.82483" lon="1.4592">
        <ele>1802.13</ele>
        <time>2014-09-07T08:15:22Z</time>
      </trkpt>
      <trkpt lat="42.82467" lon="1.45927">
        <ele>1802.13</ele>
        <time>2014-09-07T08:15:38Z</time>
      </trkpt>
      <trkpt lat="42.82452" lon="1.4593">
        <ele>1801.65</ele>
        <time>2014-09-07T08:15:54Z</time>
      </trkpt>
      <trkpt lat="42.82437" lon="1.45939">
        <ele>1801.17</ele>
        <time>2014-09-07T08:16:10Z</time>
      </trkpt>
      <trkpt lat="42.82424" lon="1.45951">
        <ele>1799.73</ele>
        <time>2014-09-07T08:16:27Z</time>
      </trkpt>
      <trkpt lat="42.82409" lon="1.45953">
        <ele>1796.84</ele>
        <time>2014-09-07T08:16:44Z</time>
      </trkpt>
      <trkpt lat="42.82406" lon="1.45952">
        <ele>1796.36</ele>
        <time>2014-09-07T08:17:01Z</time>
      </trkpt>
      <trkpt lat="42.82406" lon="1.45953">
        <ele>1795.4</ele>
        <time>2014-09-07T08:17:03Z</time>
      </trkpt>
      <trkpt lat="42.82408" lon="1.45953">
        <ele>1796.36</ele>
        <time>2014-09-07T08:17:28Z</time>
      </trkpt>
      <trkpt lat="42.82406" lon="1.45951">
        <ele>1797.32</ele>
        <time>2014-09-07T08:17:55Z</time>
      </trkpt>
      <trkpt lat="42.82399" lon="1.45963">
        <ele>1795.4</ele>
        <time>2014-09-07T08:18:11Z</time>
      </trkpt>
      <trkpt lat="42.82398" lon="1.45967">
        <ele>1794.44</ele>
        <time>2014-09-07T08:18:14Z</time>
      </trkpt>
      <trkpt lat="42.82397" lon="1.45987">
        <ele>1793.96</ele>
        <time>2014-09-07T08:18:32Z</time>
      </trkpt>
      <trkpt lat="42.82396" lon="1.45989">
        <ele>1794.92</ele>
        <time>2014-09-07T08:18:34Z</time>
      </trkpt>
      <trkpt lat="42.82389" lon="1.45998">
        <ele>1793.96</ele>
        <time>2014-09-07T08:18:49Z</time>
      </trkpt>
      <trkpt lat="42.82382" lon="1.46009">
        <ele>1790.59</ele>
        <time>2014-09-07T08:19:01Z</time>
      </trkpt>
      <trkpt lat="42.82382" lon="1.4601">
        <ele>1791.07</ele>
        <time>2014-09-07T08:19:02Z</time>
      </trkpt>
      <trkpt lat="42.82371" lon="1.46018">
        <ele>1789.15</ele>
        <time>2014-09-07T08:19:15Z</time>
      </trkpt>
      <trkpt lat="42.82352" lon="1.46016">
        <ele>1788.67</ele>
        <time>2014-09-07T08:19:32Z</time>
      </trkpt>
      <trkpt lat="42.82337" lon="1.46022">
        <ele>1790.11</ele>
        <time>2014-09-07T08:19:49Z</time>
      </trkpt>
      <trkpt lat="42.82323" lon="1.46026">
        <ele>1790.59</ele>
        <time>2014-09-07T08:20:04Z</time>
      </trkpt>
      <trkpt lat="42.82309" lon="1.4603">
        <ele>1788.19</ele>
        <time>2014-09-07T08:20:21Z</time>
      </trkpt>
      <trkpt lat="42.82294" lon="1.46032">
        <ele>1786.27</ele>
        <time>2014-09-07T08:20:37Z</time>
      </trkpt>
      <trkpt lat="42.82287" lon="1.46033">
        <ele>1782.9</ele>
        <time>2014-09-07T08:20:53Z</time>
      </trkpt>
      <trkpt lat="42.82283" lon="1.46038">
        <ele>1779.54</ele>
        <time>2014-09-07T08:21:06Z</time>
      </trkpt>
      <trkpt lat="42.82278" lon="1.46049">
        <ele>1777.13</ele>
        <time>2014-09-07T08:21:18Z</time>
      </trkpt>
      <trkpt lat="42.82263" lon="1.46062">
        <ele>1775.69</ele>
        <time>2014-09-07T08:21:36Z</time>
      </trkpt>
      <trkpt lat="42.82252" lon="1.46073">
        <ele>1776.17</ele>
        <time>2014-09-07T08:21:50Z</time>
      </trkpt>
      <trkpt lat="42.82249" lon="1.46076">
        <ele>1777.61</ele>
        <time>2014-09-07T08:21:53Z</time>
      </trkpt>
      <trkpt lat="42.82236" lon="1.46081">
        <ele>1777.61</ele>
        <time>2014-09-07T08:22:07Z</time>
      </trkpt>
      <trkpt lat="42.82219" lon="1.46089">
        <ele>1778.1</ele>
        <time>2014-09-07T08:22:25Z</time>
      </trkpt>
      <trkpt lat="42.82206" lon="1.4609">
        <ele>1777.61</ele>
        <time>2014-09-07T08:22:39Z</time>
      </trkpt>
      <trkpt lat="42.82188" lon="1.46088">
        <ele>1780.02</ele>
        <time>2014-09-07T08:22:56Z</time>
      </trkpt>
      <trkpt lat="42.82185" lon="1.46094">
        <ele>1778.58</ele>
        <time>2014-09-07T08:23:01Z</time>
      </trkpt>
      <trkpt lat="42.82167" lon="1.46096">
        <ele>1780.5</ele>
        <time>2014-09-07T08:23:19Z</time>
      </trkpt>
      <trkpt lat="42.8216" lon="1.46091">
        <ele>1783.38</ele>
        <time>2014-09-07T08:23:37Z</time>
      </trkpt>
      <trkpt lat="42.82158" lon="1.46093">
        <ele>1783.38</ele>
        <time>2014-09-07T08:23:55Z</time>
      </trkpt>
      <trkpt lat="42.8214" lon="1.46088">
        <ele>1782.42</ele>
        <time>2014-09-07T08:24:12Z</time>
      </trkpt>
      <trkpt lat="42.82136" lon="1.4609">
        <ele>1783.38</ele>
        <time>2014-09-07T08:24:26Z</time>
      </trkpt>
      <trkpt lat="42.82126" lon="1.46098">
        <ele>1782.42</ele>
        <time>2014-09-07T08:24:38Z</time>
      </trkpt>
      <trkpt lat="42.82109" lon="1.46092">
        <ele>1784.34</ele>
        <time>2014-09-07T08:24:58Z</time>
      </trkpt>
      <trkpt lat="42.82105" lon="1.46092">
        <ele>1785.79</ele>
        <time>2014-09-07T08:25:02Z</time>
      </trkpt>
      <trkpt lat="42.82104" lon="1.46092">
        <ele>1785.31</ele>
        <time>2014-09-07T08:25:03Z</time>
      </trkpt>
      <trkpt lat="42.82091" lon="1.46098">
        <ele>1785.79</ele>
        <time>2014-09-07T08:25:19Z</time>
      </trkpt>
      <trkpt lat="42.82074" lon="1.46099">
        <ele>1786.27</ele>
        <time>2014-09-07T08:25:37Z</time>
      </trkpt>
      <trkpt lat="42.82051" lon="1.46092">
        <ele>1786.75</ele>
        <time>2014-09-07T08:25:59Z</time>
      </trkpt>
      <trkpt lat="42.8204" lon="1.46096">
        <ele>1789.63</ele>
        <time>2014-09-07T08:26:13Z</time>
      </trkpt>
      <trkpt lat="42.82033" lon="1.46108">
        <ele>1789.63</ele>
        <time>2014-09-07T08:26:31Z</time>
      </trkpt>
      <trkpt lat="42.82031" lon="1.46108">
        <ele>1793</ele>
        <time>2014-09-07T08:26:35Z</time>
      </trkpt>
      <trkpt lat="42.82028" lon="1.46112">
        <ele>1793.48</ele>
        <time>2014-09-07T08:26:41Z</time>
      </trkpt>
      <trkpt lat="42.82021" lon="1.46113">
        <ele>1796.36</ele>
        <time>2014-09-07T08:26:54Z</time>
      </trkpt>
      <trkpt lat="42.82004" lon="1.46116">
        <ele>1798.76</ele>
        <time>2014-09-07T08:27:15Z</time>
      </trkpt>
      <trkpt lat="42.81993" lon="1.46116">
        <ele>1801.65</ele>
        <time>2014-09-07T08:27:33Z</time>
      </trkpt>
      <trkpt lat="42.81983" lon="1.46114">
        <ele>1805.49</ele>
        <time>2014-09-07T08:27:54Z</time>
      </trkpt>
      <trkpt lat="42.8198" lon="1.46114">
        <ele>1808.86</ele>
        <time>2014-09-07T08:28:12Z</time>
      </trkpt>
      <trkpt lat="42.81973" lon="1.4611">
        <ele>1812.22</ele>
        <time>2014-09-07T08:28:28Z</time>
      </trkpt>
      <trkpt lat="42.81966" lon="1.46107">
        <ele>1815.11</ele>
        <time>2014-09-07T08:28:46Z</time>
      </trkpt>
      <trkpt lat="42.81961" lon="1.46112">
        <ele>1817.03</ele>
        <time>2014-09-07T08:29:04Z</time>
      </trkpt>
      <trkpt lat="42.81959" lon="1.46111">
        <ele>1819.43</ele>
        <time>2014-09-07T08:29:11Z</time>
      </trkpt>
      <trkpt lat="42.81952" lon="1.46104">
        <ele>1821.35</ele>
        <time>2014-09-07T08:29:31Z</time>
      </trkpt>
      <trkpt lat="42.81948" lon="1.46103">
        <ele>1823.76</ele>
        <time>2014-09-07T08:29:38Z</time>
      </trkpt>
      <trkpt lat="42.81941" lon="1.46105">
        <ele>1825.68</ele>
        <time>2014-09-07T08:29:56Z</time>
      </trkpt>
      <trkpt lat="42.81936" lon="1.46109">
        <ele>1829.05</ele>
        <time>2014-09-07T08:30:08Z</time>
      </trkpt>
      <trkpt lat="42.81932" lon="1.46112">
        <ele>1831.45</ele>
        <time>2014-09-07T08:30:28Z</time>
      </trkpt>
      <trkpt lat="42.81923" lon="1.46109">
        <ele>1834.81</ele>
        <time>2014-09-07T08:30:45Z</time>
      </trkpt>
      <trkpt lat="42.8192" lon="1.46115">
        <ele>1835.77</ele>
        <time>2014-09-07T08:31:02Z</time>
      </trkpt>
      <trkpt lat="42.81913" lon="1.46112">
        <ele>1839.14</ele>
        <time>2014-09-07T08:31:18Z</time>
      </trkpt>
      <trkpt lat="42.8191" lon="1.46122">
        <ele>1841.06</ele>
        <time>2014-09-07T08:31:30Z</time>
      </trkpt>
      <trkpt lat="42.81902" lon="1.46123">
        <ele>1843.47</ele>
        <time>2014-09-07T08:31:49Z</time>
      </trkpt>
      <trkpt lat="42.81896" lon="1.46134">
        <ele>1846.83</ele>
        <time>2014-09-07T08:32:07Z</time>
      </trkpt>
      <trkpt lat="42.81886" lon="1.46136">
        <ele>1848.75</ele>
        <time>2014-09-07T08:32:25Z</time>
      </trkpt>
      <trkpt lat="42.81879" lon="1.46136">
        <ele>1851.64</ele>
        <time>2014-09-07T08:32:41Z</time>
      </trkpt>
      <trkpt lat="42.81874" lon="1.46147">
        <ele>1851.64</ele>
        <time>2014-09-07T08:32:53Z</time>
      </trkpt>
      <trkpt lat="42.8186" lon="1.46154">
        <ele>1854.04</ele>
        <time>2014-09-07T08:33:11Z</time>
      </trkpt>
      <trkpt lat="42.8185" lon="1.46157">
        <ele>1854.04</ele>
        <time>2014-09-07T08:33:19Z</time>
      </trkpt>
      <trkpt lat="42.81835" lon="1.46169">
        <ele>1855.48</ele>
        <time>2014-09-07T08:33:39Z</time>
      </trkpt>
      <trkpt lat="42.81831" lon="1.46175">
        <ele>1858.85</ele>
        <time>2014-09-07T08:33:54Z</time>
      </trkpt>
      <trkpt lat="42.81824" lon="1.46174">
        <ele>1861.25</ele>
        <time>2014-09-07T08:34:12Z</time>
      </trkpt>
      <trkpt lat="42.81815" lon="1.46172">
        <ele>1864.13</ele>
        <time>2014-09-07T08:34:27Z</time>
      </trkpt>
      <trkpt lat="42.81807" lon="1.46168">
        <ele>1866.54</ele>
        <time>2014-09-07T08:34:45Z</time>
      </trkpt>
      <trkpt lat="42.818" lon="1.4616">
        <ele>1869.42</ele>
        <time>2014-09-07T08:35:07Z</time>
      </trkpt>
      <trkpt lat="42.81797" lon="1.46156">
        <ele>1872.79</ele>
        <time>2014-09-07T08:35:21Z</time>
      </trkpt>
      <trkpt lat="42.81795" lon="1.46154">
        <ele>1874.23</ele>
        <time>2014-09-07T08:35:38Z</time>
      </trkpt>
      <trkpt lat="42.8179" lon="1.46148">
        <ele>1877.59</ele>
        <time>2014-09-07T08:35:56Z</time>
      </trkpt>
      <trkpt lat="42.8178" lon="1.46142">
        <ele>1880.48</ele>
        <time>2014-09-07T08:36:16Z</time>
      </trkpt>
      <trkpt lat="42.81775" lon="1.4614">
        <ele>1883.36</ele>
        <time>2014-09-07T08:36:32Z</time>
      </trkpt>
      <trkpt lat="42.8177" lon="1.46135">
        <ele>1886.72</ele>
        <time>2014-09-07T08:36:50Z</time>
      </trkpt>
      <trkpt lat="42.81768" lon="1.46134">
        <ele>1887.69</ele>
        <time>2014-09-07T08:36:57Z</time>
      </trkpt>
      <trkpt lat="42.81762" lon="1.46133">
        <ele>1890.57</ele>
        <time>2014-09-07T08:37:16Z</time>
      </trkpt>
      <trkpt lat="42.81757" lon="1.46132">
        <ele>1892.49</ele>
        <time>2014-09-07T08:37:26Z</time>
      </trkpt>
      <trkpt lat="42.81749" lon="1.46128">
        <ele>1895.38</ele>
        <time>2014-09-07T08:37:45Z</time>
      </trkpt>
      <trkpt lat="42.81743" lon="1.46125">
        <ele>1898.26</ele>
        <time>2014-09-07T08:38:01Z</time>
      </trkpt>
      <trkpt lat="42.81736" lon="1.46125">
        <ele>1901.14</ele>
        <time>2014-09-07T08:38:20Z</time>
      </trkpt>
      <trkpt lat="42.81732" lon="1.46128">
        <ele>1904.51</ele>
        <time>2014-09-07T08:38:35Z</time>
      </trkpt>
      <trkpt lat="42.81726" lon="1.46125">
        <ele>1907.39</ele>
        <time>2014-09-07T08:38:54Z</time>
      </trkpt>
      <trkpt lat="42.81721" lon="1.46126">
        <ele>1910.28</ele>
        <time>2014-09-07T08:39:15Z</time>
      </trkpt>
      <trkpt lat="42.81714" lon="1.46126">
        <ele>1912.68</ele>
        <time>2014-09-07T08:39:32Z</time>
      </trkpt>
      <trkpt lat="42.81708" lon="1.46128">
        <ele>1915.56</ele>
        <time>2014-09-07T08:39:47Z</time>
      </trkpt>
      <trkpt lat="42.81701" lon="1.46126">
        <ele>1918.45</ele>
        <time>2014-09-07T08:40:06Z</time>
      </trkpt>
      <trkpt lat="42.81695" lon="1.46121">
        <ele>1921.81</ele>
        <time>2014-09-07T08:40:24Z</time>
      </trkpt>
      <trkpt lat="42.81688" lon="1.46126">
        <ele>1925.18</ele>
        <time>2014-09-07T08:40:41Z</time>
      </trkpt>
      <trkpt lat="42.81684" lon="1.46137">
        <ele>1928.06</ele>
        <time>2014-09-07T08:41:00Z</time>
      </trkpt>
      <trkpt lat="42.81683" lon="1.46143">
        <ele>1930.95</ele>
        <time>2014-09-07T08:41:17Z</time>
      </trkpt>
      <trkpt lat="42.81678" lon="1.46143">
        <ele>1933.35</ele>
        <time>2014-09-07T08:41:34Z</time>
      </trkpt>
      <trkpt lat="42.81673" lon="1.4614">
        <ele>1936.71</ele>
        <time>2014-09-07T08:41:47Z</time>
      </trkpt>
      <trkpt lat="42.81673" lon="1.4614">
        <ele>1936.71</ele>
        <time>2014-09-07T08:41:48Z</time>
      </trkpt>
      <trkpt lat="42.81672" lon="1.46138">
        <ele>1937.67</ele>
        <time>2014-09-07T08:41:52Z</time>
      </trkpt>
      <trkpt lat="42.81664" lon="1.46141">
        <ele>1939.6</ele>
        <time>2014-09-07T08:42:11Z</time>
      </trkpt>
      <trkpt lat="42.81663" lon="1.46139">
        <ele>1942.96</ele>
        <time>2014-09-07T08:42:26Z</time>
      </trkpt>
      <trkpt lat="42.81659" lon="1.46139">
        <ele>1944.4</ele>
        <time>2014-09-07T08:42:40Z</time>
      </trkpt>
      <trkpt lat="42.81656" lon="1.46145">
        <ele>1947.29</ele>
        <time>2014-09-07T08:42:56Z</time>
      </trkpt>
      <trkpt lat="42.8165" lon="1.46151">
        <ele>1949.21</ele>
        <time>2014-09-07T08:43:15Z</time>
      </trkpt>
      <trkpt lat="42.81648" lon="1.46149">
        <ele>1947.77</ele>
        <time>2014-09-07T08:43:28Z</time>
      </trkpt>
      <trkpt lat="42.8165" lon="1.4615">
        <ele>1949.21</ele>
        <time>2014-09-07T08:43:45Z</time>
      </trkpt>
      <trkpt lat="42.81651" lon="1.46149">
        <ele>1949.21</ele>
        <time>2014-09-07T08:43:58Z</time>
      </trkpt>
      <trkpt lat="42.81651" lon="1.4615">
        <ele>1949.21</ele>
        <time>2014-09-07T08:44:13Z</time>
      </trkpt>
      <trkpt lat="42.8165" lon="1.4615">
        <ele>1949.21</ele>
        <time>2014-09-07T08:44:34Z</time>
      </trkpt>
      <trkpt lat="42.81646" lon="1.46151">
        <ele>1949.69</ele>
        <time>2014-09-07T08:45:08Z</time>
      </trkpt>
      <trkpt lat="42.81648" lon="1.4615">
        <ele>1949.69</ele>
        <time>2014-09-07T08:45:50Z</time>
      </trkpt>
      <trkpt lat="42.81649" lon="1.46149">
        <ele>1949.21</ele>
        <time>2014-09-07T08:46:21Z</time>
      </trkpt>
      <trkpt lat="42.81649" lon="1.4615">
        <ele>1950.65</ele>
        <time>2014-09-07T08:46:57Z</time>
      </trkpt>
      <trkpt lat="42.81649" lon="1.46149">
        <ele>1950.17</ele>
        <time>2014-09-07T08:47:33Z</time>
      </trkpt>
      <trkpt lat="42.81648" lon="1.4615">
        <ele>1950.17</ele>
        <time>2014-09-07T08:48:07Z</time>
      </trkpt>
      <trkpt lat="42.81651" lon="1.46151">
        <ele>1952.09</ele>
        <time>2014-09-07T08:48:36Z</time>
      </trkpt>
      <trkpt lat="42.81648" lon="1.4615">
        <ele>1950.65</ele>
        <time>2014-09-07T08:49:02Z</time>
      </trkpt>
      <trkpt lat="42.81645" lon="1.46152">
        <ele>1951.61</ele>
        <time>2014-09-07T08:49:46Z</time>
      </trkpt>
      <trkpt lat="42.81647" lon="1.4615">
        <ele>1951.61</ele>
        <time>2014-09-07T08:50:25Z</time>
      </trkpt>
      <trkpt lat="42.81647" lon="1.46151">
        <ele>1951.61</ele>
        <time>2014-09-07T08:51:05Z</time>
      </trkpt>
      <trkpt lat="42.81648" lon="1.46151">
        <ele>1952.09</ele>
        <time>2014-09-07T08:51:54Z</time>
      </trkpt>
      <trkpt lat="42.81646" lon="1.46152">
        <ele>1952.57</ele>
        <time>2014-09-07T08:52:39Z</time>
      </trkpt>
      <trkpt lat="42.81647" lon="1.46153">
        <ele>1952.57</ele>
        <time>2014-09-07T08:53:18Z</time>
      </trkpt>
      <trkpt lat="42.81647" lon="1.46151">
        <ele>1952.57</ele>
        <time>2014-09-07T08:53:51Z</time>
      </trkpt>
      <trkpt lat="42.81647" lon="1.46152">
        <ele>1953.06</ele>
        <time>2014-09-07T08:54:36Z</time>
      </trkpt>
      <trkpt lat="42.81649" lon="1.4615">
        <ele>1953.54</ele>
        <time>2014-09-07T08:54:59Z</time>
      </trkpt>
      <trkpt lat="42.81649" lon="1.46148">
        <ele>1954.02</ele>
        <time>2014-09-07T08:55:25Z</time>
      </trkpt>
      <trkpt lat="42.81652" lon="1.46149">
        <ele>1954.5</ele>
        <time>2014-09-07T08:55:56Z</time>
      </trkpt>
      <trkpt lat="42.8165" lon="1.46147">
        <ele>1954.02</ele>
        <time>2014-09-07T08:56:05Z</time>
      </trkpt>
      <trkpt lat="42.81654" lon="1.4615">
        <ele>1954.5</ele>
        <time>2014-09-07T08:56:33Z</time>
      </trkpt>
      <trkpt lat="42.81649" lon="1.46149">
        <ele>1953.54</ele>
        <time>2014-09-07T08:56:53Z</time>
      </trkpt>
      <trkpt lat="42.8165" lon="1.46149">
        <ele>1954.5</ele>
        <time>2014-09-07T08:57:20Z</time>
      </trkpt>
      <trkpt lat="42.81651" lon="1.4615">
        <ele>1955.46</ele>
        <time>2014-09-07T08:57:43Z</time>
      </trkpt>
      <trkpt lat="42.81651" lon="1.46152">
        <ele>1954.5</ele>
        <time>2014-09-07T08:58:10Z</time>
      </trkpt>
      <trkpt lat="42.81649" lon="1.4615">
        <ele>1955.46</ele>
        <time>2014-09-07T08:58:39Z</time>
      </trkpt>
      <trkpt lat="42.81648" lon="1.46146">
        <ele>1955.46</ele>
        <time>2014-09-07T08:59:03Z</time>
      </trkpt>
      <trkpt lat="42.81648" lon="1.46141">
        <ele>1954.98</ele>
        <time>2014-09-07T08:59:23Z</time>
      </trkpt>
      <trkpt lat="42.81649" lon="1.46131">
        <ele>1954.98</ele>
        <time>2014-09-07T08:59:40Z</time>
      </trkpt>
      <trkpt lat="42.81651" lon="1.46109">
        <ele>1955.94</ele>
        <time>2014-09-07T09:00:00Z</time>
      </trkpt>
      <trkpt lat="42.81656" lon="1.46091">
        <ele>1956.9</ele>
        <time>2014-09-07T09:00:17Z</time>
      </trkpt>
      <trkpt lat="42.81664" lon="1.46065">
        <ele>1957.86</ele>
        <time>2014-09-07T09:00:38Z</time>
      </trkpt>
      <trkpt lat="42.81667" lon="1.46058">
        <ele>1959.3</ele>
        <time>2014-09-07T09:00:57Z</time>
      </trkpt>
      <trkpt lat="42.81669" lon="1.46048">
        <ele>1961.71</ele>
        <time>2014-09-07T09:01:15Z</time>
      </trkpt>
      <trkpt lat="42.81677" lon="1.46034">
        <ele>1965.07</ele>
        <time>2014-09-07T09:01:35Z</time>
      </trkpt>
      <trkpt lat="42.81681" lon="1.46023">
        <ele>1967.96</ele>
        <time>2014-09-07T09:01:52Z</time>
      </trkpt>
      <trkpt lat="42.81685" lon="1.46011">
        <ele>1969.88</ele>
        <time>2014-09-07T09:02:10Z</time>
      </trkpt>
      <trkpt lat="42.81687" lon="1.45997">
        <ele>1972.28</ele>
        <time>2014-09-07T09:02:30Z</time>
      </trkpt>
      <trkpt lat="42.81691" lon="1.45984">
        <ele>1975.17</ele>
        <time>2014-09-07T09:02:48Z</time>
      </trkpt>
      <trkpt lat="42.81698" lon="1.45979">
        <ele>1974.2</ele>
        <time>2014-09-07T09:02:56Z</time>
      </trkpt>
      <trkpt lat="42.8171" lon="1.45966">
        <ele>1974.2</ele>
        <time>2014-09-07T09:03:15Z</time>
      </trkpt>
      <trkpt lat="42.81717" lon="1.45962">
        <ele>1975.65</ele>
        <time>2014-09-07T09:03:28Z</time>
      </trkpt>
      <trkpt lat="42.81726" lon="1.45955">
        <ele>1977.57</ele>
        <time>2014-09-07T09:03:45Z</time>
      </trkpt>
      <trkpt lat="42.81727" lon="1.4595">
        <ele>1980.45</ele>
        <time>2014-09-07T09:03:59Z</time>
      </trkpt>
      <trkpt lat="42.81724" lon="1.45946">
        <ele>1983.82</ele>
        <time>2014-09-07T09:04:15Z</time>
      </trkpt>
      <trkpt lat="42.81722" lon="1.45942">
        <ele>1985.74</ele>
        <time>2014-09-07T09:04:35Z</time>
      </trkpt>
      <trkpt lat="42.8172" lon="1.45938">
        <ele>1989.1</ele>
        <time>2014-09-07T09:04:54Z</time>
      </trkpt>
      <trkpt lat="42.81725" lon="1.45931">
        <ele>1992.47</ele>
        <time>2014-09-07T09:05:13Z</time>
      </trkpt>
      <trkpt lat="42.81729" lon="1.4593">
        <ele>1993.91</ele>
        <time>2014-09-07T09:05:29Z</time>
      </trkpt>
      <trkpt lat="42.81731" lon="1.45921">
        <ele>1994.87</ele>
        <time>2014-09-07T09:05:45Z</time>
      </trkpt>
      <trkpt lat="42.81733" lon="1.45914">
        <ele>1992.47</ele>
        <time>2014-09-07T09:06:00Z</time>
      </trkpt>
      <trkpt lat="42.81739" lon="1.45901">
        <ele>1990.55</ele>
        <time>2014-09-07T09:06:14Z</time>
      </trkpt>
      <trkpt lat="42.81744" lon="1.45887">
        <ele>1992.47</ele>
        <time>2014-09-07T09:06:32Z</time>
      </trkpt>
      <trkpt lat="42.81742" lon="1.45878">
        <ele>1995.35</ele>
        <time>2014-09-07T09:06:51Z</time>
      </trkpt>
      <trkpt lat="42.81745" lon="1.45872">
        <ele>1998.24</ele>
        <time>2014-09-07T09:07:09Z</time>
      </trkpt>
      <trkpt lat="42.81748" lon="1.45863">
        <ele>2001.12</ele>
        <time>2014-09-07T09:07:28Z</time>
      </trkpt>
      <trkpt lat="42.81749" lon="1.45856">
        <ele>2004.01</ele>
        <time>2014-09-07T09:07:45Z</time>
      </trkpt>
      <trkpt lat="42.81749" lon="1.45853">
        <ele>2007.37</ele>
        <time>2014-09-07T09:08:02Z</time>
      </trkpt>
      <trkpt lat="42.81757" lon="1.45853">
        <ele>2009.29</ele>
        <time>2014-09-07T09:08:20Z</time>
      </trkpt>
      <trkpt lat="42.81767" lon="1.45848">
        <ele>2011.22</ele>
        <time>2014-09-07T09:08:39Z</time>
      </trkpt>
      <trkpt lat="42.81775" lon="1.45844">
        <ele>2013.62</ele>
        <time>2014-09-07T09:08:56Z</time>
      </trkpt>
      <trkpt lat="42.81785" lon="1.45843">
        <ele>2014.1</ele>
        <time>2014-09-07T09:09:16Z</time>
      </trkpt>
      <trkpt lat="42.81802" lon="1.45842">
        <ele>2012.66</ele>
        <time>2014-09-07T09:09:35Z</time>
      </trkpt>
      <trkpt lat="42.81808" lon="1.45835">
        <ele>2016.02</ele>
        <time>2014-09-07T09:09:47Z</time>
      </trkpt>
      <trkpt lat="42.81811" lon="1.45833">
        <ele>2017.46</ele>
        <time>2014-09-07T09:10:03Z</time>
      </trkpt>
      <trkpt lat="42.81814" lon="1.4583">
        <ele>2019.39</ele>
        <time>2014-09-07T09:10:23Z</time>
      </trkpt>
      <trkpt lat="42.81815" lon="1.45835">
        <ele>2021.79</ele>
        <time>2014-09-07T09:10:43Z</time>
      </trkpt>
      <trkpt lat="42.8182" lon="1.4583">
        <ele>2023.71</ele>
        <time>2014-09-07T09:11:08Z</time>
      </trkpt>
      <trkpt lat="42.81822" lon="1.45825">
        <ele>2026.6</ele>
        <time>2014-09-07T09:11:27Z</time>
      </trkpt>
      <trkpt lat="42.81827" lon="1.45822">
        <ele>2029.48</ele>
        <time>2014-09-07T09:11:46Z</time>
      </trkpt>
      <trkpt lat="42.81826" lon="1.45826">
        <ele>2032.36</ele>
        <time>2014-09-07T09:12:05Z</time>
      </trkpt>
      <trkpt lat="42.81835" lon="1.45826">
        <ele>2034.29</ele>
        <time>2014-09-07T09:12:25Z</time>
      </trkpt>
      <trkpt lat="42.81841" lon="1.45822">
        <ele>2034.29</ele>
        <time>2014-09-07T09:12:45Z</time>
      </trkpt>
      <trkpt lat="42.81851" lon="1.45815">
        <ele>2035.25</ele>
        <time>2014-09-07T09:13:01Z</time>
      </trkpt>
      <trkpt lat="42.81857" lon="1.45817">
        <ele>2038.13</ele>
        <time>2014-09-07T09:13:11Z</time>
      </trkpt>
      <trkpt lat="42.81865" lon="1.45817">
        <ele>2040.54</ele>
        <time>2014-09-07T09:13:29Z</time>
      </trkpt>
      <trkpt lat="42.81871" lon="1.45809">
        <ele>2042.94</ele>
        <time>2014-09-07T09:13:46Z</time>
      </trkpt>
      <trkpt lat="42.81876" lon="1.45795">
        <ele>2045.82</ele>
        <time>2014-09-07T09:14:07Z</time>
      </trkpt>
      <trkpt lat="42.81883" lon="1.45785">
        <ele>2048.71</ele>
        <time>2014-09-07T09:14:24Z</time>
      </trkpt>
      <trkpt lat="42.81884" lon="1.45782">
        <ele>2050.15</ele>
        <time>2014-09-07T09:14:29Z</time>
      </trkpt>
      <trkpt lat="42.81894" lon="1.45776">
        <ele>2051.11</ele>
        <time>2014-09-07T09:14:46Z</time>
      </trkpt>
      <trkpt lat="42.81899" lon="1.45769">
        <ele>2051.11</ele>
        <time>2014-09-07T09:15:06Z</time>
      </trkpt>
      <trkpt lat="42.81903" lon="1.4577">
        <ele>2051.11</ele>
        <time>2014-09-07T09:15:33Z</time>
      </trkpt>
      <trkpt lat="42.81913" lon="1.45756">
        <ele>2053.51</ele>
        <time>2014-09-07T09:15:50Z</time>
      </trkpt>
      <trkpt lat="42.81927" lon="1.45743">
        <ele>2052.55</ele>
        <time>2014-09-07T09:16:09Z</time>
      </trkpt>
      <trkpt lat="42.81929" lon="1.45733">
        <ele>2051.59</ele>
        <time>2014-09-07T09:16:17Z</time>
      </trkpt>
      <trkpt lat="42.81938" lon="1.45717">
        <ele>2053.51</ele>
        <time>2014-09-07T09:16:36Z</time>
      </trkpt>
      <trkpt lat="42.81945" lon="1.45709">
        <ele>2053.99</ele>
        <time>2014-09-07T09:16:48Z</time>
      </trkpt>
      <trkpt lat="42.81956" lon="1.457">
        <ele>2055.92</ele>
        <time>2014-09-07T09:17:05Z</time>
      </trkpt>
      <trkpt lat="42.8196" lon="1.45691">
        <ele>2058.8</ele>
        <time>2014-09-07T09:17:21Z</time>
      </trkpt>
      <trkpt lat="42.81965" lon="1.45686">
        <ele>2061.68</ele>
        <time>2014-09-07T09:17:36Z</time>
      </trkpt>
      <trkpt lat="42.8197" lon="1.45681">
        <ele>2063.13</ele>
        <time>2014-09-07T09:17:54Z</time>
      </trkpt>
      <trkpt lat="42.81975" lon="1.4568">
        <ele>2066.49</ele>
        <time>2014-09-07T09:18:11Z</time>
      </trkpt>
      <trkpt lat="42.81981" lon="1.45679">
        <ele>2069.38</ele>
        <time>2014-09-07T09:18:28Z</time>
      </trkpt>
      <trkpt lat="42.81987" lon="1.45675">
        <ele>2071.3</ele>
        <time>2014-09-07T09:18:45Z</time>
      </trkpt>
      <trkpt lat="42.81989" lon="1.45665">
        <ele>2073.7</ele>
        <time>2014-09-07T09:19:03Z</time>
      </trkpt>
      <trkpt lat="42.81998" lon="1.45654">
        <ele>2074.18</ele>
        <time>2014-09-07T09:19:21Z</time>
      </trkpt>
      <trkpt lat="42.82005" lon="1.45641">
        <ele>2075.62</ele>
        <time>2014-09-07T09:19:38Z</time>
      </trkpt>
      <trkpt lat="42.82017" lon="1.45622">
        <ele>2075.14</ele>
        <time>2014-09-07T09:19:58Z</time>
      </trkpt>
      <trkpt lat="42.82022" lon="1.45608">
        <ele>2077.55</ele>
        <time>2014-09-07T09:20:18Z</time>
      </trkpt>
      <trkpt lat="42.82035" lon="1.45598">
        <ele>2078.51</ele>
        <time>2014-09-07T09:20:38Z</time>
      </trkpt>
      <trkpt lat="42.82048" lon="1.45589">
        <ele>2080.43</ele>
        <time>2014-09-07T09:20:57Z</time>
      </trkpt>
      <trkpt lat="42.82061" lon="1.45587">
        <ele>2082.35</ele>
        <time>2014-09-07T09:21:16Z</time>
      </trkpt>
      <trkpt lat="42.82062" lon="1.45578">
        <ele>2082.35</ele>
        <time>2014-09-07T09:21:31Z</time>
      </trkpt>
      <trkpt lat="42.82073" lon="1.45574">
        <ele>2085.72</ele>
        <time>2014-09-07T09:21:49Z</time>
      </trkpt>
      <trkpt lat="42.82077" lon="1.45564">
        <ele>2087.16</ele>
        <time>2014-09-07T09:22:07Z</time>
      </trkpt>
      <trkpt lat="42.82082" lon="1.45553">
        <ele>2088.12</ele>
        <time>2014-09-07T09:22:25Z</time>
      </trkpt>
      <trkpt lat="42.82087" lon="1.45535">
        <ele>2087.64</ele>
        <time>2014-09-07T09:22:45Z</time>
      </trkpt>
      <trkpt lat="42.82096" lon="1.45514">
        <ele>2088.6</ele>
        <time>2014-09-07T09:23:07Z</time>
      </trkpt>
      <trkpt lat="42.82101" lon="1.45506">
        <ele>2091.49</ele>
        <time>2014-09-07T09:23:25Z</time>
      </trkpt>
      <trkpt lat="42.82105" lon="1.45499">
        <ele>2094.37</ele>
        <time>2014-09-07T09:23:41Z</time>
      </trkpt>
      <trkpt lat="42.8211" lon="1.45486">
        <ele>2096.29</ele>
        <time>2014-09-07T09:23:59Z</time>
      </trkpt>
      <trkpt lat="42.82112" lon="1.45465">
        <ele>2096.77</ele>
        <time>2014-09-07T09:24:21Z</time>
      </trkpt>
      <trkpt lat="42.82114" lon="1.45455">
        <ele>2100.14</ele>
        <time>2014-09-07T09:24:36Z</time>
      </trkpt>
      <trkpt lat="42.8212" lon="1.45445">
        <ele>2102.06</ele>
        <time>2014-09-07T09:24:55Z</time>
      </trkpt>
      <trkpt lat="42.82127" lon="1.45435">
        <ele>2104.94</ele>
        <time>2014-09-07T09:25:15Z</time>
      </trkpt>
      <trkpt lat="42.82127" lon="1.4542">
        <ele>2106.87</ele>
        <time>2014-09-07T09:25:33Z</time>
      </trkpt>
      <trkpt lat="42.82128" lon="1.45404">
        <ele>2110.23</ele>
        <time>2014-09-07T09:25:52Z</time>
      </trkpt>
      <trkpt lat="42.82136" lon="1.45387">
        <ele>2113.12</ele>
        <time>2014-09-07T09:26:13Z</time>
      </trkpt>
      <trkpt lat="42.82147" lon="1.45373">
        <ele>2116.48</ele>
        <time>2014-09-07T09:26:33Z</time>
      </trkpt>
      <trkpt lat="42.82153" lon="1.4537">
        <ele>2119.36</ele>
        <time>2014-09-07T09:26:52Z</time>
      </trkpt>
      <trkpt lat="42.82156" lon="1.45365">
        <ele>2122.25</ele>
        <time>2014-09-07T09:27:09Z</time>
      </trkpt>
      <trkpt lat="42.82162" lon="1.45361">
        <ele>2124.65</ele>
        <time>2014-09-07T09:27:22Z</time>
      </trkpt>
      <trkpt lat="42.82164" lon="1.45351">
        <ele>2128.02</ele>
        <time>2014-09-07T09:27:41Z</time>
      </trkpt>
      <trkpt lat="42.82164" lon="1.45336">
        <ele>2128.98</ele>
        <time>2014-09-07T09:28:03Z</time>
      </trkpt>
      <trkpt lat="42.82165" lon="1.45324">
        <ele>2130.9</ele>
        <time>2014-09-07T09:28:22Z</time>
      </trkpt>
      <trkpt lat="42.82165" lon="1.45317">
        <ele>2131.86</ele>
        <time>2014-09-07T09:28:43Z</time>
      </trkpt>
      <trkpt lat="42.82168" lon="1.4531">
        <ele>2135.23</ele>
        <time>2014-09-07T09:28:58Z</time>
      </trkpt>
      <trkpt lat="42.82166" lon="1.45295">
        <ele>2137.63</ele>
        <time>2014-09-07T09:29:18Z</time>
      </trkpt>
      <trkpt lat="42.82173" lon="1.45281">
        <ele>2140.51</ele>
        <time>2014-09-07T09:29:37Z</time>
      </trkpt>
      <trkpt lat="42.82182" lon="1.45269">
        <ele>2142.92</ele>
        <time>2014-09-07T09:29:58Z</time>
      </trkpt>
      <trkpt lat="42.82193" lon="1.45261">
        <ele>2146.28</ele>
        <time>2014-09-07T09:30:15Z</time>
      </trkpt>
      <trkpt lat="42.82199" lon="1.45254">
        <ele>2147.24</ele>
        <time>2014-09-07T09:30:32Z</time>
      </trkpt>
      <trkpt lat="42.82213" lon="1.45241">
        <ele>2147.24</ele>
        <time>2014-09-07T09:30:54Z</time>
      </trkpt>
      <trkpt lat="42.82214" lon="1.45235">
        <ele>2149.16</ele>
        <time>2014-09-07T09:31:13Z</time>
      </trkpt>
      <trkpt lat="42.82223" lon="1.45227">
        <ele>2148.68</ele>
        <time>2014-09-07T09:31:33Z</time>
      </trkpt>
      <trkpt lat="42.82235" lon="1.45213">
        <ele>2149.65</ele>
        <time>2014-09-07T09:31:52Z</time>
      </trkpt>
      <trkpt lat="42.8225" lon="1.45189">
        <ele>2151.09</ele>
        <time>2014-09-07T09:32:15Z</time>
      </trkpt>
      <trkpt lat="42.82264" lon="1.45162">
        <ele>2149.65</ele>
        <time>2014-09-07T09:32:44Z</time>
      </trkpt>
      <trkpt lat="42.82274" lon="1.45148">
        <ele>2148.68</ele>
        <time>2014-09-07T09:33:07Z</time>
      </trkpt>
      <trkpt lat="42.82279" lon="1.45139">
        <ele>2147.72</ele>
        <time>2014-09-07T09:33:32Z</time>
      </trkpt>
      <trkpt lat="42.82293" lon="1.45125">
        <ele>2145.32</ele>
        <time>2014-09-07T09:33:51Z</time>
      </trkpt>
      <trkpt lat="42.82294" lon="1.45123">
        <ele>2144.84</ele>
        <time>2014-09-07T09:33:53Z</time>
      </trkpt>
      <trkpt lat="42.82312" lon="1.45105">
        <ele>2141.95</ele>
        <time>2014-09-07T09:34:15Z</time>
      </trkpt>
      <trkpt lat="42.82324" lon="1.45087">
        <ele>2139.55</ele>
        <time>2014-09-07T09:34:35Z</time>
      </trkpt>
      <trkpt lat="42.8234" lon="1.45068">
        <ele>2136.19</ele>
        <time>2014-09-07T09:34:57Z</time>
      </trkpt>
      <trkpt lat="42.82341" lon="1.45066">
        <ele>2135.71</ele>
        <time>2014-09-07T09:34:59Z</time>
      </trkpt>
      <trkpt lat="42.82356" lon="1.45049">
        <ele>2131.86</ele>
        <time>2014-09-07T09:35:21Z</time>
      </trkpt>
      <trkpt lat="42.82362" lon="1.45034">
        <ele>2128.98</ele>
        <time>2014-09-07T09:35:36Z</time>
      </trkpt>
      <trkpt lat="42.82376" lon="1.45012">
        <ele>2126.09</ele>
        <time>2014-09-07T09:36:00Z</time>
      </trkpt>
      <trkpt lat="42.82388" lon="1.44994">
        <ele>2123.21</ele>
        <time>2014-09-07T09:36:16Z</time>
      </trkpt>
      <trkpt lat="42.82397" lon="1.44975">
        <ele>2120.81</ele>
        <time>2014-09-07T09:36:33Z</time>
      </trkpt>
      <trkpt lat="42.82407" lon="1.44961">
        <ele>2117.44</ele>
        <time>2014-09-07T09:36:49Z</time>
      </trkpt>
      <trkpt lat="42.82418" lon="1.44935">
        <ele>2116.48</ele>
        <time>2014-09-07T09:37:09Z</time>
      </trkpt>
      <trkpt lat="42.82424" lon="1.44911">
        <ele>2113.12</ele>
        <time>2014-09-07T09:37:27Z</time>
      </trkpt>
      <trkpt lat="42.8243" lon="1.44899">
        <ele>2109.75</ele>
        <time>2014-09-07T09:37:45Z</time>
      </trkpt>
      <trkpt lat="42.82432" lon="1.44892">
        <ele>2108.31</ele>
        <time>2014-09-07T09:37:51Z</time>
      </trkpt>
      <trkpt lat="42.82432" lon="1.4488">
        <ele>2106.87</ele>
        <time>2014-09-07T09:38:03Z</time>
      </trkpt>
      <trkpt lat="42.82433" lon="1.44868">
        <ele>2103.5</ele>
        <time>2014-09-07T09:38:19Z</time>
      </trkpt>
      <trkpt lat="42.82434" lon="1.44853">
        <ele>2100.14</ele>
        <time>2014-09-07T09:38:36Z</time>
      </trkpt>
      <trkpt lat="42.82442" lon="1.4483">
        <ele>2097.73</ele>
        <time>2014-09-07T09:38:55Z</time>
      </trkpt>
      <trkpt lat="42.82452" lon="1.44814">
        <ele>2100.62</ele>
        <time>2014-09-07T09:39:14Z</time>
      </trkpt>
      <trkpt lat="42.82462" lon="1.44808">
        <ele>2103.02</ele>
        <time>2014-09-07T09:39:34Z</time>
      </trkpt>
      <trkpt lat="42.82464" lon="1.44803">
        <ele>2106.39</ele>
        <time>2014-09-07T09:39:52Z</time>
      </trkpt>
      <trkpt lat="42.82469" lon="1.44798">
        <ele>2107.35</ele>
        <time>2014-09-07T09:40:10Z</time>
      </trkpt>
      <trkpt lat="42.82469" lon="1.448">
        <ele>2107.83</ele>
        <time>2014-09-07T09:40:38Z</time>
      </trkpt>
      <trkpt lat="42.82472" lon="1.44789">
        <ele>2110.71</ele>
        <time>2014-09-07T09:40:56Z</time>
      </trkpt>
      <trkpt lat="42.82479" lon="1.44781">
        <ele>2114.08</ele>
        <time>2014-09-07T09:41:17Z</time>
      </trkpt>
      <trkpt lat="42.82481" lon="1.44781">
        <ele>2116</ele>
        <time>2014-09-07T09:41:37Z</time>
      </trkpt>
      <trkpt lat="42.82483" lon="1.44778">
        <ele>2116</ele>
        <time>2014-09-07T09:42:09Z</time>
      </trkpt>
      <trkpt lat="42.82485" lon="1.44771">
        <ele>2118.88</ele>
        <time>2014-09-07T09:42:26Z</time>
      </trkpt>
      <trkpt lat="42.82488" lon="1.44765">
        <ele>2122.25</ele>
        <time>2014-09-07T09:42:38Z</time>
      </trkpt>
      <trkpt lat="42.82495" lon="1.44764">
        <ele>2125.13</ele>
        <time>2014-09-07T09:42:57Z</time>
      </trkpt>
      <trkpt lat="42.82503" lon="1.44762">
        <ele>2128.02</ele>
        <time>2014-09-07T09:43:19Z</time>
      </trkpt>
      <trkpt lat="42.82503" lon="1.44752">
        <ele>2129.94</ele>
        <time>2014-09-07T09:43:38Z</time>
      </trkpt>
      <trkpt lat="42.82506" lon="1.44742">
        <ele>2132.82</ele>
        <time>2014-09-07T09:43:55Z</time>
      </trkpt>
      <trkpt lat="42.82515" lon="1.4473">
        <ele>2136.19</ele>
        <time>2014-09-07T09:44:15Z</time>
      </trkpt>
      <trkpt lat="42.82522" lon="1.44716">
        <ele>2139.55</ele>
        <time>2014-09-07T09:44:37Z</time>
      </trkpt>
      <trkpt lat="42.82527" lon="1.44707">
        <ele>2140.51</ele>
        <time>2014-09-07T09:44:55Z</time>
      </trkpt>
      <trkpt lat="42.82538" lon="1.44696">
        <ele>2142.92</ele>
        <time>2014-09-07T09:45:16Z</time>
      </trkpt>
      <trkpt lat="42.82549" lon="1.44678">
        <ele>2145.8</ele>
        <time>2014-09-07T09:45:40Z</time>
      </trkpt>
      <trkpt lat="42.8256" lon="1.4466">
        <ele>2146.76</ele>
        <time>2014-09-07T09:46:03Z</time>
      </trkpt>
      <trkpt lat="42.82575" lon="1.44639">
        <ele>2148.2</ele>
        <time>2014-09-07T09:46:26Z</time>
      </trkpt>
      <trkpt lat="42.82585" lon="1.44623">
        <ele>2149.16</ele>
        <time>2014-09-07T09:46:47Z</time>
      </trkpt>
      <trkpt lat="42.82604" lon="1.44605">
        <ele>2149.65</ele>
        <time>2014-09-07T09:47:11Z</time>
      </trkpt>
      <trkpt lat="42.82621" lon="1.44592">
        <ele>2148.68</ele>
        <time>2014-09-07T09:47:33Z</time>
      </trkpt>
      <trkpt lat="42.82632" lon="1.4459">
        <ele>2147.72</ele>
        <time>2014-09-07T09:47:44Z</time>
      </trkpt>
      <trkpt lat="42.8266" lon="1.44581">
        <ele>2145.32</ele>
        <time>2014-09-07T09:48:06Z</time>
      </trkpt>
      <trkpt lat="42.8267" lon="1.44574">
        <ele>2148.68</ele>
        <time>2014-09-07T09:48:22Z</time>
      </trkpt>
      <trkpt lat="42.82681" lon="1.44566">
        <ele>2151.57</ele>
        <time>2014-09-07T09:48:39Z</time>
      </trkpt>
      <trkpt lat="42.8269" lon="1.44565">
        <ele>2154.93</ele>
        <time>2014-09-07T09:48:54Z</time>
      </trkpt>
      <trkpt lat="42.8269" lon="1.44565">
        <ele>2154.45</ele>
        <time>2014-09-07T09:48:55Z</time>
      </trkpt>
      <trkpt lat="42.82701" lon="1.44558">
        <ele>2155.41</ele>
        <time>2014-09-07T09:49:16Z</time>
      </trkpt>
      <trkpt lat="42.82715" lon="1.44555">
        <ele>2156.86</ele>
        <time>2014-09-07T09:49:40Z</time>
      </trkpt>
      <trkpt lat="42.82732" lon="1.44553">
        <ele>2158.3</ele>
        <time>2014-09-07T09:50:03Z</time>
      </trkpt>
      <trkpt lat="42.82747" lon="1.44545">
        <ele>2156.37</ele>
        <time>2014-09-07T09:50:24Z</time>
      </trkpt>
      <trkpt lat="42.82758" lon="1.44537">
        <ele>2157.34</ele>
        <time>2014-09-07T09:50:42Z</time>
      </trkpt>
      <trkpt lat="42.82771" lon="1.44523">
        <ele>2158.3</ele>
        <time>2014-09-07T09:51:02Z</time>
      </trkpt>
      <trkpt lat="42.8278" lon="1.44515">
        <ele>2161.66</ele>
        <time>2014-09-07T09:51:20Z</time>
      </trkpt>
      <trkpt lat="42.82789" lon="1.44513">
        <ele>2163.58</ele>
        <time>2014-09-07T09:51:43Z</time>
      </trkpt>
      <trkpt lat="42.82796" lon="1.44504">
        <ele>2166.47</ele>
        <time>2014-09-07T09:52:03Z</time>
      </trkpt>
      <trkpt lat="42.82807" lon="1.44506">
        <ele>2168.87</ele>
        <time>2014-09-07T09:52:25Z</time>
      </trkpt>
      <trkpt lat="42.82815" lon="1.44499">
        <ele>2171.76</ele>
        <time>2014-09-07T09:52:43Z</time>
      </trkpt>
      <trkpt lat="42.82822" lon="1.44493">
        <ele>2174.16</ele>
        <time>2014-09-07T09:53:04Z</time>
      </trkpt>
      <trkpt lat="42.82825" lon="1.44491">
        <ele>2175.6</ele>
        <time>2014-09-07T09:53:26Z</time>
      </trkpt>
      <trkpt lat="42.8283" lon="1.44485">
        <ele>2178.48</ele>
        <time>2014-09-07T09:53:45Z</time>
      </trkpt>
      <trkpt lat="42.82831" lon="1.44489">
        <ele>2178.48</ele>
        <time>2014-09-07T09:54:13Z</time>
      </trkpt>
      <trkpt lat="42.82832" lon="1.44488">
        <ele>2178.97</ele>
        <time>2014-09-07T09:54:36Z</time>
      </trkpt>
      <trkpt lat="42.82837" lon="1.44483">
        <ele>2179.93</ele>
        <time>2014-09-07T09:54:59Z</time>
      </trkpt>
      <trkpt lat="42.82841" lon="1.44479">
        <ele>2182.81</ele>
        <time>2014-09-07T09:55:13Z</time>
      </trkpt>
      <trkpt lat="42.82846" lon="1.44477">
        <ele>2186.18</ele>
        <time>2014-09-07T09:55:26Z</time>
      </trkpt>
      <trkpt lat="42.82854" lon="1.44479">
        <ele>2188.58</ele>
        <time>2014-09-07T09:55:43Z</time>
      </trkpt>
      <trkpt lat="42.82853" lon="1.44475">
        <ele>2189.06</ele>
        <time>2014-09-07T09:56:04Z</time>
      </trkpt>
      <trkpt lat="42.82854" lon="1.44471">
        <ele>2190.02</ele>
        <time>2014-09-07T09:56:24Z</time>
      </trkpt>
      <trkpt lat="42.82854" lon="1.44472">
        <ele>2190.5</ele>
        <time>2014-09-07T09:56:59Z</time>
      </trkpt>
      <trkpt lat="42.82854" lon="1.44462">
        <ele>2189.06</ele>
        <time>2014-09-07T09:57:23Z</time>
      </trkpt>
      <trkpt lat="42.82861" lon="1.44443">
        <ele>2189.54</ele>
        <time>2014-09-07T09:57:44Z</time>
      </trkpt>
      <trkpt lat="42.82869" lon="1.44428">
        <ele>2190.02</ele>
        <time>2014-09-07T09:58:03Z</time>
      </trkpt>
      <trkpt lat="42.82877" lon="1.44415">
        <ele>2187.14</ele>
        <time>2014-09-07T09:58:23Z</time>
      </trkpt>
      <trkpt lat="42.82884" lon="1.444">
        <ele>2186.18</ele>
        <time>2014-09-07T09:58:40Z</time>
      </trkpt>
      <trkpt lat="42.82891" lon="1.44385">
        <ele>2185.69</ele>
        <time>2014-09-07T09:58:59Z</time>
      </trkpt>
      <trkpt lat="42.82902" lon="1.44369">
        <ele>2185.21</ele>
        <time>2014-09-07T09:59:20Z</time>
      </trkpt>
      <trkpt lat="42.8291" lon="1.44351">
        <ele>2185.21</ele>
        <time>2014-09-07T09:59:39Z</time>
      </trkpt>
      <trkpt lat="42.82914" lon="1.44341">
        <ele>2183.29</ele>
        <time>2014-09-07T10:00:00Z</time>
      </trkpt>
      <trkpt lat="42.82918" lon="1.44335">
        <ele>2183.77</ele>
        <time>2014-09-07T10:00:18Z</time>
      </trkpt>
      <trkpt lat="42.82931" lon="1.44329">
        <ele>2183.29</ele>
        <time>2014-09-07T10:00:34Z</time>
      </trkpt>
      <trkpt lat="42.82929" lon="1.4432">
        <ele>2183.29</ele>
        <time>2014-09-07T10:00:53Z</time>
      </trkpt>
      <trkpt lat="42.82929" lon="1.44309">
        <ele>2181.85</ele>
        <time>2014-09-07T10:01:16Z</time>
      </trkpt>
      <trkpt lat="42.82931" lon="1.44294">
        <ele>2179.93</ele>
        <time>2014-09-07T10:01:33Z</time>
      </trkpt>
      <trkpt lat="42.82926" lon="1.44286">
        <ele>2176.56</ele>
        <time>2014-09-07T10:01:47Z</time>
      </trkpt>
      <trkpt lat="42.82923" lon="1.4428">
        <ele>2173.68</ele>
        <time>2014-09-07T10:02:02Z</time>
      </trkpt>
      <trkpt lat="42.82921" lon="1.44272">
        <ele>2170.79</ele>
        <time>2014-09-07T10:02:15Z</time>
      </trkpt>
      <trkpt lat="42.82929" lon="1.4426">
        <ele>2171.76</ele>
        <time>2014-09-07T10:02:35Z</time>
      </trkpt>
      <trkpt lat="42.82931" lon="1.44249">
        <ele>2171.27</ele>
        <time>2014-09-07T10:02:54Z</time>
      </trkpt>
      <trkpt lat="42.82933" lon="1.44243">
        <ele>2168.39</ele>
        <time>2014-09-07T10:03:10Z</time>
      </trkpt>
      <trkpt lat="42.82934" lon="1.44241">
        <ele>2167.91</ele>
        <time>2014-09-07T10:03:13Z</time>
      </trkpt>
      <trkpt lat="42.82935" lon="1.44227">
        <ele>2166.47</ele>
        <time>2014-09-07T10:03:33Z</time>
      </trkpt>
      <trkpt lat="42.82939" lon="1.44219">
        <ele>2163.58</ele>
        <time>2014-09-07T10:03:52Z</time>
      </trkpt>
      <trkpt lat="42.82952" lon="1.44211">
        <ele>2160.7</ele>
        <time>2014-09-07T10:04:12Z</time>
      </trkpt>
      <trkpt lat="42.82959" lon="1.44196">
        <ele>2159.26</ele>
        <time>2014-09-07T10:04:33Z</time>
      </trkpt>
      <trkpt lat="42.82965" lon="1.4418">
        <ele>2157.34</ele>
        <time>2014-09-07T10:04:50Z</time>
      </trkpt>
      <trkpt lat="42.82972" lon="1.44183">
        <ele>2157.34</ele>
        <time>2014-09-07T10:05:14Z</time>
      </trkpt>
      <trkpt lat="42.8298" lon="1.44177">
        <ele>2156.37</ele>
        <time>2014-09-07T10:05:40Z</time>
      </trkpt>
      <trkpt lat="42.82994" lon="1.44159">
        <ele>2155.41</ele>
        <time>2014-09-07T10:06:01Z</time>
      </trkpt>
      <trkpt lat="42.83001" lon="1.44151">
        <ele>2153.97</ele>
        <time>2014-09-07T10:06:14Z</time>
      </trkpt>
      <trkpt lat="42.83004" lon="1.4415">
        <ele>2155.89</ele>
        <time>2014-09-07T10:06:28Z</time>
      </trkpt>
      <trkpt lat="42.83013" lon="1.44142">
        <ele>2155.41</ele>
        <time>2014-09-07T10:06:42Z</time>
      </trkpt>
      <trkpt lat="42.83021" lon="1.44132">
        <ele>2154.93</ele>
        <time>2014-09-07T10:06:56Z</time>
      </trkpt>
      <trkpt lat="42.83024" lon="1.44121">
        <ele>2156.37</ele>
        <time>2014-09-07T10:07:11Z</time>
      </trkpt>
      <trkpt lat="42.83028" lon="1.44104">
        <ele>2154.93</ele>
        <time>2014-09-07T10:07:26Z</time>
      </trkpt>
      <trkpt lat="42.83029" lon="1.4409">
        <ele>2157.34</ele>
        <time>2014-09-07T10:07:43Z</time>
      </trkpt>
      <trkpt lat="42.83029" lon="1.44081">
        <ele>2159.74</ele>
        <time>2014-09-07T10:08:00Z</time>
      </trkpt>
      <trkpt lat="42.83029" lon="1.44071">
        <ele>2161.18</ele>
        <time>2014-09-07T10:08:17Z</time>
      </trkpt>
      <trkpt lat="42.83027" lon="1.44066">
        <ele>2163.58</ele>
        <time>2014-09-07T10:08:35Z</time>
      </trkpt>
      <trkpt lat="42.83029" lon="1.44065">
        <ele>2165.99</ele>
        <time>2014-09-07T10:08:52Z</time>
      </trkpt>
      <trkpt lat="42.83033" lon="1.44063">
        <ele>2167.91</ele>
        <time>2014-09-07T10:09:08Z</time>
      </trkpt>
      <trkpt lat="42.83035" lon="1.44059">
        <ele>2170.31</ele>
        <time>2014-09-07T10:09:26Z</time>
      </trkpt>
      <trkpt lat="42.83038" lon="1.44055">
        <ele>2173.2</ele>
        <time>2014-09-07T10:09:42Z</time>
      </trkpt>
      <trkpt lat="42.8304" lon="1.44052">
        <ele>2174.16</ele>
        <time>2014-09-07T10:09:58Z</time>
      </trkpt>
      <trkpt lat="42.83038" lon="1.44044">
        <ele>2173.2</ele>
        <time>2014-09-07T10:10:15Z</time>
      </trkpt>
      <trkpt lat="42.83037" lon="1.44043">
        <ele>2176.08</ele>
        <time>2014-09-07T10:10:27Z</time>
      </trkpt>
      <trkpt lat="42.83039" lon="1.44038">
        <ele>2177.04</ele>
        <time>2014-09-07T10:10:47Z</time>
      </trkpt>
      <trkpt lat="42.8304" lon="1.44034">
        <ele>2178</ele>
        <time>2014-09-07T10:11:07Z</time>
      </trkpt>
      <trkpt lat="42.83037" lon="1.44026">
        <ele>2179.45</ele>
        <time>2014-09-07T10:11:24Z</time>
      </trkpt>
      <trkpt lat="42.83037" lon="1.44023">
        <ele>2181.37</ele>
        <time>2014-09-07T10:11:39Z</time>
      </trkpt>
      <trkpt lat="42.83042" lon="1.44018">
        <ele>2183.29</ele>
        <time>2014-09-07T10:11:55Z</time>
      </trkpt>
      <trkpt lat="42.83044" lon="1.44018">
        <ele>2186.66</ele>
        <time>2014-09-07T10:12:17Z</time>
      </trkpt>
      <trkpt lat="42.83048" lon="1.44021">
        <ele>2189.54</ele>
        <time>2014-09-07T10:12:32Z</time>
      </trkpt>
      <trkpt lat="42.83051" lon="1.44023">
        <ele>2190.02</ele>
        <time>2014-09-07T10:12:47Z</time>
      </trkpt>
      <trkpt lat="42.83051" lon="1.44026">
        <ele>2189.54</ele>
        <time>2014-09-07T10:13:09Z</time>
      </trkpt>
      <trkpt lat="42.83053" lon="1.44026">
        <ele>2189.54</ele>
        <time>2014-09-07T10:13:39Z</time>
      </trkpt>
      <trkpt lat="42.83054" lon="1.44016">
        <ele>2191.46</ele>
        <time>2014-09-07T10:13:57Z</time>
      </trkpt>
      <trkpt lat="42.83056" lon="1.44011">
        <ele>2193.87</ele>
        <time>2014-09-07T10:14:10Z</time>
      </trkpt>
      <trkpt lat="42.83055" lon="1.44009">
        <ele>2193.87</ele>
        <time>2014-09-07T10:14:30Z</time>
      </trkpt>
      <trkpt lat="42.83056" lon="1.44012">
        <ele>2193.87</ele>
        <time>2014-09-07T10:14:51Z</time>
      </trkpt>
      <trkpt lat="42.83059" lon="1.44015">
        <ele>2193.39</ele>
        <time>2014-09-07T10:15:16Z</time>
      </trkpt>
      <trkpt lat="42.83058" lon="1.44015">
        <ele>2193.39</ele>
        <time>2014-09-07T10:15:37Z</time>
      </trkpt>
      <trkpt lat="42.8306" lon="1.44012">
        <ele>2191.94</ele>
        <time>2014-09-07T10:15:54Z</time>
      </trkpt>
      <trkpt lat="42.83058" lon="1.44011">
        <ele>2191.94</ele>
        <time>2014-09-07T10:16:10Z</time>
      </trkpt>
      <trkpt lat="42.83059" lon="1.44011">
        <ele>2190.98</ele>
        <time>2014-09-07T10:16:23Z</time>
      </trkpt>
      <trkpt lat="42.83055" lon="1.44012">
        <ele>2188.1</ele>
        <time>2014-09-07T10:16:42Z</time>
      </trkpt>
      <trkpt lat="42.83055" lon="1.44012">
        <ele>2194.35</ele>
        <time>2014-09-07T10:16:43Z</time>
      </trkpt>
      <trkpt lat="42.83055" lon="1.44012">
        <ele>2190.98</ele>
        <time>2014-09-07T10:16:46Z</time>
      </trkpt>
      <trkpt lat="42.83056" lon="1.44012">
        <ele>2190.98</ele>
        <time>2014-09-07T10:17:11Z</time>
      </trkpt>
      <trkpt lat="42.83056" lon="1.44014">
        <ele>2190.98</ele>
        <time>2014-09-07T10:17:44Z</time>
      </trkpt>
      <trkpt lat="42.83055" lon="1.44013">
        <ele>2191.46</ele>
        <time>2014-09-07T10:17:55Z</time>
      </trkpt>
      <trkpt lat="42.83055" lon="1.4401">
        <ele>2190.98</ele>
        <time>2014-09-07T10:18:04Z</time>
      </trkpt>
      <trkpt lat="42.83053" lon="1.44011">
        <ele>2190.98</ele>
        <time>2014-09-07T10:18:22Z</time>
      </trkpt>
      <trkpt lat="42.83053" lon="1.44011">
        <ele>2190.5</ele>
        <time>2014-09-07T10:18:50Z</time>
      </trkpt>
      <trkpt lat="42.83052" lon="1.4401">
        <ele>2191.46</ele>
        <time>2014-09-07T10:19:27Z</time>
      </trkpt>
      <trkpt lat="42.83051" lon="1.44012">
        <ele>2191.46</ele>
        <time>2014-09-07T10:19:59Z</time>
      </trkpt>
      <trkpt lat="42.83049" lon="1.44013">
        <ele>2191.94</ele>
        <time>2014-09-07T10:20:40Z</time>
      </trkpt>
      <trkpt lat="42.83048" lon="1.44015">
        <ele>2191.46</ele>
        <time>2014-09-07T10:21:15Z</time>
      </trkpt>
      <trkpt lat="42.83047" lon="1.44016">
        <ele>2190.98</ele>
        <time>2014-09-07T10:21:56Z</time>
      </trkpt>
      <trkpt lat="42.83052" lon="1.4401">
        <ele>2191.46</ele>
        <time>2014-09-07T10:22:36Z</time>
      </trkpt>
      <trkpt lat="42.83052" lon="1.4401">
        <ele>2191.46</ele>
        <time>2014-09-07T10:23:10Z</time>
      </trkpt>
      <trkpt lat="42.83052" lon="1.44011">
        <ele>2191.94</ele>
        <time>2014-09-07T10:23:50Z</time>
      </trkpt>
      <trkpt lat="42.83051" lon="1.44011">
        <ele>2190.98</ele>
        <time>2014-09-07T10:24:29Z</time>
      </trkpt>
      <trkpt lat="42.83052" lon="1.4401">
        <ele>2191.46</ele>
        <time>2014-09-07T10:25:09Z</time>
      </trkpt>
      <trkpt lat="42.83052" lon="1.44009">
        <ele>2190.98</ele>
        <time>2014-09-07T10:25:50Z</time>
      </trkpt>
      <trkpt lat="42.83051" lon="1.4401">
        <ele>2190.98</ele>
        <time>2014-09-07T10:26:24Z</time>
      </trkpt>
      <trkpt lat="42.83052" lon="1.44011">
        <ele>2191.46</ele>
        <time>2014-09-07T10:26:59Z</time>
      </trkpt>
      <trkpt lat="42.83052" lon="1.44012">
        <ele>2190.98</ele>
        <time>2014-09-07T10:27:36Z</time>
      </trkpt>
      <trkpt lat="42.83054" lon="1.44012">
        <ele>2190.98</ele>
        <time>2014-09-07T10:28:11Z</time>
      </trkpt>
      <trkpt lat="42.83053" lon="1.44012">
        <ele>2191.46</ele>
        <time>2014-09-07T10:28:50Z</time>
      </trkpt>
      <trkpt lat="42.83052" lon="1.44012">
        <ele>2191.94</ele>
        <time>2014-09-07T10:29:25Z</time>
      </trkpt>
      <trkpt lat="42.83053" lon="1.44013">
        <ele>2191.46</ele>
        <time>2014-09-07T10:30:03Z</time>
      </trkpt>
      <trkpt lat="42.83053" lon="1.4401">
        <ele>2191.46</ele>
        <time>2014-09-07T10:30:43Z</time>
      </trkpt>
      <trkpt lat="42.83051" lon="1.44011">
        <ele>2191.94</ele>
        <time>2014-09-07T10:31:24Z</time>
      </trkpt>
      <trkpt lat="42.83051" lon="1.44012">
        <ele>2191.94</ele>
        <time>2014-09-07T10:31:58Z</time>
      </trkpt>
      <trkpt lat="42.83051" lon="1.44011">
        <ele>2191.46</ele>
        <time>2014-09-07T10:32:36Z</time>
      </trkpt>
      <trkpt lat="42.83051" lon="1.44012">
        <ele>2191.46</ele>
        <time>2014-09-07T10:33:13Z</time>
      </trkpt>
      <trkpt lat="42.83051" lon="1.4401">
        <ele>2191.46</ele>
        <time>2014-09-07T10:33:49Z</time>
      </trkpt>
      <trkpt lat="42.83051" lon="1.44011">
        <ele>2191.46</ele>
        <time>2014-09-07T10:34:25Z</time>
      </trkpt>
      <trkpt lat="42.83052" lon="1.44012">
        <ele>2190.02</ele>
        <time>2014-09-07T10:35:03Z</time>
      </trkpt>
      <trkpt lat="42.83053" lon="1.44012">
        <ele>2189.54</ele>
        <time>2014-09-07T10:35:05Z</time>
      </trkpt>
      <trkpt lat="42.83051" lon="1.44011">
        <ele>2120.81</ele>
        <time>2014-09-07T10:54:25Z</time>
      </trkpt>
      <trkpt lat="42.83053" lon="1.44014">
        <ele>2120.32</ele>
        <time>2014-09-07T10:54:26Z</time>
      </trkpt>
      <trkpt lat="42.83054" lon="1.44011">
        <ele>2123.69</ele>
        <time>2014-09-07T10:54:39Z</time>
      </trkpt>
      <trkpt lat="42.83053" lon="1.4401">
        <ele>2128.5</ele>
        <time>2014-09-07T10:54:41Z</time>
      </trkpt>
      <trkpt lat="42.83054" lon="1.44007">
        <ele>2131.86</ele>
        <time>2014-09-07T10:54:43Z</time>
      </trkpt>
      <trkpt lat="42.83053" lon="1.44005">
        <ele>2136.19</ele>
        <time>2014-09-07T10:54:45Z</time>
      </trkpt>
      <trkpt lat="42.83053" lon="1.44004">
        <ele>2140.03</ele>
        <time>2014-09-07T10:54:47Z</time>
      </trkpt>
      <trkpt lat="42.83053" lon="1.44004">
        <ele>2143.4</ele>
        <time>2014-09-07T10:54:49Z</time>
      </trkpt>
      <trkpt lat="42.83054" lon="1.44004">
        <ele>2146.76</ele>
        <time>2014-09-07T10:54:51Z</time>
      </trkpt>
      <trkpt lat="42.83054" lon="1.44003">
        <ele>2150.61</ele>
        <time>2014-09-07T10:54:54Z</time>
      </trkpt>
      <trkpt lat="42.83055" lon="1.44004">
        <ele>2155.41</ele>
        <time>2014-09-07T10:54:57Z</time>
      </trkpt>
      <trkpt lat="42.83055" lon="1.44002">
        <ele>2158.3</ele>
        <time>2014-09-07T10:55:00Z</time>
      </trkpt>
      <trkpt lat="42.83055" lon="1.44002">
        <ele>2159.26</ele>
        <time>2014-09-07T10:55:02Z</time>
      </trkpt>
      <trkpt lat="42.83056" lon="1.44">
        <ele>2162.62</ele>
        <time>2014-09-07T10:55:05Z</time>
      </trkpt>
      <trkpt lat="42.83055" lon="1.44001">
        <ele>2166.47</ele>
        <time>2014-09-07T10:55:09Z</time>
      </trkpt>
      <trkpt lat="42.83054" lon="1.44002">
        <ele>2167.91</ele>
        <time>2014-09-07T10:55:12Z</time>
      </trkpt>
      <trkpt lat="42.83053" lon="1.44002">
        <ele>2169.83</ele>
        <time>2014-09-07T10:55:14Z</time>
      </trkpt>
      <trkpt lat="42.83053" lon="1.44002">
        <ele>2171.27</ele>
        <time>2014-09-07T10:55:16Z</time>
      </trkpt>
      <trkpt lat="42.83051" lon="1.43998">
        <ele>2174.64</ele>
        <time>2014-09-07T10:55:23Z</time>
      </trkpt>
      <trkpt lat="42.8305" lon="1.43997">
        <ele>2175.12</ele>
        <time>2014-09-07T10:55:24Z</time>
      </trkpt>
      <trkpt lat="42.83053" lon="1.43993">
        <ele>2177.52</ele>
        <time>2014-09-07T10:55:39Z</time>
      </trkpt>
      <trkpt lat="42.83056" lon="1.43996">
        <ele>2178.97</ele>
        <time>2014-09-07T10:55:54Z</time>
      </trkpt>
      <trkpt lat="42.83059" lon="1.44001">
        <ele>2179.45</ele>
        <time>2014-09-07T10:56:10Z</time>
      </trkpt>
      <trkpt lat="42.83065" lon="1.4401">
        <ele>2181.37</ele>
        <time>2014-09-07T10:56:26Z</time>
      </trkpt>
      <trkpt lat="42.83071" lon="1.44013">
        <ele>2179.45</ele>
        <time>2014-09-07T10:56:40Z</time>
      </trkpt>
      <trkpt lat="42.83072" lon="1.44019">
        <ele>2177.52</ele>
        <time>2014-09-07T10:56:53Z</time>
      </trkpt>
      <trkpt lat="42.83075" lon="1.44023">
        <ele>2176.56</ele>
        <time>2014-09-07T10:57:14Z</time>
      </trkpt>
      <trkpt lat="42.8308" lon="1.44028">
        <ele>2174.16</ele>
        <time>2014-09-07T10:57:27Z</time>
      </trkpt>
      <trkpt lat="42.83083" lon="1.44024">
        <ele>2172.72</ele>
        <time>2014-09-07T10:57:40Z</time>
      </trkpt>
      <trkpt lat="42.83087" lon="1.44022">
        <ele>2169.83</ele>
        <time>2014-09-07T10:57:55Z</time>
      </trkpt>
      <trkpt lat="42.83088" lon="1.44029">
        <ele>2167.91</ele>
        <time>2014-09-07T10:58:08Z</time>
      </trkpt>
      <trkpt lat="42.83095" lon="1.44028">
        <ele>2165.99</ele>
        <time>2014-09-07T10:58:22Z</time>
      </trkpt>
      <trkpt lat="42.83097" lon="1.44031">
        <ele>2163.1</ele>
        <time>2014-09-07T10:58:35Z</time>
      </trkpt>
      <trkpt lat="42.83102" lon="1.4403">
        <ele>2161.66</ele>
        <time>2014-09-07T10:58:50Z</time>
      </trkpt>
      <trkpt lat="42.83107" lon="1.44031">
        <ele>2159.26</ele>
        <time>2014-09-07T10:59:05Z</time>
      </trkpt>
      <trkpt lat="42.8311" lon="1.44037">
        <ele>2157.34</ele>
        <time>2014-09-07T10:59:20Z</time>
      </trkpt>
      <trkpt lat="42.83116" lon="1.44037">
        <ele>2155.41</ele>
        <time>2014-09-07T10:59:36Z</time>
      </trkpt>
      <trkpt lat="42.83117" lon="1.44037">
        <ele>2153.49</ele>
        <time>2014-09-07T10:59:52Z</time>
      </trkpt>
      <trkpt lat="42.83124" lon="1.44037">
        <ele>2152.05</ele>
        <time>2014-09-07T11:00:08Z</time>
      </trkpt>
      <trkpt lat="42.8313" lon="1.44039">
        <ele>2150.13</ele>
        <time>2014-09-07T11:00:25Z</time>
      </trkpt>
      <trkpt lat="42.83136" lon="1.44043">
        <ele>2148.2</ele>
        <time>2014-09-07T11:00:41Z</time>
      </trkpt>
      <trkpt lat="42.83139" lon="1.44045">
        <ele>2146.28</ele>
        <time>2014-09-07T11:01:01Z</time>
      </trkpt>
      <trkpt lat="42.83146" lon="1.44044">
        <ele>2144.84</ele>
        <time>2014-09-07T11:01:17Z</time>
      </trkpt>
      <trkpt lat="42.83149" lon="1.44047">
        <ele>2141.47</ele>
        <time>2014-09-07T11:01:30Z</time>
      </trkpt>
      <trkpt lat="42.83149" lon="1.4405">
        <ele>2140.03</ele>
        <time>2014-09-07T11:01:46Z</time>
      </trkpt>
      <trkpt lat="42.83155" lon="1.44052">
        <ele>2137.63</ele>
        <time>2014-09-07T11:01:59Z</time>
      </trkpt>
      <trkpt lat="42.83159" lon="1.44054">
        <ele>2135.71</ele>
        <time>2014-09-07T11:02:10Z</time>
      </trkpt>
      <trkpt lat="42.83164" lon="1.44053">
        <ele>2134.74</ele>
        <time>2014-09-07T11:02:26Z</time>
      </trkpt>
      <trkpt lat="42.83168" lon="1.44054">
        <ele>2131.38</ele>
        <time>2014-09-07T11:02:39Z</time>
      </trkpt>
      <trkpt lat="42.83173" lon="1.44055">
        <ele>2130.42</ele>
        <time>2014-09-07T11:02:54Z</time>
      </trkpt>
      <trkpt lat="42.83178" lon="1.44057">
        <ele>2128.02</ele>
        <time>2014-09-07T11:03:10Z</time>
      </trkpt>
      <trkpt lat="42.83182" lon="1.44055">
        <ele>2126.09</ele>
        <time>2014-09-07T11:03:22Z</time>
      </trkpt>
      <trkpt lat="42.83186" lon="1.44061">
        <ele>2124.17</ele>
        <time>2014-09-07T11:03:37Z</time>
      </trkpt>
      <trkpt lat="42.83194" lon="1.4406">
        <ele>2121.77</ele>
        <time>2014-09-07T11:03:51Z</time>
      </trkpt>
      <trkpt lat="42.83197" lon="1.44061">
        <ele>2118.88</ele>
        <time>2014-09-07T11:04:05Z</time>
      </trkpt>
      <trkpt lat="42.83198" lon="1.44065">
        <ele>2116.48</ele>
        <time>2014-09-07T11:04:13Z</time>
      </trkpt>
      <trkpt lat="42.83204" lon="1.44066">
        <ele>2115.04</ele>
        <time>2014-09-07T11:04:27Z</time>
      </trkpt>
      <trkpt lat="42.83205" lon="1.44079">
        <ele>2112.63</ele>
        <time>2014-09-07T11:04:45Z</time>
      </trkpt>
      <trkpt lat="42.8321" lon="1.4408">
        <ele>2111.19</ele>
        <time>2014-09-07T11:04:55Z</time>
      </trkpt>
      <trkpt lat="42.83213" lon="1.4408">
        <ele>2108.79</ele>
        <time>2014-09-07T11:05:01Z</time>
      </trkpt>
      <trkpt lat="42.83217" lon="1.44087">
        <ele>2106.87</ele>
        <time>2014-09-07T11:05:14Z</time>
      </trkpt>
      <trkpt lat="42.83224" lon="1.44097">
        <ele>2103.98</ele>
        <time>2014-09-07T11:05:27Z</time>
      </trkpt>
      <trkpt lat="42.83226" lon="1.44109">
        <ele>2103.5</ele>
        <time>2014-09-07T11:05:42Z</time>
      </trkpt>
      <trkpt lat="42.83231" lon="1.44115">
        <ele>2103.02</ele>
        <time>2014-09-07T11:05:56Z</time>
      </trkpt>
      <trkpt lat="42.83238" lon="1.44121">
        <ele>2102.06</ele>
        <time>2014-09-07T11:06:10Z</time>
      </trkpt>
      <trkpt lat="42.83245" lon="1.44126">
        <ele>2101.58</ele>
        <time>2014-09-07T11:06:23Z</time>
      </trkpt>
      <trkpt lat="42.83253" lon="1.44137">
        <ele>2101.1</ele>
        <time>2014-09-07T11:06:39Z</time>
      </trkpt>
      <trkpt lat="42.8326" lon="1.44146">
        <ele>2100.62</ele>
        <time>2014-09-07T11:06:54Z</time>
      </trkpt>
      <trkpt lat="42.83271" lon="1.44152">
        <ele>2100.62</ele>
        <time>2014-09-07T11:07:13Z</time>
      </trkpt>
      <trkpt lat="42.83281" lon="1.44153">
        <ele>2102.06</ele>
        <time>2014-09-07T11:07:29Z</time>
      </trkpt>
      <trkpt lat="42.8329" lon="1.44157">
        <ele>2103.5</ele>
        <time>2014-09-07T11:07:46Z</time>
      </trkpt>
      <trkpt lat="42.83294" lon="1.4416">
        <ele>2103.98</ele>
        <time>2014-09-07T11:08:03Z</time>
      </trkpt>
      <trkpt lat="42.83307" lon="1.44163">
        <ele>2104.46</ele>
        <time>2014-09-07T11:08:22Z</time>
      </trkpt>
      <trkpt lat="42.83315" lon="1.44167">
        <ele>2105.42</ele>
        <time>2014-09-07T11:08:38Z</time>
      </trkpt>
      <trkpt lat="42.8332" lon="1.44174">
        <ele>2105.91</ele>
        <time>2014-09-07T11:08:53Z</time>
      </trkpt>
      <trkpt lat="42.83327" lon="1.44178">
        <ele>2105.42</ele>
        <time>2014-09-07T11:09:09Z</time>
      </trkpt>
      <trkpt lat="42.83332" lon="1.4418">
        <ele>2104.94</ele>
        <time>2014-09-07T11:09:24Z</time>
      </trkpt>
      <trkpt lat="42.83343" lon="1.44186">
        <ele>2106.87</ele>
        <time>2014-09-07T11:09:43Z</time>
      </trkpt>
      <trkpt lat="42.83351" lon="1.44194">
        <ele>2105.91</ele>
        <time>2014-09-07T11:10:02Z</time>
      </trkpt>
      <trkpt lat="42.83356" lon="1.44199">
        <ele>2105.91</ele>
        <time>2014-09-07T11:10:16Z</time>
      </trkpt>
      <trkpt lat="42.83363" lon="1.44204">
        <ele>2104.94</ele>
        <time>2014-09-07T11:10:30Z</time>
      </trkpt>
      <trkpt lat="42.83371" lon="1.44213">
        <ele>2103.98</ele>
        <time>2014-09-07T11:10:47Z</time>
      </trkpt>
      <trkpt lat="42.83376" lon="1.44219">
        <ele>2104.94</ele>
        <time>2014-09-07T11:11:02Z</time>
      </trkpt>
      <trkpt lat="42.83381" lon="1.44219">
        <ele>2105.91</ele>
        <time>2014-09-07T11:11:17Z</time>
      </trkpt>
      <trkpt lat="42.83385" lon="1.44228">
        <ele>2105.42</ele>
        <time>2014-09-07T11:11:31Z</time>
      </trkpt>
      <trkpt lat="42.83394" lon="1.44235">
        <ele>2104.94</ele>
        <time>2014-09-07T11:11:47Z</time>
      </trkpt>
      <trkpt lat="42.83398" lon="1.44243">
        <ele>2104.94</ele>
        <time>2014-09-07T11:12:00Z</time>
      </trkpt>
      <trkpt lat="42.83405" lon="1.44242">
        <ele>2104.94</ele>
        <time>2014-09-07T11:12:14Z</time>
      </trkpt>
      <trkpt lat="42.83407" lon="1.4425">
        <ele>2104.46</ele>
        <time>2014-09-07T11:12:33Z</time>
      </trkpt>
      <trkpt lat="42.83415" lon="1.44254">
        <ele>2104.94</ele>
        <time>2014-09-07T11:12:50Z</time>
      </trkpt>
      <trkpt lat="42.83417" lon="1.44262">
        <ele>2106.39</ele>
        <time>2014-09-07T11:13:06Z</time>
      </trkpt>
      <trkpt lat="42.83423" lon="1.44263">
        <ele>2106.87</ele>
        <time>2014-09-07T11:13:20Z</time>
      </trkpt>
      <trkpt lat="42.83428" lon="1.4427">
        <ele>2107.83</ele>
        <time>2014-09-07T11:13:37Z</time>
      </trkpt>
      <trkpt lat="42.83426" lon="1.44274">
        <ele>2108.79</ele>
        <time>2014-09-07T11:13:53Z</time>
      </trkpt>
      <trkpt lat="42.83436" lon="1.44282">
        <ele>2109.75</ele>
        <time>2014-09-07T11:14:09Z</time>
      </trkpt>
      <trkpt lat="42.83444" lon="1.44286">
        <ele>2110.23</ele>
        <time>2014-09-07T11:14:26Z</time>
      </trkpt>
      <trkpt lat="42.83441" lon="1.44293">
        <ele>2111.67</ele>
        <time>2014-09-07T11:14:42Z</time>
      </trkpt>
      <trkpt lat="42.83447" lon="1.44305">
        <ele>2112.15</ele>
        <time>2014-09-07T11:14:59Z</time>
      </trkpt>
      <trkpt lat="42.8345" lon="1.44311">
        <ele>2113.12</ele>
        <time>2014-09-07T11:15:15Z</time>
      </trkpt>
      <trkpt lat="42.83454" lon="1.443">
        <ele>2112.15</ele>
        <time>2014-09-07T11:15:31Z</time>
      </trkpt>
      <trkpt lat="42.83455" lon="1.44293">
        <ele>2110.71</ele>
        <time>2014-09-07T11:15:49Z</time>
      </trkpt>
      <trkpt lat="42.83452" lon="1.44293">
        <ele>2111.19</ele>
        <time>2014-09-07T11:16:19Z</time>
      </trkpt>
      <trkpt lat="42.83456" lon="1.44293">
        <ele>2110.71</ele>
        <time>2014-09-07T11:16:50Z</time>
      </trkpt>
      <trkpt lat="42.83461" lon="1.44289">
        <ele>2109.75</ele>
        <time>2014-09-07T11:17:10Z</time>
      </trkpt>
      <trkpt lat="42.8346" lon="1.44289">
        <ele>2109.75</ele>
        <time>2014-09-07T11:17:52Z</time>
      </trkpt>
      <trkpt lat="42.83466" lon="1.4428">
        <ele>2108.31</ele>
        <time>2014-09-07T11:18:13Z</time>
      </trkpt>
      <trkpt lat="42.83467" lon="1.44273">
        <ele>2107.35</ele>
        <time>2014-09-07T11:18:42Z</time>
      </trkpt>
      <trkpt lat="42.83471" lon="1.44269">
        <ele>2105.91</ele>
        <time>2014-09-07T11:19:00Z</time>
      </trkpt>
      <trkpt lat="42.83482" lon="1.44268">
        <ele>2104.46</ele>
        <time>2014-09-07T11:19:19Z</time>
      </trkpt>
      <trkpt lat="42.8349" lon="1.44263">
        <ele>2102.54</ele>
        <time>2014-09-07T11:19:35Z</time>
      </trkpt>
      <trkpt lat="42.83494" lon="1.44259">
        <ele>2100.62</ele>
        <time>2014-09-07T11:19:51Z</time>
      </trkpt>
      <trkpt lat="42.83499" lon="1.44255">
        <ele>2098.7</ele>
        <time>2014-09-07T11:20:11Z</time>
      </trkpt>
      <trkpt lat="42.83507" lon="1.44256">
        <ele>2096.77</ele>
        <time>2014-09-07T11:20:30Z</time>
      </trkpt>
      <trkpt lat="42.83518" lon="1.44256">
        <ele>2096.77</ele>
        <time>2014-09-07T11:20:48Z</time>
      </trkpt>
      <trkpt lat="42.83528" lon="1.44255">
        <ele>2094.85</ele>
        <time>2014-09-07T11:21:04Z</time>
      </trkpt>
      <trkpt lat="42.83529" lon="1.44254">
        <ele>2095.33</ele>
        <time>2014-09-07T11:21:05Z</time>
      </trkpt>
      <trkpt lat="42.83541" lon="1.44245">
        <ele>2093.89</ele>
        <time>2014-09-07T11:21:21Z</time>
      </trkpt>
      <trkpt lat="42.83549" lon="1.44242">
        <ele>2094.37</ele>
        <time>2014-09-07T11:21:31Z</time>
      </trkpt>
      <trkpt lat="42.83562" lon="1.44232">
        <ele>2090.52</ele>
        <time>2014-09-07T11:21:50Z</time>
      </trkpt>
      <trkpt lat="42.83571" lon="1.44222">
        <ele>2088.6</ele>
        <time>2014-09-07T11:22:09Z</time>
      </trkpt>
      <trkpt lat="42.83578" lon="1.44218">
        <ele>2088.12</ele>
        <time>2014-09-07T11:22:17Z</time>
      </trkpt>
      <trkpt lat="42.83594" lon="1.44211">
        <ele>2085.72</ele>
        <time>2014-09-07T11:22:35Z</time>
      </trkpt>
      <trkpt lat="42.83605" lon="1.44204">
        <ele>2084.28</ele>
        <time>2014-09-07T11:22:49Z</time>
      </trkpt>
      <trkpt lat="42.83617" lon="1.44202">
        <ele>2080.43</ele>
        <time>2014-09-07T11:23:04Z</time>
      </trkpt>
      <trkpt lat="42.8362" lon="1.44201">
        <ele>2079.47</ele>
        <time>2014-09-07T11:23:09Z</time>
      </trkpt>
      <trkpt lat="42.83638" lon="1.44197">
        <ele>2077.07</ele>
        <time>2014-09-07T11:23:26Z</time>
      </trkpt>
      <trkpt lat="42.83656" lon="1.4419">
        <ele>2076.1</ele>
        <time>2014-09-07T11:23:45Z</time>
      </trkpt>
      <trkpt lat="42.83659" lon="1.44189">
        <ele>2075.62</ele>
        <time>2014-09-07T11:23:48Z</time>
      </trkpt>
      <trkpt lat="42.83677" lon="1.44181">
        <ele>2075.62</ele>
        <time>2014-09-07T11:24:06Z</time>
      </trkpt>
      <trkpt lat="42.83692" lon="1.44181">
        <ele>2075.62</ele>
        <time>2014-09-07T11:24:22Z</time>
      </trkpt>
      <trkpt lat="42.83693" lon="1.44181">
        <ele>2075.62</ele>
        <time>2014-09-07T11:24:23Z</time>
      </trkpt>
      <trkpt lat="42.83701" lon="1.44174">
        <ele>2075.14</ele>
        <time>2014-09-07T11:24:31Z</time>
      </trkpt>
      <trkpt lat="42.8371" lon="1.44166">
        <ele>2073.22</ele>
        <time>2014-09-07T11:24:44Z</time>
      </trkpt>
      <trkpt lat="42.83721" lon="1.44158">
        <ele>2071.3</ele>
        <time>2014-09-07T11:24:56Z</time>
      </trkpt>
      <trkpt lat="42.83734" lon="1.44153">
        <ele>2071.3</ele>
        <time>2014-09-07T11:25:09Z</time>
      </trkpt>
      <trkpt lat="42.83738" lon="1.4415">
        <ele>2071.3</ele>
        <time>2014-09-07T11:25:14Z</time>
      </trkpt>
      <trkpt lat="42.83752" lon="1.44154">
        <ele>2068.41</ele>
        <time>2014-09-07T11:25:30Z</time>
      </trkpt>
      <trkpt lat="42.83761" lon="1.44147">
        <ele>2066.01</ele>
        <time>2014-09-07T11:25:43Z</time>
      </trkpt>
      <trkpt lat="42.83764" lon="1.44141">
        <ele>2065.05</ele>
        <time>2014-09-07T11:25:50Z</time>
      </trkpt>
      <trkpt lat="42.83769" lon="1.44121">
        <ele>2062.17</ele>
        <time>2014-09-07T11:26:08Z</time>
      </trkpt>
      <trkpt lat="42.83771" lon="1.44109">
        <ele>2059.28</ele>
        <time>2014-09-07T11:26:23Z</time>
      </trkpt>
      <trkpt lat="42.83774" lon="1.44102">
        <ele>2055.92</ele>
        <time>2014-09-07T11:26:37Z</time>
      </trkpt>
      <trkpt lat="42.83775" lon="1.44095">
        <ele>2053.03</ele>
        <time>2014-09-07T11:26:48Z</time>
      </trkpt>
      <trkpt lat="42.83775" lon="1.44094">
        <ele>2053.03</ele>
        <time>2014-09-07T11:26:49Z</time>
      </trkpt>
      <trkpt lat="42.83779" lon="1.44087">
        <ele>2049.67</ele>
        <time>2014-09-07T11:27:04Z</time>
      </trkpt>
      <trkpt lat="42.83784" lon="1.44081">
        <ele>2046.78</ele>
        <time>2014-09-07T11:27:17Z</time>
      </trkpt>
      <trkpt lat="42.83788" lon="1.44078">
        <ele>2043.9</ele>
        <time>2014-09-07T11:27:30Z</time>
      </trkpt>
      <trkpt lat="42.83793" lon="1.44079">
        <ele>2040.54</ele>
        <time>2014-09-07T11:27:42Z</time>
      </trkpt>
      <trkpt lat="42.83797" lon="1.44079">
        <ele>2039.09</ele>
        <time>2014-09-07T11:28:00Z</time>
      </trkpt>
      <trkpt lat="42.83803" lon="1.44074">
        <ele>2036.21</ele>
        <time>2014-09-07T11:28:15Z</time>
      </trkpt>
      <trkpt lat="42.83809" lon="1.44073">
        <ele>2033.81</ele>
        <time>2014-09-07T11:28:29Z</time>
      </trkpt>
      <trkpt lat="42.8382" lon="1.44082">
        <ele>2030.44</ele>
        <time>2014-09-07T11:28:48Z</time>
      </trkpt>
      <trkpt lat="42.83821" lon="1.44081">
        <ele>2027.56</ele>
        <time>2014-09-07T11:28:52Z</time>
      </trkpt>
      <trkpt lat="42.83821" lon="1.44081">
        <ele>2030.92</ele>
        <time>2014-09-07T11:28:53Z</time>
      </trkpt>
      <trkpt lat="42.83822" lon="1.44081">
        <ele>2028.52</ele>
        <time>2014-09-07T11:28:56Z</time>
      </trkpt>
      <trkpt lat="42.83826" lon="1.44073">
        <ele>2027.08</ele>
        <time>2014-09-07T11:29:12Z</time>
      </trkpt>
      <trkpt lat="42.83832" lon="1.4407">
        <ele>2023.71</ele>
        <time>2014-09-07T11:29:27Z</time>
      </trkpt>
      <trkpt lat="42.83838" lon="1.44066">
        <ele>2022.27</ele>
        <time>2014-09-07T11:29:49Z</time>
      </trkpt>
      <trkpt lat="42.83845" lon="1.44066">
        <ele>2019.87</ele>
        <time>2014-09-07T11:30:09Z</time>
      </trkpt>
      <trkpt lat="42.83849" lon="1.44066">
        <ele>2018.43</ele>
        <time>2014-09-07T11:30:24Z</time>
      </trkpt>
      <trkpt lat="42.83857" lon="1.44061">
        <ele>2015.54</ele>
        <time>2014-09-07T11:30:39Z</time>
      </trkpt>
      <trkpt lat="42.83866" lon="1.44054">
        <ele>2012.18</ele>
        <time>2014-09-07T11:30:53Z</time>
      </trkpt>
      <trkpt lat="42.83874" lon="1.44052">
        <ele>2009.29</ele>
        <time>2014-09-07T11:31:06Z</time>
      </trkpt>
      <trkpt lat="42.83875" lon="1.44052">
        <ele>2008.81</ele>
        <time>2014-09-07T11:31:07Z</time>
      </trkpt>
      <trkpt lat="42.8389" lon="1.44055">
        <ele>2006.41</ele>
        <time>2014-09-07T11:31:23Z</time>
      </trkpt>
      <trkpt lat="42.83898" lon="1.44054">
        <ele>2002.56</ele>
        <time>2014-09-07T11:31:38Z</time>
      </trkpt>
      <trkpt lat="42.83904" lon="1.44061">
        <ele>1999.68</ele>
        <time>2014-09-07T11:31:52Z</time>
      </trkpt>
      <trkpt lat="42.83905" lon="1.44061">
        <ele>1999.2</ele>
        <time>2014-09-07T11:31:53Z</time>
      </trkpt>
      <trkpt lat="42.83913" lon="1.44063">
        <ele>1995.83</ele>
        <time>2014-09-07T11:32:07Z</time>
      </trkpt>
      <trkpt lat="42.8392" lon="1.44062">
        <ele>1992.95</ele>
        <time>2014-09-07T11:32:22Z</time>
      </trkpt>
      <trkpt lat="42.83929" lon="1.44054">
        <ele>1989.59</ele>
        <time>2014-09-07T11:32:37Z</time>
      </trkpt>
      <trkpt lat="42.8393" lon="1.44054">
        <ele>1988.14</ele>
        <time>2014-09-07T11:32:48Z</time>
      </trkpt>
      <trkpt lat="42.83937" lon="1.4405">
        <ele>1984.78</ele>
        <time>2014-09-07T11:33:04Z</time>
      </trkpt>
      <trkpt lat="42.83944" lon="1.44048">
        <ele>1982.38</ele>
        <time>2014-09-07T11:33:24Z</time>
      </trkpt>
      <trkpt lat="42.83949" lon="1.4405">
        <ele>1979.49</ele>
        <time>2014-09-07T11:33:37Z</time>
      </trkpt>
      <trkpt lat="42.83955" lon="1.44051">
        <ele>1976.13</ele>
        <time>2014-09-07T11:33:50Z</time>
      </trkpt>
      <trkpt lat="42.8396" lon="1.44056">
        <ele>1972.76</ele>
        <time>2014-09-07T11:34:02Z</time>
      </trkpt>
      <trkpt lat="42.83969" lon="1.44057">
        <ele>1969.4</ele>
        <time>2014-09-07T11:34:15Z</time>
      </trkpt>
      <trkpt lat="42.83974" lon="1.44055">
        <ele>1967.48</ele>
        <time>2014-09-07T11:34:23Z</time>
      </trkpt>
      <trkpt lat="42.83985" lon="1.44047">
        <ele>1964.59</ele>
        <time>2014-09-07T11:34:42Z</time>
      </trkpt>
      <trkpt lat="42.83989" lon="1.44045">
        <ele>1961.23</ele>
        <time>2014-09-07T11:34:52Z</time>
      </trkpt>
      <trkpt lat="42.8399" lon="1.44044">
        <ele>1961.23</ele>
        <time>2014-09-07T11:34:53Z</time>
      </trkpt>
      <trkpt lat="42.83995" lon="1.44043">
        <ele>1957.86</ele>
        <time>2014-09-07T11:35:08Z</time>
      </trkpt>
      <trkpt lat="42.84" lon="1.44054">
        <ele>1954.98</ele>
        <time>2014-09-07T11:35:24Z</time>
      </trkpt>
      <trkpt lat="42.84008" lon="1.44053">
        <ele>1952.09</ele>
        <time>2014-09-07T11:35:36Z</time>
      </trkpt>
      <trkpt lat="42.84018" lon="1.4405">
        <ele>1948.73</ele>
        <time>2014-09-07T11:35:51Z</time>
      </trkpt>
      <trkpt lat="42.84026" lon="1.44047">
        <ele>1945.85</ele>
        <time>2014-09-07T11:36:04Z</time>
      </trkpt>
      <trkpt lat="42.84033" lon="1.44044">
        <ele>1942.48</ele>
        <time>2014-09-07T11:36:16Z</time>
      </trkpt>
      <trkpt lat="42.84041" lon="1.4404">
        <ele>1939.6</ele>
        <time>2014-09-07T11:36:27Z</time>
      </trkpt>
      <trkpt lat="42.84052" lon="1.44036">
        <ele>1936.71</ele>
        <time>2014-09-07T11:36:42Z</time>
      </trkpt>
      <trkpt lat="42.84053" lon="1.44036">
        <ele>1936.23</ele>
        <time>2014-09-07T11:36:43Z</time>
      </trkpt>
      <trkpt lat="42.84055" lon="1.44036">
        <ele>1935.27</ele>
        <time>2014-09-07T11:36:45Z</time>
      </trkpt>
      <trkpt lat="42.84062" lon="1.44032">
        <ele>1933.83</ele>
        <time>2014-09-07T11:36:54Z</time>
      </trkpt>
      <trkpt lat="42.84073" lon="1.44024">
        <ele>1930.95</ele>
        <time>2014-09-07T11:37:10Z</time>
      </trkpt>
      <trkpt lat="42.84079" lon="1.44025">
        <ele>1928.06</ele>
        <time>2014-09-07T11:37:20Z</time>
      </trkpt>
      <trkpt lat="42.84089" lon="1.44024">
        <ele>1924.7</ele>
        <time>2014-09-07T11:37:34Z</time>
      </trkpt>
      <trkpt lat="42.84099" lon="1.44023">
        <ele>1922.29</ele>
        <time>2014-09-07T11:37:46Z</time>
      </trkpt>
      <trkpt lat="42.84102" lon="1.44015">
        <ele>1921.81</ele>
        <time>2014-09-07T11:38:00Z</time>
      </trkpt>
      <trkpt lat="42.84104" lon="1.44005">
        <ele>1919.41</ele>
        <time>2014-09-07T11:38:14Z</time>
      </trkpt>
      <trkpt lat="42.84108" lon="1.43999">
        <ele>1916.53</ele>
        <time>2014-09-07T11:38:30Z</time>
      </trkpt>
      <trkpt lat="42.84112" lon="1.43994">
        <ele>1913.16</ele>
        <time>2014-09-07T11:38:43Z</time>
      </trkpt>
      <trkpt lat="42.84115" lon="1.43988">
        <ele>1909.8</ele>
        <time>2014-09-07T11:38:53Z</time>
      </trkpt>
      <trkpt lat="42.84118" lon="1.43981">
        <ele>1906.43</ele>
        <time>2014-09-07T11:39:08Z</time>
      </trkpt>
      <trkpt lat="42.84121" lon="1.43978">
        <ele>1903.55</ele>
        <time>2014-09-07T11:39:18Z</time>
      </trkpt>
      <trkpt lat="42.84121" lon="1.43978">
        <ele>1903.55</ele>
        <time>2014-09-07T11:39:19Z</time>
      </trkpt>
      <trkpt lat="42.84123" lon="1.43975">
        <ele>1901.63</ele>
        <time>2014-09-07T11:39:28Z</time>
      </trkpt>
      <trkpt lat="42.84127" lon="1.43968">
        <ele>1898.26</ele>
        <time>2014-09-07T11:39:39Z</time>
      </trkpt>
      <trkpt lat="42.84126" lon="1.43961">
        <ele>1896.34</ele>
        <time>2014-09-07T11:39:50Z</time>
      </trkpt>
      <trkpt lat="42.84128" lon="1.4396">
        <ele>1894.9</ele>
        <time>2014-09-07T11:39:57Z</time>
      </trkpt>
      <trkpt lat="42.84131" lon="1.43956">
        <ele>1891.05</ele>
        <time>2014-09-07T11:40:13Z</time>
      </trkpt>
      <trkpt lat="42.84133" lon="1.43945">
        <ele>1888.17</ele>
        <time>2014-09-07T11:40:28Z</time>
      </trkpt>
      <trkpt lat="42.84132" lon="1.43945">
        <ele>1887.21</ele>
        <time>2014-09-07T11:40:30Z</time>
      </trkpt>
      <trkpt lat="42.84136" lon="1.43941">
        <ele>1883.84</ele>
        <time>2014-09-07T11:40:45Z</time>
      </trkpt>
      <trkpt lat="42.84138" lon="1.43939">
        <ele>1881.92</ele>
        <time>2014-09-07T11:41:00Z</time>
      </trkpt>
      <trkpt lat="42.8414" lon="1.43935">
        <ele>1880</ele>
        <time>2014-09-07T11:41:15Z</time>
      </trkpt>
      <trkpt lat="42.84149" lon="1.43936">
        <ele>1877.11</ele>
        <time>2014-09-07T11:41:32Z</time>
      </trkpt>
      <trkpt lat="42.84156" lon="1.43935">
        <ele>1874.23</ele>
        <time>2014-09-07T11:41:46Z</time>
      </trkpt>
      <trkpt lat="42.84159" lon="1.43932">
        <ele>1872.79</ele>
        <time>2014-09-07T11:42:02Z</time>
      </trkpt>
      <trkpt lat="42.84164" lon="1.4394">
        <ele>1874.23</ele>
        <time>2014-09-07T11:42:18Z</time>
      </trkpt>
      <trkpt lat="42.8417" lon="1.43948">
        <ele>1875.19</ele>
        <time>2014-09-07T11:42:35Z</time>
      </trkpt>
      <trkpt lat="42.84175" lon="1.43956">
        <ele>1875.19</ele>
        <time>2014-09-07T11:42:54Z</time>
      </trkpt>
      <trkpt lat="42.84181" lon="1.43959">
        <ele>1873.27</ele>
        <time>2014-09-07T11:43:11Z</time>
      </trkpt>
      <trkpt lat="42.84185" lon="1.43959">
        <ele>1869.9</ele>
        <time>2014-09-07T11:43:23Z</time>
      </trkpt>
      <trkpt lat="42.84195" lon="1.43957">
        <ele>1867.5</ele>
        <time>2014-09-07T11:43:42Z</time>
      </trkpt>
      <trkpt lat="42.84199" lon="1.43959">
        <ele>1864.61</ele>
        <time>2014-09-07T11:43:56Z</time>
      </trkpt>
      <trkpt lat="42.84199" lon="1.43958">
        <ele>1864.13</ele>
        <time>2014-09-07T11:43:57Z</time>
      </trkpt>
      <trkpt lat="42.84207" lon="1.43961">
        <ele>1860.77</ele>
        <time>2014-09-07T11:44:12Z</time>
      </trkpt>
      <trkpt lat="42.84214" lon="1.43963">
        <ele>1857.4</ele>
        <time>2014-09-07T11:44:27Z</time>
      </trkpt>
      <trkpt lat="42.84224" lon="1.4396">
        <ele>1854.52</ele>
        <time>2014-09-07T11:44:44Z</time>
      </trkpt>
      <trkpt lat="42.84235" lon="1.4396">
        <ele>1851.16</ele>
        <time>2014-09-07T11:45:00Z</time>
      </trkpt>
      <trkpt lat="42.84245" lon="1.4396">
        <ele>1847.79</ele>
        <time>2014-09-07T11:45:11Z</time>
      </trkpt>
      <trkpt lat="42.84257" lon="1.43957">
        <ele>1845.87</ele>
        <time>2014-09-07T11:45:29Z</time>
      </trkpt>
      <trkpt lat="42.84263" lon="1.43955">
        <ele>1842.02</ele>
        <time>2014-09-07T11:45:41Z</time>
      </trkpt>
      <trkpt lat="42.84275" lon="1.43953">
        <ele>1840.1</ele>
        <time>2014-09-07T11:45:55Z</time>
      </trkpt>
      <trkpt lat="42.84289" lon="1.43953">
        <ele>1836.74</ele>
        <time>2014-09-07T11:46:09Z</time>
      </trkpt>
      <trkpt lat="42.84299" lon="1.43954">
        <ele>1836.26</ele>
        <time>2014-09-07T11:46:18Z</time>
      </trkpt>
      <trkpt lat="42.84302" lon="1.43955">
        <ele>1835.77</ele>
        <time>2014-09-07T11:46:22Z</time>
      </trkpt>
      <trkpt lat="42.84316" lon="1.43956">
        <ele>1833.37</ele>
        <time>2014-09-07T11:46:36Z</time>
      </trkpt>
      <trkpt lat="42.8432" lon="1.43951">
        <ele>1832.41</ele>
        <time>2014-09-07T11:46:51Z</time>
      </trkpt>
      <trkpt lat="42.84318" lon="1.43952">
        <ele>1832.41</ele>
        <time>2014-09-07T11:47:13Z</time>
      </trkpt>
      <trkpt lat="42.84334" lon="1.43952">
        <ele>1829.05</ele>
        <time>2014-09-07T11:47:30Z</time>
      </trkpt>
      <trkpt lat="42.84349" lon="1.43948">
        <ele>1827.12</ele>
        <time>2014-09-07T11:47:45Z</time>
      </trkpt>
      <trkpt lat="42.84354" lon="1.43947">
        <ele>1826.16</ele>
        <time>2014-09-07T11:47:49Z</time>
      </trkpt>
      <trkpt lat="42.84368" lon="1.43945">
        <ele>1823.28</ele>
        <time>2014-09-07T11:48:05Z</time>
      </trkpt>
      <trkpt lat="42.8438" lon="1.43942">
        <ele>1819.91</ele>
        <time>2014-09-07T11:48:22Z</time>
      </trkpt>
      <trkpt lat="42.84383" lon="1.43941">
        <ele>1818.47</ele>
        <time>2014-09-07T11:48:25Z</time>
      </trkpt>
      <trkpt lat="42.84397" lon="1.43936">
        <ele>1817.51</ele>
        <time>2014-09-07T11:48:41Z</time>
      </trkpt>
      <trkpt lat="42.84401" lon="1.43935">
        <ele>1815.59</ele>
        <time>2014-09-07T11:48:58Z</time>
      </trkpt>
      <trkpt lat="42.84411" lon="1.43932">
        <ele>1812.22</ele>
        <time>2014-09-07T11:49:11Z</time>
      </trkpt>
      <trkpt lat="42.84422" lon="1.43933">
        <ele>1811.26</ele>
        <time>2014-09-07T11:49:26Z</time>
      </trkpt>
      <trkpt lat="42.84425" lon="1.43933">
        <ele>1809.34</ele>
        <time>2014-09-07T11:49:31Z</time>
      </trkpt>
      <trkpt lat="42.84428" lon="1.43932">
        <ele>1808.38</ele>
        <time>2014-09-07T11:49:36Z</time>
      </trkpt>
      <trkpt lat="42.84442" lon="1.43928">
        <ele>1805.97</ele>
        <time>2014-09-07T11:49:53Z</time>
      </trkpt>
      <trkpt lat="42.84445" lon="1.43923">
        <ele>1803.57</ele>
        <time>2014-09-07T11:50:09Z</time>
      </trkpt>
      <trkpt lat="42.84444" lon="1.43926">
        <ele>1804.53</ele>
        <time>2014-09-07T11:50:28Z</time>
      </trkpt>
      <trkpt lat="42.84445" lon="1.43926">
        <ele>1803.57</ele>
        <time>2014-09-07T11:50:41Z</time>
      </trkpt>
      <trkpt lat="42.84445" lon="1.43926">
        <ele>1803.09</ele>
        <time>2014-09-07T11:51:01Z</time>
      </trkpt>
      <trkpt lat="42.8445" lon="1.43928">
        <ele>1805.01</ele>
        <time>2014-09-07T11:51:25Z</time>
      </trkpt>
      <trkpt lat="42.84455" lon="1.43936">
        <ele>1805.97</ele>
        <time>2014-09-07T11:51:41Z</time>
      </trkpt>
      <trkpt lat="42.84463" lon="1.43934">
        <ele>1806.45</ele>
        <time>2014-09-07T11:52:01Z</time>
      </trkpt>
      <trkpt lat="42.84465" lon="1.43932">
        <ele>1806.94</ele>
        <time>2014-09-07T11:52:18Z</time>
      </trkpt>
      <trkpt lat="42.84468" lon="1.43937">
        <ele>1806.94</ele>
        <time>2014-09-07T11:52:44Z</time>
      </trkpt>
      <trkpt lat="42.84468" lon="1.43938">
        <ele>1805.97</ele>
        <time>2014-09-07T11:52:50Z</time>
      </trkpt>
      <trkpt lat="42.84467" lon="1.43935">
        <ele>1806.45</ele>
        <time>2014-09-07T11:53:22Z</time>
      </trkpt>
      <trkpt lat="42.84473" lon="1.43937">
        <ele>1805.97</ele>
        <time>2014-09-07T11:53:47Z</time>
      </trkpt>
      <trkpt lat="42.84489" lon="1.43932">
        <ele>1807.9</ele>
        <time>2014-09-07T11:54:06Z</time>
      </trkpt>
      <trkpt lat="42.84503" lon="1.43931">
        <ele>1809.82</ele>
        <time>2014-09-07T11:54:22Z</time>
      </trkpt>
      <trkpt lat="42.84505" lon="1.43931">
        <ele>1809.82</ele>
        <time>2014-09-07T11:54:24Z</time>
      </trkpt>
      <trkpt lat="42.84516" lon="1.43926">
        <ele>1812.7</ele>
        <time>2014-09-07T11:54:41Z</time>
      </trkpt>
      <trkpt lat="42.84525" lon="1.43923">
        <ele>1815.11</ele>
        <time>2014-09-07T11:55:00Z</time>
      </trkpt>
      <trkpt lat="42.84533" lon="1.43922">
        <ele>1816.55</ele>
        <time>2014-09-07T11:55:17Z</time>
      </trkpt>
      <trkpt lat="42.84541" lon="1.43925">
        <ele>1819.43</ele>
        <time>2014-09-07T11:55:34Z</time>
      </trkpt>
      <trkpt lat="42.84555" lon="1.43926">
        <ele>1821.35</ele>
        <time>2014-09-07T11:55:53Z</time>
      </trkpt>
      <trkpt lat="42.84565" lon="1.43926">
        <ele>1823.76</ele>
        <time>2014-09-07T11:56:09Z</time>
      </trkpt>
      <trkpt lat="42.84577" lon="1.43926">
        <ele>1825.2</ele>
        <time>2014-09-07T11:56:25Z</time>
      </trkpt>
      <trkpt lat="42.84589" lon="1.43928">
        <ele>1827.6</ele>
        <time>2014-09-07T11:56:43Z</time>
      </trkpt>
      <trkpt lat="42.84598" lon="1.43928">
        <ele>1829.53</ele>
        <time>2014-09-07T11:57:00Z</time>
      </trkpt>
      <trkpt lat="42.84607" lon="1.43928">
        <ele>1832.41</ele>
        <time>2014-09-07T11:57:16Z</time>
      </trkpt>
      <trkpt lat="42.84615" lon="1.43931">
        <ele>1834.81</ele>
        <time>2014-09-07T11:57:32Z</time>
      </trkpt>
      <trkpt lat="42.84625" lon="1.43936">
        <ele>1835.77</ele>
        <time>2014-09-07T11:57:48Z</time>
      </trkpt>
      <trkpt lat="42.84635" lon="1.43938">
        <ele>1836.74</ele>
        <time>2014-09-07T11:58:04Z</time>
      </trkpt>
      <trkpt lat="42.84643" lon="1.43945">
        <ele>1837.22</ele>
        <time>2014-09-07T11:58:17Z</time>
      </trkpt>
      <trkpt lat="42.84658" lon="1.43963">
        <ele>1834.33</ele>
        <time>2014-09-07T11:58:35Z</time>
      </trkpt>
      <trkpt lat="42.84669" lon="1.43976">
        <ele>1831.93</ele>
        <time>2014-09-07T11:58:47Z</time>
      </trkpt>
      <trkpt lat="42.84677" lon="1.43989">
        <ele>1828.08</ele>
        <time>2014-09-07T11:58:59Z</time>
      </trkpt>
      <trkpt lat="42.84684" lon="1.44002">
        <ele>1826.16</ele>
        <time>2014-09-07T11:59:12Z</time>
      </trkpt>
      <trkpt lat="42.84685" lon="1.44003">
        <ele>1826.16</ele>
        <time>2014-09-07T11:59:13Z</time>
      </trkpt>
      <trkpt lat="42.84692" lon="1.44015">
        <ele>1822.8</ele>
        <time>2014-09-07T11:59:27Z</time>
      </trkpt>
      <trkpt lat="42.84695" lon="1.4402">
        <ele>1822.32</ele>
        <time>2014-09-07T11:59:32Z</time>
      </trkpt>
      <trkpt lat="42.84704" lon="1.44036">
        <ele>1818.95</ele>
        <time>2014-09-07T11:59:49Z</time>
      </trkpt>
      <trkpt lat="42.84713" lon="1.44051">
        <ele>1816.07</ele>
        <time>2014-09-07T12:00:04Z</time>
      </trkpt>
      <trkpt lat="42.84725" lon="1.44068">
        <ele>1813.66</ele>
        <time>2014-09-07T12:00:20Z</time>
      </trkpt>
      <trkpt lat="42.84736" lon="1.44083">
        <ele>1810.78</ele>
        <time>2014-09-07T12:00:36Z</time>
      </trkpt>
      <trkpt lat="42.84748" lon="1.44096">
        <ele>1808.38</ele>
        <time>2014-09-07T12:00:52Z</time>
      </trkpt>
      <trkpt lat="42.84752" lon="1.441">
        <ele>1807.42</ele>
        <time>2014-09-07T12:00:57Z</time>
      </trkpt>
      <trkpt lat="42.84772" lon="1.44113">
        <ele>1805.01</ele>
        <time>2014-09-07T12:01:16Z</time>
      </trkpt>
      <trkpt lat="42.84789" lon="1.44124">
        <ele>1804.05</ele>
        <time>2014-09-07T12:01:32Z</time>
      </trkpt>
      <trkpt lat="42.84806" lon="1.44136">
        <ele>1802.13</ele>
        <time>2014-09-07T12:01:48Z</time>
      </trkpt>
      <trkpt lat="42.84821" lon="1.44147">
        <ele>1801.17</ele>
        <time>2014-09-07T12:02:02Z</time>
      </trkpt>
      <trkpt lat="42.84838" lon="1.4416">
        <ele>1800.69</ele>
        <time>2014-09-07T12:02:19Z</time>
      </trkpt>
      <trkpt lat="42.84839" lon="1.44161">
        <ele>1800.21</ele>
        <time>2014-09-07T12:02:20Z</time>
      </trkpt>
      <trkpt lat="42.84855" lon="1.44176">
        <ele>1799.24</ele>
        <time>2014-09-07T12:02:39Z</time>
      </trkpt>
      <trkpt lat="42.84872" lon="1.44191">
        <ele>1799.24</ele>
        <time>2014-09-07T12:02:57Z</time>
      </trkpt>
      <trkpt lat="42.84886" lon="1.44205">
        <ele>1799.24</ele>
        <time>2014-09-07T12:03:13Z</time>
      </trkpt>
      <trkpt lat="42.84901" lon="1.44218">
        <ele>1800.69</ele>
        <time>2014-09-07T12:03:29Z</time>
      </trkpt>
      <trkpt lat="42.84917" lon="1.44229">
        <ele>1800.21</ele>
        <time>2014-09-07T12:03:46Z</time>
      </trkpt>
      <trkpt lat="42.84931" lon="1.44238">
        <ele>1802.61</ele>
        <time>2014-09-07T12:04:01Z</time>
      </trkpt>
      <trkpt lat="42.84948" lon="1.44243">
        <ele>1802.13</ele>
        <time>2014-09-07T12:04:18Z</time>
      </trkpt>
      <trkpt lat="42.84949" lon="1.44243">
        <ele>1802.13</ele>
        <time>2014-09-07T12:04:19Z</time>
      </trkpt>
      <trkpt lat="42.84963" lon="1.44249">
        <ele>1805.49</ele>
        <time>2014-09-07T12:04:34Z</time>
      </trkpt>
      <trkpt lat="42.84976" lon="1.44256">
        <ele>1805.97</ele>
        <time>2014-09-07T12:04:50Z</time>
      </trkpt>
      <trkpt lat="42.84994" lon="1.44262">
        <ele>1806.45</ele>
        <time>2014-09-07T12:05:08Z</time>
      </trkpt>
      <trkpt lat="42.8501" lon="1.44274">
        <ele>1808.86</ele>
        <time>2014-09-07T12:05:27Z</time>
      </trkpt>
      <trkpt lat="42.85028" lon="1.44281">
        <ele>1811.26</ele>
        <time>2014-09-07T12:05:48Z</time>
      </trkpt>
      <trkpt lat="42.85041" lon="1.44286">
        <ele>1814.15</ele>
        <time>2014-09-07T12:06:05Z</time>
      </trkpt>
      <trkpt lat="42.85054" lon="1.4429">
        <ele>1816.55</ele>
        <time>2014-09-07T12:06:22Z</time>
      </trkpt>
      <trkpt lat="42.85068" lon="1.44297">
        <ele>1817.99</ele>
        <time>2014-09-07T12:06:39Z</time>
      </trkpt>
      <trkpt lat="42.85084" lon="1.44301">
        <ele>1818.95</ele>
        <time>2014-09-07T12:06:56Z</time>
      </trkpt>
      <trkpt lat="42.85097" lon="1.44305">
        <ele>1821.35</ele>
        <time>2014-09-07T12:07:13Z</time>
      </trkpt>
      <trkpt lat="42.85109" lon="1.44315">
        <ele>1822.32</ele>
        <time>2014-09-07T12:07:30Z</time>
      </trkpt>
      <trkpt lat="42.85118" lon="1.4432">
        <ele>1825.68</ele>
        <time>2014-09-07T12:07:42Z</time>
      </trkpt>
      <trkpt lat="42.8513" lon="1.4433">
        <ele>1827.6</ele>
        <time>2014-09-07T12:08:00Z</time>
      </trkpt>
      <trkpt lat="42.85132" lon="1.44332">
        <ele>1829.53</ele>
        <time>2014-09-07T12:08:03Z</time>
      </trkpt>
      <trkpt lat="42.85143" lon="1.44339">
        <ele>1830.97</ele>
        <time>2014-09-07T12:08:21Z</time>
      </trkpt>
      <trkpt lat="42.85148" lon="1.44341">
        <ele>1832.89</ele>
        <time>2014-09-07T12:08:30Z</time>
      </trkpt>
      <trkpt lat="42.85158" lon="1.44349">
        <ele>1835.77</ele>
        <time>2014-09-07T12:08:49Z</time>
      </trkpt>
      <trkpt lat="42.85168" lon="1.44357">
        <ele>1838.66</ele>
        <time>2014-09-07T12:09:07Z</time>
      </trkpt>
      <trkpt lat="42.85173" lon="1.44371">
        <ele>1840.58</ele>
        <time>2014-09-07T12:09:24Z</time>
      </trkpt>
      <trkpt lat="42.85179" lon="1.44383">
        <ele>1841.54</ele>
        <time>2014-09-07T12:09:41Z</time>
      </trkpt>
      <trkpt lat="42.8519" lon="1.44398">
        <ele>1843.95</ele>
        <time>2014-09-07T12:10:00Z</time>
      </trkpt>
      <trkpt lat="42.85197" lon="1.44412">
        <ele>1846.35</ele>
        <time>2014-09-07T12:10:17Z</time>
      </trkpt>
      <trkpt lat="42.85202" lon="1.44429">
        <ele>1849.71</ele>
        <time>2014-09-07T12:10:33Z</time>
      </trkpt>
      <trkpt lat="42.85208" lon="1.44436">
        <ele>1850.19</ele>
        <time>2014-09-07T12:10:42Z</time>
      </trkpt>
      <trkpt lat="42.85215" lon="1.44456">
        <ele>1853.08</ele>
        <time>2014-09-07T12:11:02Z</time>
      </trkpt>
      <trkpt lat="42.85216" lon="1.44472">
        <ele>1854.04</ele>
        <time>2014-09-07T12:11:15Z</time>
      </trkpt>
      <trkpt lat="42.85226" lon="1.44485">
        <ele>1856.92</ele>
        <time>2014-09-07T12:11:32Z</time>
      </trkpt>
      <trkpt lat="42.85232" lon="1.44495">
        <ele>1858.37</ele>
        <time>2014-09-07T12:11:45Z</time>
      </trkpt>
      <trkpt lat="42.85238" lon="1.44506">
        <ele>1861.73</ele>
        <time>2014-09-07T12:11:58Z</time>
      </trkpt>
      <trkpt lat="42.8525" lon="1.44518">
        <ele>1863.17</ele>
        <time>2014-09-07T12:12:16Z</time>
      </trkpt>
      <trkpt lat="42.8526" lon="1.44529">
        <ele>1866.54</ele>
        <time>2014-09-07T12:12:33Z</time>
      </trkpt>
      <trkpt lat="42.8526" lon="1.4453">
        <ele>1866.06</ele>
        <time>2014-09-07T12:12:34Z</time>
      </trkpt>
      <trkpt lat="42.85275" lon="1.44536">
        <ele>1867.5</ele>
        <time>2014-09-07T12:12:50Z</time>
      </trkpt>
      <trkpt lat="42.8529" lon="1.44536">
        <ele>1868.46</ele>
        <time>2014-09-07T12:13:05Z</time>
      </trkpt>
      <trkpt lat="42.85303" lon="1.44537">
        <ele>1869.42</ele>
        <time>2014-09-07T12:13:20Z</time>
      </trkpt>
      <trkpt lat="42.8531" lon="1.44539">
        <ele>1871.34</ele>
        <time>2014-09-07T12:13:28Z</time>
      </trkpt>
      <trkpt lat="42.85326" lon="1.44545">
        <ele>1871.34</ele>
        <time>2014-09-07T12:13:44Z</time>
      </trkpt>
      <trkpt lat="42.8534" lon="1.44554">
        <ele>1871.82</ele>
        <time>2014-09-07T12:14:00Z</time>
      </trkpt>
      <trkpt lat="42.85351" lon="1.44561">
        <ele>1872.79</ele>
        <time>2014-09-07T12:14:14Z</time>
      </trkpt>
      <trkpt lat="42.85359" lon="1.44563">
        <ele>1874.23</ele>
        <time>2014-09-07T12:14:22Z</time>
      </trkpt>
      <trkpt lat="42.8537" lon="1.44571">
        <ele>1876.15</ele>
        <time>2014-09-07T12:14:38Z</time>
      </trkpt>
      <trkpt lat="42.85382" lon="1.44581">
        <ele>1879.51</ele>
        <time>2014-09-07T12:14:55Z</time>
      </trkpt>
      <trkpt lat="42.85393" lon="1.44592">
        <ele>1879.51</ele>
        <time>2014-09-07T12:15:10Z</time>
      </trkpt>
      <trkpt lat="42.85399" lon="1.44596">
        <ele>1879.03</ele>
        <time>2014-09-07T12:15:18Z</time>
      </trkpt>
      <trkpt lat="42.85406" lon="1.44603">
        <ele>1877.59</ele>
        <time>2014-09-07T12:15:26Z</time>
      </trkpt>
      <trkpt lat="42.85417" lon="1.44623">
        <ele>1877.59</ele>
        <time>2014-09-07T12:15:43Z</time>
      </trkpt>
      <trkpt lat="42.85421" lon="1.44629">
        <ele>1877.11</ele>
        <time>2014-09-07T12:15:48Z</time>
      </trkpt>
      <trkpt lat="42.85428" lon="1.44644">
        <ele>1877.11</ele>
        <time>2014-09-07T12:16:04Z</time>
      </trkpt>
      <trkpt lat="42.85439" lon="1.44654">
        <ele>1877.11</ele>
        <time>2014-09-07T12:16:20Z</time>
      </trkpt>
      <trkpt lat="42.85451" lon="1.44666">
        <ele>1878.07</ele>
        <time>2014-09-07T12:16:36Z</time>
      </trkpt>
      <trkpt lat="42.8546" lon="1.44678">
        <ele>1878.07</ele>
        <time>2014-09-07T12:16:51Z</time>
      </trkpt>
      <trkpt lat="42.8547" lon="1.44693">
        <ele>1879.51</ele>
        <time>2014-09-07T12:17:07Z</time>
      </trkpt>
      <trkpt lat="42.85481" lon="1.44704">
        <ele>1879.51</ele>
        <time>2014-09-07T12:17:20Z</time>
      </trkpt>
      <trkpt lat="42.85494" lon="1.4472">
        <ele>1881.92</ele>
        <time>2014-09-07T12:17:38Z</time>
      </trkpt>
      <trkpt lat="42.85502" lon="1.44727">
        <ele>1882.4</ele>
        <time>2014-09-07T12:17:48Z</time>
      </trkpt>
      <trkpt lat="42.85508" lon="1.44731">
        <ele>1883.84</ele>
        <time>2014-09-07T12:17:55Z</time>
      </trkpt>
      <trkpt lat="42.8551" lon="1.44734">
        <ele>1883.36</ele>
        <time>2014-09-07T12:17:58Z</time>
      </trkpt>
      <trkpt lat="42.85524" lon="1.44749">
        <ele>1884.8</ele>
        <time>2014-09-07T12:18:17Z</time>
      </trkpt>
      <trkpt lat="42.85529" lon="1.44755">
        <ele>1885.28</ele>
        <time>2014-09-07T12:18:24Z</time>
      </trkpt>
      <trkpt lat="42.85539" lon="1.44771">
        <ele>1885.28</ele>
        <time>2014-09-07T12:18:41Z</time>
      </trkpt>
      <trkpt lat="42.85548" lon="1.44783">
        <ele>1886.24</ele>
        <time>2014-09-07T12:18:57Z</time>
      </trkpt>
      <trkpt lat="42.85562" lon="1.44791">
        <ele>1886.72</ele>
        <time>2014-09-07T12:19:13Z</time>
      </trkpt>
      <trkpt lat="42.85574" lon="1.44799">
        <ele>1887.69</ele>
        <time>2014-09-07T12:19:28Z</time>
      </trkpt>
      <trkpt lat="42.85584" lon="1.44803">
        <ele>1888.17</ele>
        <time>2014-09-07T12:19:39Z</time>
      </trkpt>
      <trkpt lat="42.85597" lon="1.44817">
        <ele>1888.17</ele>
        <time>2014-09-07T12:19:57Z</time>
      </trkpt>
      <trkpt lat="42.85606" lon="1.44827">
        <ele>1887.21</ele>
        <time>2014-09-07T12:20:10Z</time>
      </trkpt>
      <trkpt lat="42.85619" lon="1.44843">
        <ele>1886.72</ele>
        <time>2014-09-07T12:20:28Z</time>
      </trkpt>
      <trkpt lat="42.85621" lon="1.44845">
        <ele>1886.72</ele>
        <time>2014-09-07T12:20:31Z</time>
      </trkpt>
      <trkpt lat="42.85627" lon="1.44855">
        <ele>1887.21</ele>
        <time>2014-09-07T12:20:40Z</time>
      </trkpt>
      <trkpt lat="42.85633" lon="1.4486">
        <ele>1886.72</ele>
        <time>2014-09-07T12:20:47Z</time>
      </trkpt>
      <trkpt lat="42.85637" lon="1.44866">
        <ele>1885.76</ele>
        <time>2014-09-07T12:20:52Z</time>
      </trkpt>
      <trkpt lat="42.85638" lon="1.44869">
        <ele>1886.72</ele>
        <time>2014-09-07T12:20:55Z</time>
      </trkpt>
      <trkpt lat="42.85639" lon="1.4487">
        <ele>1888.17</ele>
        <time>2014-09-07T12:20:57Z</time>
      </trkpt>
      <trkpt lat="42.85651" lon="1.44887">
        <ele>1888.65</ele>
        <time>2014-09-07T12:21:16Z</time>
      </trkpt>
      <trkpt lat="42.85659" lon="1.44893">
        <ele>1891.53</ele>
        <time>2014-09-07T12:21:29Z</time>
      </trkpt>
      <trkpt lat="42.85663" lon="1.44903">
        <ele>1895.38</ele>
        <time>2014-09-07T12:21:45Z</time>
      </trkpt>
      <trkpt lat="42.85667" lon="1.44907">
        <ele>1897.3</ele>
        <time>2014-09-07T12:22:00Z</time>
      </trkpt>
      <trkpt lat="42.8567" lon="1.44915">
        <ele>1898.74</ele>
        <time>2014-09-07T12:22:16Z</time>
      </trkpt>
      <trkpt lat="42.85674" lon="1.44926">
        <ele>1896.34</ele>
        <time>2014-09-07T12:22:30Z</time>
      </trkpt>
      <trkpt lat="42.85686" lon="1.44933">
        <ele>1898.74</ele>
        <time>2014-09-07T12:22:48Z</time>
      </trkpt>
      <trkpt lat="42.85691" lon="1.4494">
        <ele>1901.63</ele>
        <time>2014-09-07T12:23:04Z</time>
      </trkpt>
      <trkpt lat="42.85696" lon="1.44945">
        <ele>1903.55</ele>
        <time>2014-09-07T12:23:20Z</time>
      </trkpt>
      <trkpt lat="42.85702" lon="1.4495">
        <ele>1905.47</ele>
        <time>2014-09-07T12:23:35Z</time>
      </trkpt>
      <trkpt lat="42.8571" lon="1.4496">
        <ele>1907.39</ele>
        <time>2014-09-07T12:23:52Z</time>
      </trkpt>
      <trkpt lat="42.85717" lon="1.44966">
        <ele>1910.28</ele>
        <time>2014-09-07T12:24:09Z</time>
      </trkpt>
      <trkpt lat="42.85725" lon="1.44975">
        <ele>1911.72</ele>
        <time>2014-09-07T12:24:28Z</time>
      </trkpt>
      <trkpt lat="42.85732" lon="1.44982">
        <ele>1915.08</ele>
        <time>2014-09-07T12:24:44Z</time>
      </trkpt>
      <trkpt lat="42.85739" lon="1.44996">
        <ele>1914.12</ele>
        <time>2014-09-07T12:25:00Z</time>
      </trkpt>
      <trkpt lat="42.85747" lon="1.45009">
        <ele>1914.12</ele>
        <time>2014-09-07T12:25:16Z</time>
      </trkpt>
      <trkpt lat="42.85749" lon="1.45016">
        <ele>1914.12</ele>
        <time>2014-09-07T12:25:32Z</time>
      </trkpt>
      <trkpt lat="42.8576" lon="1.45025">
        <ele>1915.56</ele>
        <time>2014-09-07T12:25:50Z</time>
      </trkpt>
      <trkpt lat="42.85769" lon="1.45034">
        <ele>1915.56</ele>
        <time>2014-09-07T12:26:07Z</time>
      </trkpt>
      <trkpt lat="42.85771" lon="1.45038">
        <ele>1917.97</ele>
        <time>2014-09-07T12:26:24Z</time>
      </trkpt>
      <trkpt lat="42.85779" lon="1.45046">
        <ele>1919.41</ele>
        <time>2014-09-07T12:26:40Z</time>
      </trkpt>
      <trkpt lat="42.85789" lon="1.45051">
        <ele>1921.33</ele>
        <time>2014-09-07T12:26:57Z</time>
      </trkpt>
      <trkpt lat="42.85791" lon="1.45055">
        <ele>1921.81</ele>
        <time>2014-09-07T12:27:11Z</time>
      </trkpt>
      <trkpt lat="42.85788" lon="1.45057">
        <ele>1920.37</ele>
        <time>2014-09-07T12:27:28Z</time>
      </trkpt>
      <trkpt lat="42.8579" lon="1.45061">
        <ele>1920.37</ele>
        <time>2014-09-07T12:27:43Z</time>
      </trkpt>
      <trkpt lat="42.85795" lon="1.45069">
        <ele>1919.41</ele>
        <time>2014-09-07T12:27:58Z</time>
      </trkpt>
      <trkpt lat="42.85798" lon="1.45075">
        <ele>1918.93</ele>
        <time>2014-09-07T12:28:13Z</time>
      </trkpt>
      <trkpt lat="42.85801" lon="1.45084">
        <ele>1916.53</ele>
        <time>2014-09-07T12:28:29Z</time>
      </trkpt>
      <trkpt lat="42.85801" lon="1.45085">
        <ele>1915.56</ele>
        <time>2014-09-07T12:28:32Z</time>
      </trkpt>
      <trkpt lat="42.85814" lon="1.45092">
        <ele>1915.56</ele>
        <time>2014-09-07T12:28:49Z</time>
      </trkpt>
      <trkpt lat="42.85817" lon="1.45101">
        <ele>1915.08</ele>
        <time>2014-09-07T12:29:06Z</time>
      </trkpt>
      <trkpt lat="42.85824" lon="1.45109">
        <ele>1918.45</ele>
        <time>2014-09-07T12:29:21Z</time>
      </trkpt>
      <trkpt lat="42.85832" lon="1.45113">
        <ele>1917.97</ele>
        <time>2014-09-07T12:29:33Z</time>
      </trkpt>
      <trkpt lat="42.85844" lon="1.45116">
        <ele>1918.93</ele>
        <time>2014-09-07T12:29:49Z</time>
      </trkpt>
      <trkpt lat="42.85855" lon="1.45121">
        <ele>1921.33</ele>
        <time>2014-09-07T12:30:09Z</time>
      </trkpt>
      <trkpt lat="42.85863" lon="1.45119">
        <ele>1924.7</ele>
        <time>2014-09-07T12:30:22Z</time>
      </trkpt>
      <trkpt lat="42.85872" lon="1.45119">
        <ele>1927.1</ele>
        <time>2014-09-07T12:30:39Z</time>
      </trkpt>
      <trkpt lat="42.85882" lon="1.45117">
        <ele>1929.5</ele>
        <time>2014-09-07T12:31:01Z</time>
      </trkpt>
      <trkpt lat="42.85889" lon="1.45117">
        <ele>1932.39</ele>
        <time>2014-09-07T12:31:20Z</time>
      </trkpt>
      <trkpt lat="42.85895" lon="1.45117">
        <ele>1934.31</ele>
        <time>2014-09-07T12:31:38Z</time>
      </trkpt>
      <trkpt lat="42.85898" lon="1.45112">
        <ele>1936.23</ele>
        <time>2014-09-07T12:31:53Z</time>
      </trkpt>
      <trkpt lat="42.859" lon="1.45112">
        <ele>1939.6</ele>
        <time>2014-09-07T12:32:08Z</time>
      </trkpt>
      <trkpt lat="42.85905" lon="1.45114">
        <ele>1939.12</ele>
        <time>2014-09-07T12:32:26Z</time>
      </trkpt>
      <trkpt lat="42.85911" lon="1.45117">
        <ele>1940.56</ele>
        <time>2014-09-07T12:32:45Z</time>
      </trkpt>
      <trkpt lat="42.85907" lon="1.45115">
        <ele>1939.6</ele>
        <time>2014-09-07T12:33:08Z</time>
      </trkpt>
      <trkpt lat="42.85905" lon="1.45118">
        <ele>1940.08</ele>
        <time>2014-09-07T12:33:30Z</time>
      </trkpt>
      <trkpt lat="42.85912" lon="1.4512">
        <ele>1939.6</ele>
        <time>2014-09-07T12:33:45Z</time>
      </trkpt>
      <trkpt lat="42.85912" lon="1.4512">
        <ele>1938.64</ele>
        <time>2014-09-07T12:34:10Z</time>
      </trkpt>
      <trkpt lat="42.85914" lon="1.45121">
        <ele>1938.16</ele>
        <time>2014-09-07T12:34:24Z</time>
      </trkpt>
      <trkpt lat="42.85913" lon="1.45123">
        <ele>1936.23</ele>
        <time>2014-09-07T12:34:38Z</time>
      </trkpt>
      <trkpt lat="42.85916" lon="1.45128">
        <ele>1934.79</ele>
        <time>2014-09-07T12:34:58Z</time>
      </trkpt>
      <trkpt lat="42.85916" lon="1.45133">
        <ele>1932.39</ele>
        <time>2014-09-07T12:35:06Z</time>
      </trkpt>
      <trkpt lat="42.85922" lon="1.45139">
        <ele>1930.95</ele>
        <time>2014-09-07T12:35:20Z</time>
      </trkpt>
      <trkpt lat="42.85922" lon="1.4515">
        <ele>1928.54</ele>
        <time>2014-09-07T12:35:34Z</time>
      </trkpt>
      <trkpt lat="42.85918" lon="1.45157">
        <ele>1926.62</ele>
        <time>2014-09-07T12:35:52Z</time>
      </trkpt>
      <trkpt lat="42.85915" lon="1.4516">
        <ele>1924.7</ele>
        <time>2014-09-07T12:36:14Z</time>
      </trkpt>
      <trkpt lat="42.85917" lon="1.45164">
        <ele>1921.81</ele>
        <time>2014-09-07T12:36:34Z</time>
      </trkpt>
      <trkpt lat="42.85913" lon="1.4517">
        <ele>1919.41</ele>
        <time>2014-09-07T12:36:51Z</time>
      </trkpt>
      <trkpt lat="42.85912" lon="1.45165">
        <ele>1917.97</ele>
        <time>2014-09-07T12:37:09Z</time>
      </trkpt>
      <trkpt lat="42.85905" lon="1.45161">
        <ele>1915.08</ele>
        <time>2014-09-07T12:37:23Z</time>
      </trkpt>
      <trkpt lat="42.859" lon="1.4516">
        <ele>1911.72</ele>
        <time>2014-09-07T12:37:36Z</time>
      </trkpt>
      <trkpt lat="42.85893" lon="1.45158">
        <ele>1908.35</ele>
        <time>2014-09-07T12:37:52Z</time>
      </trkpt>
      <trkpt lat="42.85891" lon="1.45163">
        <ele>1906.43</ele>
        <time>2014-09-07T12:38:07Z</time>
      </trkpt>
      <trkpt lat="42.85887" lon="1.45166">
        <ele>1903.07</ele>
        <time>2014-09-07T12:38:18Z</time>
      </trkpt>
      <trkpt lat="42.85884" lon="1.45169">
        <ele>1901.14</ele>
        <time>2014-09-07T12:38:34Z</time>
      </trkpt>
      <trkpt lat="42.8588" lon="1.45173">
        <ele>1898.26</ele>
        <time>2014-09-07T12:38:50Z</time>
      </trkpt>
      <trkpt lat="42.85879" lon="1.45176">
        <ele>1896.34</ele>
        <time>2014-09-07T12:39:08Z</time>
      </trkpt>
      <trkpt lat="42.85877" lon="1.45182">
        <ele>1893.93</ele>
        <time>2014-09-07T12:39:23Z</time>
      </trkpt>
      <trkpt lat="42.85878" lon="1.45183">
        <ele>1891.53</ele>
        <time>2014-09-07T12:39:40Z</time>
      </trkpt>
      <trkpt lat="42.85875" lon="1.45193">
        <ele>1888.17</ele>
        <time>2014-09-07T12:39:56Z</time>
      </trkpt>
      <trkpt lat="42.85873" lon="1.45197">
        <ele>1885.28</ele>
        <time>2014-09-07T12:40:09Z</time>
      </trkpt>
      <trkpt lat="42.85869" lon="1.45205">
        <ele>1881.44</ele>
        <time>2014-09-07T12:40:25Z</time>
      </trkpt>
      <trkpt lat="42.85868" lon="1.45208">
        <ele>1880</ele>
        <time>2014-09-07T12:40:30Z</time>
      </trkpt>
      <trkpt lat="42.85866" lon="1.45211">
        <ele>1878.55</ele>
        <time>2014-09-07T12:40:35Z</time>
      </trkpt>
      <trkpt lat="42.85864" lon="1.45217">
        <ele>1876.63</ele>
        <time>2014-09-07T12:40:42Z</time>
      </trkpt>
      <trkpt lat="42.85863" lon="1.45221">
        <ele>1875.19</ele>
        <time>2014-09-07T12:40:46Z</time>
      </trkpt>
      <trkpt lat="42.8585" lon="1.45226">
        <ele>1872.79</ele>
        <time>2014-09-07T12:41:06Z</time>
      </trkpt>
      <trkpt lat="42.85842" lon="1.45228">
        <ele>1870.38</ele>
        <time>2014-09-07T12:41:23Z</time>
      </trkpt>
      <trkpt lat="42.8584" lon="1.45223">
        <ele>1870.86</ele>
        <time>2014-09-07T12:41:48Z</time>
      </trkpt>
      <trkpt lat="42.85847" lon="1.45233">
        <ele>1868.46</ele>
        <time>2014-09-07T12:42:06Z</time>
      </trkpt>
      <trkpt lat="42.85851" lon="1.45239">
        <ele>1865.09</ele>
        <time>2014-09-07T12:42:22Z</time>
      </trkpt>
      <trkpt lat="42.85852" lon="1.45248">
        <ele>1862.69</ele>
        <time>2014-09-07T12:42:37Z</time>
      </trkpt>
      <trkpt lat="42.85852" lon="1.45257">
        <ele>1858.85</ele>
        <time>2014-09-07T12:42:54Z</time>
      </trkpt>
      <trkpt lat="42.8585" lon="1.45263">
        <ele>1855.96</ele>
        <time>2014-09-07T12:43:09Z</time>
      </trkpt>
      <trkpt lat="42.8585" lon="1.45269">
        <ele>1854.04</ele>
        <time>2014-09-07T12:43:28Z</time>
      </trkpt>
      <trkpt lat="42.8585" lon="1.4527">
        <ele>1852.12</ele>
        <time>2014-09-07T12:43:48Z</time>
      </trkpt>
      <trkpt lat="42.8585" lon="1.45272">
        <ele>1851.64</ele>
        <time>2014-09-07T12:44:10Z</time>
      </trkpt>
      <trkpt lat="42.85851" lon="1.45272">
        <ele>1850.19</ele>
        <time>2014-09-07T12:44:31Z</time>
      </trkpt>
      <trkpt lat="42.85848" lon="1.45277">
        <ele>1848.27</ele>
        <time>2014-09-07T12:44:52Z</time>
      </trkpt>
      <trkpt lat="42.85846" lon="1.45275">
        <ele>1847.31</ele>
        <time>2014-09-07T12:45:12Z</time>
      </trkpt>
      <trkpt lat="42.85845" lon="1.45275">
        <ele>1846.35</ele>
        <time>2014-09-07T12:45:20Z</time>
      </trkpt>
      <trkpt lat="42.85844" lon="1.45279">
        <ele>1844.43</ele>
        <time>2014-09-07T12:45:37Z</time>
      </trkpt>
      <trkpt lat="42.85839" lon="1.45283">
        <ele>1841.06</ele>
        <time>2014-09-07T12:45:50Z</time>
      </trkpt>
      <trkpt lat="42.85835" lon="1.45285">
        <ele>1839.14</ele>
        <time>2014-09-07T12:45:56Z</time>
      </trkpt>
      <trkpt lat="42.85828" lon="1.45284">
        <ele>1837.22</ele>
        <time>2014-09-07T12:46:02Z</time>
      </trkpt>
      <trkpt lat="42.85809" lon="1.45284">
        <ele>1838.66</ele>
        <time>2014-09-07T12:46:20Z</time>
      </trkpt>
      <trkpt lat="42.85793" lon="1.45283">
        <ele>1841.06</ele>
        <time>2014-09-07T12:46:36Z</time>
      </trkpt>
      <trkpt lat="42.85776" lon="1.45282">
        <ele>1840.1</ele>
        <time>2014-09-07T12:46:55Z</time>
      </trkpt>
      <trkpt lat="42.85763" lon="1.45283">
        <ele>1836.74</ele>
        <time>2014-09-07T12:47:08Z</time>
      </trkpt>
      <trkpt lat="42.85744" lon="1.45286">
        <ele>1838.18</ele>
        <time>2014-09-07T12:47:27Z</time>
      </trkpt>
      <trkpt lat="42.85728" lon="1.4529">
        <ele>1837.22</ele>
        <time>2014-09-07T12:47:43Z</time>
      </trkpt>
      <trkpt lat="42.85724" lon="1.45292">
        <ele>1836.74</ele>
        <time>2014-09-07T12:47:47Z</time>
      </trkpt>
      <trkpt lat="42.85708" lon="1.45309">
        <ele>1834.81</ele>
        <time>2014-09-07T12:48:05Z</time>
      </trkpt>
      <trkpt lat="42.85701" lon="1.45316">
        <ele>1835.77</ele>
        <time>2014-09-07T12:48:14Z</time>
      </trkpt>
      <trkpt lat="42.85684" lon="1.45328">
        <ele>1836.26</ele>
        <time>2014-09-07T12:48:32Z</time>
      </trkpt>
      <trkpt lat="42.85672" lon="1.45336">
        <ele>1836.26</ele>
        <time>2014-09-07T12:48:47Z</time>
      </trkpt>
      <trkpt lat="42.85658" lon="1.45345">
        <ele>1836.74</ele>
        <time>2014-09-07T12:49:06Z</time>
      </trkpt>
      <trkpt lat="42.85653" lon="1.45347">
        <ele>1835.29</ele>
        <time>2014-09-07T12:49:12Z</time>
      </trkpt>
      <trkpt lat="42.85639" lon="1.45349">
        <ele>1834.33</ele>
        <time>2014-09-07T12:49:24Z</time>
      </trkpt>
      <trkpt lat="42.85637" lon="1.45351">
        <ele>1833.85</ele>
        <time>2014-09-07T12:49:26Z</time>
      </trkpt>
      <trkpt lat="42.85627" lon="1.4536">
        <ele>1831.93</ele>
        <time>2014-09-07T12:49:38Z</time>
      </trkpt>
      <trkpt lat="42.85623" lon="1.45361">
        <ele>1831.93</ele>
        <time>2014-09-07T12:49:42Z</time>
      </trkpt>
      <trkpt lat="42.85619" lon="1.45364">
        <ele>1830.49</ele>
        <time>2014-09-07T12:49:46Z</time>
      </trkpt>
      <trkpt lat="42.85605" lon="1.45377">
        <ele>1829.05</ele>
        <time>2014-09-07T12:50:03Z</time>
      </trkpt>
      <trkpt lat="42.85596" lon="1.45384">
        <ele>1829.53</ele>
        <time>2014-09-07T12:50:17Z</time>
      </trkpt>
      <trkpt lat="42.85583" lon="1.45396">
        <ele>1829.05</ele>
        <time>2014-09-07T12:50:35Z</time>
      </trkpt>
      <trkpt lat="42.85574" lon="1.45404">
        <ele>1828.08</ele>
        <time>2014-09-07T12:50:48Z</time>
      </trkpt>
      <trkpt lat="42.8557" lon="1.4541">
        <ele>1827.6</ele>
        <time>2014-09-07T12:50:57Z</time>
      </trkpt>
      <trkpt lat="42.85557" lon="1.4543">
        <ele>1824.72</ele>
        <time>2014-09-07T12:51:15Z</time>
      </trkpt>
      <trkpt lat="42.85551" lon="1.45444">
        <ele>1823.28</ele>
        <time>2014-09-07T12:51:26Z</time>
      </trkpt>
      <trkpt lat="42.8555" lon="1.4545">
        <ele>1823.76</ele>
        <time>2014-09-07T12:51:30Z</time>
      </trkpt>
      <trkpt lat="42.85543" lon="1.45474">
        <ele>1823.28</ele>
        <time>2014-09-07T12:51:47Z</time>
      </trkpt>
      <trkpt lat="42.85536" lon="1.45492">
        <ele>1822.8</ele>
        <time>2014-09-07T12:52:04Z</time>
      </trkpt>
      <trkpt lat="42.85528" lon="1.45495">
        <ele>1821.84</ele>
        <time>2014-09-07T12:52:12Z</time>
      </trkpt>
      <trkpt lat="42.85523" lon="1.45495">
        <ele>1822.8</ele>
        <time>2014-09-07T12:52:17Z</time>
      </trkpt>
      <trkpt lat="42.85512" lon="1.45504">
        <ele>1823.28</ele>
        <time>2014-09-07T12:52:28Z</time>
      </trkpt>
      <trkpt lat="42.85502" lon="1.45513">
        <ele>1827.12</ele>
        <time>2014-09-07T12:52:45Z</time>
      </trkpt>
      <trkpt lat="42.85496" lon="1.45521">
        <ele>1830.01</ele>
        <time>2014-09-07T12:53:01Z</time>
      </trkpt>
      <trkpt lat="42.85492" lon="1.45524">
        <ele>1830.97</ele>
        <time>2014-09-07T12:53:14Z</time>
      </trkpt>
      <trkpt lat="42.85487" lon="1.45527">
        <ele>1833.85</ele>
        <time>2014-09-07T12:53:27Z</time>
      </trkpt>
      <trkpt lat="42.85481" lon="1.45536">
        <ele>1835.77</ele>
        <time>2014-09-07T12:53:47Z</time>
      </trkpt>
      <trkpt lat="42.85477" lon="1.45545">
        <ele>1838.66</ele>
        <time>2014-09-07T12:54:05Z</time>
      </trkpt>
      <trkpt lat="42.85474" lon="1.45553">
        <ele>1839.62</ele>
        <time>2014-09-07T12:54:22Z</time>
      </trkpt>
      <trkpt lat="42.85472" lon="1.45557">
        <ele>1842.5</ele>
        <time>2014-09-07T12:54:35Z</time>
      </trkpt>
      <trkpt lat="42.85466" lon="1.45566">
        <ele>1846.35</ele>
        <time>2014-09-07T12:54:51Z</time>
      </trkpt>
      <trkpt lat="42.85461" lon="1.45579">
        <ele>1845.87</ele>
        <time>2014-09-07T12:55:08Z</time>
      </trkpt>
      <trkpt lat="42.85456" lon="1.45592">
        <ele>1848.75</ele>
        <time>2014-09-07T12:55:27Z</time>
      </trkpt>
      <trkpt lat="42.85451" lon="1.45605">
        <ele>1850.68</ele>
        <time>2014-09-07T12:55:45Z</time>
      </trkpt>
      <trkpt lat="42.85449" lon="1.45617">
        <ele>1852.6</ele>
        <time>2014-09-07T12:56:00Z</time>
      </trkpt>
      <trkpt lat="42.85449" lon="1.45627">
        <ele>1850.68</ele>
        <time>2014-09-07T12:56:15Z</time>
      </trkpt>
      <trkpt lat="42.85446" lon="1.45641">
        <ele>1850.68</ele>
        <time>2014-09-07T12:56:30Z</time>
      </trkpt>
      <trkpt lat="42.85443" lon="1.45652">
        <ele>1851.64</ele>
        <time>2014-09-07T12:56:45Z</time>
      </trkpt>
      <trkpt lat="42.85439" lon="1.45663">
        <ele>1853.08</ele>
        <time>2014-09-07T12:56:57Z</time>
      </trkpt>
      <trkpt lat="42.85437" lon="1.45668">
        <ele>1852.12</ele>
        <time>2014-09-07T12:57:02Z</time>
      </trkpt>
      <trkpt lat="42.85429" lon="1.45683">
        <ele>1852.6</ele>
        <time>2014-09-07T12:57:18Z</time>
      </trkpt>
      <trkpt lat="42.85422" lon="1.45701">
        <ele>1852.12</ele>
        <time>2014-09-07T12:57:35Z</time>
      </trkpt>
      <trkpt lat="42.85414" lon="1.45712">
        <ele>1849.23</ele>
        <time>2014-09-07T12:57:52Z</time>
      </trkpt>
      <trkpt lat="42.8541" lon="1.45724">
        <ele>1846.35</ele>
        <time>2014-09-07T12:58:06Z</time>
      </trkpt>
      <trkpt lat="42.85409" lon="1.45727">
        <ele>1846.83</ele>
        <time>2014-09-07T12:58:13Z</time>
      </trkpt>
      <trkpt lat="42.85401" lon="1.45744">
        <ele>1846.83</ele>
        <time>2014-09-07T12:58:29Z</time>
      </trkpt>
      <trkpt lat="42.85398" lon="1.45754">
        <ele>1849.23</ele>
        <time>2014-09-07T12:58:40Z</time>
      </trkpt>
      <trkpt lat="42.85392" lon="1.45765">
        <ele>1849.23</ele>
        <time>2014-09-07T12:58:55Z</time>
      </trkpt>
      <trkpt lat="42.8539" lon="1.45767">
        <ele>1849.23</ele>
        <time>2014-09-07T12:58:58Z</time>
      </trkpt>
      <trkpt lat="42.85383" lon="1.45785">
        <ele>1850.68</ele>
        <time>2014-09-07T12:59:16Z</time>
      </trkpt>
      <trkpt lat="42.85379" lon="1.45799">
        <ele>1851.64</ele>
        <time>2014-09-07T12:59:32Z</time>
      </trkpt>
      <trkpt lat="42.85374" lon="1.45818">
        <ele>1853.08</ele>
        <time>2014-09-07T12:59:51Z</time>
      </trkpt>
      <trkpt lat="42.85373" lon="1.45834">
        <ele>1855.48</ele>
        <time>2014-09-07T13:00:10Z</time>
      </trkpt>
      <trkpt lat="42.85373" lon="1.45841">
        <ele>1858.37</ele>
        <time>2014-09-07T13:00:21Z</time>
      </trkpt>
      <trkpt lat="42.85371" lon="1.45849">
        <ele>1858.85</ele>
        <time>2014-09-07T13:00:42Z</time>
      </trkpt>
      <trkpt lat="42.8537" lon="1.45858">
        <ele>1861.73</ele>
        <time>2014-09-07T13:01:00Z</time>
      </trkpt>
      <trkpt lat="42.85369" lon="1.4587">
        <ele>1865.09</ele>
        <time>2014-09-07T13:01:18Z</time>
      </trkpt>
      <trkpt lat="42.85366" lon="1.45879">
        <ele>1866.54</ele>
        <time>2014-09-07T13:01:34Z</time>
      </trkpt>
      <trkpt lat="42.85363" lon="1.45891">
        <ele>1869.9</ele>
        <time>2014-09-07T13:01:54Z</time>
      </trkpt>
      <trkpt lat="42.85361" lon="1.45898">
        <ele>1872.79</ele>
        <time>2014-09-07T13:02:11Z</time>
      </trkpt>
      <trkpt lat="42.85361" lon="1.45908">
        <ele>1874.23</ele>
        <time>2014-09-07T13:02:26Z</time>
      </trkpt>
      <trkpt lat="42.8536" lon="1.45917">
        <ele>1876.15</ele>
        <time>2014-09-07T13:02:43Z</time>
      </trkpt>
      <trkpt lat="42.85358" lon="1.45926">
        <ele>1879.03</ele>
        <time>2014-09-07T13:02:58Z</time>
      </trkpt>
      <trkpt lat="42.85356" lon="1.45938">
        <ele>1880.96</ele>
        <time>2014-09-07T13:03:20Z</time>
      </trkpt>
      <trkpt lat="42.85356" lon="1.45945">
        <ele>1884.32</ele>
        <time>2014-09-07T13:03:35Z</time>
      </trkpt>
      <trkpt lat="42.85355" lon="1.45953">
        <ele>1886.24</ele>
        <time>2014-09-07T13:03:51Z</time>
      </trkpt>
      <trkpt lat="42.85354" lon="1.45962">
        <ele>1889.13</ele>
        <time>2014-09-07T13:04:06Z</time>
      </trkpt>
      <trkpt lat="42.85355" lon="1.45969">
        <ele>1892.49</ele>
        <time>2014-09-07T13:04:20Z</time>
      </trkpt>
      <trkpt lat="42.85354" lon="1.45974">
        <ele>1893.93</ele>
        <time>2014-09-07T13:04:38Z</time>
      </trkpt>
      <trkpt lat="42.85354" lon="1.45982">
        <ele>1897.3</ele>
        <time>2014-09-07T13:04:57Z</time>
      </trkpt>
      <trkpt lat="42.85355" lon="1.45991">
        <ele>1899.7</ele>
        <time>2014-09-07T13:05:16Z</time>
      </trkpt>
      <trkpt lat="42.85356" lon="1.45999">
        <ele>1902.59</ele>
        <time>2014-09-07T13:05:32Z</time>
      </trkpt>
      <trkpt lat="42.85356" lon="1.46008">
        <ele>1905.47</ele>
        <time>2014-09-07T13:05:53Z</time>
      </trkpt>
      <trkpt lat="42.85356" lon="1.46017">
        <ele>1908.35</ele>
        <time>2014-09-07T13:06:12Z</time>
      </trkpt>
      <trkpt lat="42.85357" lon="1.46025">
        <ele>1911.72</ele>
        <time>2014-09-07T13:06:29Z</time>
      </trkpt>
      <trkpt lat="42.85358" lon="1.46034">
        <ele>1913.16</ele>
        <time>2014-09-07T13:06:44Z</time>
      </trkpt>
      <trkpt lat="42.85359" lon="1.4604">
        <ele>1914.6</ele>
        <time>2014-09-07T13:06:59Z</time>
      </trkpt>
      <trkpt lat="42.85362" lon="1.46048">
        <ele>1917.49</ele>
        <time>2014-09-07T13:07:20Z</time>
      </trkpt>
      <trkpt lat="42.85364" lon="1.46054">
        <ele>1920.85</ele>
        <time>2014-09-07T13:07:38Z</time>
      </trkpt>
      <trkpt lat="42.85364" lon="1.46062">
        <ele>1923.25</ele>
        <time>2014-09-07T13:07:57Z</time>
      </trkpt>
      <trkpt lat="42.85366" lon="1.46072">
        <ele>1926.62</ele>
        <time>2014-09-07T13:08:17Z</time>
      </trkpt>
      <trkpt lat="42.85362" lon="1.46085">
        <ele>1928.06</ele>
        <time>2014-09-07T13:08:35Z</time>
      </trkpt>
      <trkpt lat="42.85358" lon="1.461">
        <ele>1930.95</ele>
        <time>2014-09-07T13:08:54Z</time>
      </trkpt>
      <trkpt lat="42.85357" lon="1.46116">
        <ele>1933.35</ele>
        <time>2014-09-07T13:09:12Z</time>
      </trkpt>
      <trkpt lat="42.85359" lon="1.46131">
        <ele>1934.31</ele>
        <time>2014-09-07T13:09:28Z</time>
      </trkpt>
      <trkpt lat="42.85359" lon="1.4614">
        <ele>1934.79</ele>
        <time>2014-09-07T13:09:43Z</time>
      </trkpt>
      <trkpt lat="42.8536" lon="1.46142">
        <ele>1935.27</ele>
        <time>2014-09-07T13:09:46Z</time>
      </trkpt>
      <trkpt lat="42.85366" lon="1.46155">
        <ele>1936.71</ele>
        <time>2014-09-07T13:10:02Z</time>
      </trkpt>
      <trkpt lat="42.85372" lon="1.46168">
        <ele>1937.67</ele>
        <time>2014-09-07T13:10:17Z</time>
      </trkpt>
      <trkpt lat="42.8538" lon="1.46178">
        <ele>1939.12</ele>
        <time>2014-09-07T13:10:31Z</time>
      </trkpt>
      <trkpt lat="42.85389" lon="1.46182">
        <ele>1941.04</ele>
        <time>2014-09-07T13:10:46Z</time>
      </trkpt>
      <trkpt lat="42.85397" lon="1.46183">
        <ele>1941.52</ele>
        <time>2014-09-07T13:11:00Z</time>
      </trkpt>
      <trkpt lat="42.85403" lon="1.4619">
        <ele>1943.44</ele>
        <time>2014-09-07T13:11:16Z</time>
      </trkpt>
      <trkpt lat="42.8541" lon="1.46199">
        <ele>1941.52</ele>
        <time>2014-09-07T13:11:31Z</time>
      </trkpt>
      <trkpt lat="42.85411" lon="1.46199">
        <ele>1941.04</ele>
        <time>2014-09-07T13:11:32Z</time>
      </trkpt>
      <trkpt lat="42.85413" lon="1.46209">
        <ele>1940.56</ele>
        <time>2014-09-07T13:11:41Z</time>
      </trkpt>
      <trkpt lat="42.85422" lon="1.46216">
        <ele>1942.48</ele>
        <time>2014-09-07T13:11:56Z</time>
      </trkpt>
      <trkpt lat="42.85419" lon="1.46215">
        <ele>1942</ele>
        <time>2014-09-07T13:12:15Z</time>
      </trkpt>
      <trkpt lat="42.8542" lon="1.46216">
        <ele>1942</ele>
        <time>2014-09-07T13:12:37Z</time>
      </trkpt>
      <trkpt lat="42.8542" lon="1.46217">
        <ele>1942</ele>
        <time>2014-09-07T13:13:02Z</time>
      </trkpt>
      <trkpt lat="42.85417" lon="1.46211">
        <ele>1942</ele>
        <time>2014-09-07T13:13:22Z</time>
      </trkpt>
      <trkpt lat="42.85415" lon="1.46206">
        <ele>1942</ele>
        <time>2014-09-07T13:13:27Z</time>
      </trkpt>
      <trkpt lat="42.85404" lon="1.46203">
        <ele>1939.6</ele>
        <time>2014-09-07T13:13:41Z</time>
      </trkpt>
      <trkpt lat="42.8539" lon="1.46198">
        <ele>1939.6</ele>
        <time>2014-09-07T13:13:55Z</time>
      </trkpt>
      <trkpt lat="42.85382" lon="1.46189">
        <ele>1939.6</ele>
        <time>2014-09-07T13:14:09Z</time>
      </trkpt>
      <trkpt lat="42.85382" lon="1.46183">
        <ele>1938.64</ele>
        <time>2014-09-07T13:14:14Z</time>
      </trkpt>
      <trkpt lat="42.85376" lon="1.46171">
        <ele>1938.64</ele>
        <time>2014-09-07T13:14:25Z</time>
      </trkpt>
      <trkpt lat="42.85369" lon="1.46166">
        <ele>1938.64</ele>
        <time>2014-09-07T13:14:33Z</time>
      </trkpt>
      <trkpt lat="42.85359" lon="1.46158">
        <ele>1937.19</ele>
        <time>2014-09-07T13:14:44Z</time>
      </trkpt>
      <trkpt lat="42.85349" lon="1.46144">
        <ele>1935.27</ele>
        <time>2014-09-07T13:15:00Z</time>
      </trkpt>
      <trkpt lat="42.85342" lon="1.46132">
        <ele>1932.87</ele>
        <time>2014-09-07T13:15:15Z</time>
      </trkpt>
      <trkpt lat="42.85336" lon="1.46121">
        <ele>1930.46</ele>
        <time>2014-09-07T13:15:31Z</time>
      </trkpt>
      <trkpt lat="42.85329" lon="1.46115">
        <ele>1927.1</ele>
        <time>2014-09-07T13:15:43Z</time>
      </trkpt>
      <trkpt lat="42.85317" lon="1.46113">
        <ele>1924.22</ele>
        <time>2014-09-07T13:15:58Z</time>
      </trkpt>
      <trkpt lat="42.85311" lon="1.46111">
        <ele>1922.77</ele>
        <time>2014-09-07T13:16:05Z</time>
      </trkpt>
      <trkpt lat="42.85309" lon="1.46109">
        <ele>1921.33</ele>
        <time>2014-09-07T13:16:09Z</time>
      </trkpt>
      <trkpt lat="42.85296" lon="1.46108">
        <ele>1918.93</ele>
        <time>2014-09-07T13:16:26Z</time>
      </trkpt>
      <trkpt lat="42.85284" lon="1.46105">
        <ele>1916.04</ele>
        <time>2014-09-07T13:16:40Z</time>
      </trkpt>
      <trkpt lat="42.85274" lon="1.46101">
        <ele>1912.68</ele>
        <time>2014-09-07T13:16:54Z</time>
      </trkpt>
      <trkpt lat="42.85266" lon="1.46099">
        <ele>1910.76</ele>
        <time>2014-09-07T13:17:05Z</time>
      </trkpt>
      <trkpt lat="42.85265" lon="1.46099">
        <ele>1909.8</ele>
        <time>2014-09-07T13:17:07Z</time>
      </trkpt>
      <trkpt lat="42.85255" lon="1.46099">
        <ele>1907.39</ele>
        <time>2014-09-07T13:17:22Z</time>
      </trkpt>
      <trkpt lat="42.85247" lon="1.46095">
        <ele>1904.03</ele>
        <time>2014-09-07T13:17:36Z</time>
      </trkpt>
      <trkpt lat="42.85236" lon="1.46094">
        <ele>1902.11</ele>
        <time>2014-09-07T13:17:52Z</time>
      </trkpt>
      <trkpt lat="42.85234" lon="1.46093">
        <ele>1901.63</ele>
        <time>2014-09-07T13:17:57Z</time>
      </trkpt>
      <trkpt lat="42.85227" lon="1.46091">
        <ele>1897.78</ele>
        <time>2014-09-07T13:18:07Z</time>
      </trkpt>
      <trkpt lat="42.85218" lon="1.46089">
        <ele>1894.9</ele>
        <time>2014-09-07T13:18:22Z</time>
      </trkpt>
      <trkpt lat="42.85212" lon="1.46085">
        <ele>1892.97</ele>
        <time>2014-09-07T13:18:38Z</time>
      </trkpt>
      <trkpt lat="42.85212" lon="1.46085">
        <ele>1892.49</ele>
        <time>2014-09-07T13:18:40Z</time>
      </trkpt>
      <trkpt lat="42.85207" lon="1.46086">
        <ele>1892.01</ele>
        <time>2014-09-07T13:19:01Z</time>
      </trkpt>
      <trkpt lat="42.85201" lon="1.46083">
        <ele>1888.17</ele>
        <time>2014-09-07T13:19:11Z</time>
      </trkpt>
      <trkpt lat="42.85194" lon="1.46079">
        <ele>1885.28</ele>
        <time>2014-09-07T13:19:24Z</time>
      </trkpt>
      <trkpt lat="42.85189" lon="1.4608">
        <ele>1881.92</ele>
        <time>2014-09-07T13:19:36Z</time>
      </trkpt>
      <trkpt lat="42.8518" lon="1.46077">
        <ele>1879.03</ele>
        <time>2014-09-07T13:19:51Z</time>
      </trkpt>
      <trkpt lat="42.85172" lon="1.46073">
        <ele>1875.67</ele>
        <time>2014-09-07T13:20:06Z</time>
      </trkpt>
      <trkpt lat="42.85167" lon="1.46071">
        <ele>1873.75</ele>
        <time>2014-09-07T13:20:13Z</time>
      </trkpt>
      <trkpt lat="42.85163" lon="1.4607">
        <ele>1872.3</ele>
        <time>2014-09-07T13:20:19Z</time>
      </trkpt>
      <trkpt lat="42.85155" lon="1.46065">
        <ele>1867.98</ele>
        <time>2014-09-07T13:20:33Z</time>
      </trkpt>
      <trkpt lat="42.85154" lon="1.46065">
        <ele>1867.98</ele>
        <time>2014-09-07T13:20:34Z</time>
      </trkpt>
      <trkpt lat="42.85148" lon="1.46064">
        <ele>1866.06</ele>
        <time>2014-09-07T13:20:44Z</time>
      </trkpt>
      <trkpt lat="42.85137" lon="1.46065">
        <ele>1863.17</ele>
        <time>2014-09-07T13:20:59Z</time>
      </trkpt>
      <trkpt lat="42.85127" lon="1.46064">
        <ele>1860.29</ele>
        <time>2014-09-07T13:21:15Z</time>
      </trkpt>
      <trkpt lat="42.85117" lon="1.46063">
        <ele>1856.92</ele>
        <time>2014-09-07T13:21:28Z</time>
      </trkpt>
      <trkpt lat="42.85116" lon="1.46063">
        <ele>1856.44</ele>
        <time>2014-09-07T13:21:29Z</time>
      </trkpt>
      <trkpt lat="42.85108" lon="1.4606">
        <ele>1855.48</ele>
        <time>2014-09-07T13:21:43Z</time>
      </trkpt>
      <trkpt lat="42.85101" lon="1.46057">
        <ele>1851.64</ele>
        <time>2014-09-07T13:21:57Z</time>
      </trkpt>
      <trkpt lat="42.85095" lon="1.46052">
        <ele>1848.75</ele>
        <time>2014-09-07T13:22:10Z</time>
      </trkpt>
      <trkpt lat="42.85086" lon="1.46047">
        <ele>1845.87</ele>
        <time>2014-09-07T13:22:25Z</time>
      </trkpt>
      <trkpt lat="42.85078" lon="1.46045">
        <ele>1842.5</ele>
        <time>2014-09-07T13:22:38Z</time>
      </trkpt>
      <trkpt lat="42.85072" lon="1.46042">
        <ele>1841.06</ele>
        <time>2014-09-07T13:22:53Z</time>
      </trkpt>
      <trkpt lat="42.85065" lon="1.4604">
        <ele>1838.18</ele>
        <time>2014-09-07T13:23:04Z</time>
      </trkpt>
      <trkpt lat="42.85058" lon="1.46033">
        <ele>1835.77</ele>
        <time>2014-09-07T13:23:20Z</time>
      </trkpt>
      <trkpt lat="42.85054" lon="1.46029">
        <ele>1832.41</ele>
        <time>2014-09-07T13:23:31Z</time>
      </trkpt>
      <trkpt lat="42.85045" lon="1.46025">
        <ele>1830.01</ele>
        <time>2014-09-07T13:23:49Z</time>
      </trkpt>
      <trkpt lat="42.85039" lon="1.46019">
        <ele>1826.64</ele>
        <time>2014-09-07T13:24:05Z</time>
      </trkpt>
      <trkpt lat="42.85038" lon="1.46019">
        <ele>1826.64</ele>
        <time>2014-09-07T13:24:06Z</time>
      </trkpt>
      <trkpt lat="42.85033" lon="1.46015">
        <ele>1824.24</ele>
        <time>2014-09-07T13:24:16Z</time>
      </trkpt>
      <trkpt lat="42.85027" lon="1.46009">
        <ele>1820.39</ele>
        <time>2014-09-07T13:24:32Z</time>
      </trkpt>
      <trkpt lat="42.8502" lon="1.46004">
        <ele>1817.51</ele>
        <time>2014-09-07T13:24:49Z</time>
      </trkpt>
      <trkpt lat="42.85016" lon="1.46003">
        <ele>1814.63</ele>
        <time>2014-09-07T13:24:59Z</time>
      </trkpt>
      <trkpt lat="42.8501" lon="1.46001">
        <ele>1812.7</ele>
        <time>2014-09-07T13:25:13Z</time>
      </trkpt>
      <trkpt lat="42.85007" lon="1.45996">
        <ele>1809.82</ele>
        <time>2014-09-07T13:25:25Z</time>
      </trkpt>
      <trkpt lat="42.84995" lon="1.45989">
        <ele>1807.42</ele>
        <time>2014-09-07T13:25:43Z</time>
      </trkpt>
      <trkpt lat="42.84988" lon="1.45986">
        <ele>1804.05</ele>
        <time>2014-09-07T13:25:54Z</time>
      </trkpt>
      <trkpt lat="42.84988" lon="1.45984">
        <ele>1803.57</ele>
        <time>2014-09-07T13:25:56Z</time>
      </trkpt>
      <trkpt lat="42.84981" lon="1.45978">
        <ele>1800.69</ele>
        <time>2014-09-07T13:26:06Z</time>
      </trkpt>
      <trkpt lat="42.84975" lon="1.45971">
        <ele>1796.84</ele>
        <time>2014-09-07T13:26:21Z</time>
      </trkpt>
      <trkpt lat="42.8497" lon="1.45963">
        <ele>1793.96</ele>
        <time>2014-09-07T13:26:36Z</time>
      </trkpt>
      <trkpt lat="42.84968" lon="1.4596">
        <ele>1793</ele>
        <time>2014-09-07T13:26:40Z</time>
      </trkpt>
      <trkpt lat="42.84965" lon="1.45955">
        <ele>1790.59</ele>
        <time>2014-09-07T13:26:48Z</time>
      </trkpt>
      <trkpt lat="42.84959" lon="1.45945">
        <ele>1787.71</ele>
        <time>2014-09-07T13:27:02Z</time>
      </trkpt>
      <trkpt lat="42.84956" lon="1.4594">
        <ele>1785.79</ele>
        <time>2014-09-07T13:27:09Z</time>
      </trkpt>
      <trkpt lat="42.84951" lon="1.45931">
        <ele>1782.42</ele>
        <time>2014-09-07T13:27:22Z</time>
      </trkpt>
      <trkpt lat="42.84945" lon="1.45923">
        <ele>1779.06</ele>
        <time>2014-09-07T13:27:34Z</time>
      </trkpt>
      <trkpt lat="42.84941" lon="1.45915">
        <ele>1775.69</ele>
        <time>2014-09-07T13:27:47Z</time>
      </trkpt>
      <trkpt lat="42.8494" lon="1.45915">
        <ele>1776.17</ele>
        <time>2014-09-07T13:27:48Z</time>
      </trkpt>
      <trkpt lat="42.84933" lon="1.4591">
        <ele>1773.29</ele>
        <time>2014-09-07T13:28:01Z</time>
      </trkpt>
      <trkpt lat="42.84929" lon="1.45907">
        <ele>1771.85</ele>
        <time>2014-09-07T13:28:15Z</time>
      </trkpt>
      <trkpt lat="42.84927" lon="1.45904">
        <ele>1770.41</ele>
        <time>2014-09-07T13:28:21Z</time>
      </trkpt>
      <trkpt lat="42.84919" lon="1.45896">
        <ele>1768</ele>
        <time>2014-09-07T13:28:38Z</time>
      </trkpt>
      <trkpt lat="42.84915" lon="1.45885">
        <ele>1764.64</ele>
        <time>2014-09-07T13:28:51Z</time>
      </trkpt>
      <trkpt lat="42.84911" lon="1.45877">
        <ele>1761.27</ele>
        <time>2014-09-07T13:29:01Z</time>
      </trkpt>
      <trkpt lat="42.84911" lon="1.45876">
        <ele>1762.23</ele>
        <time>2014-09-07T13:29:02Z</time>
      </trkpt>
      <trkpt lat="42.84908" lon="1.45869">
        <ele>1758.87</ele>
        <time>2014-09-07T13:29:12Z</time>
      </trkpt>
      <trkpt lat="42.84904" lon="1.45862">
        <ele>1756.47</ele>
        <time>2014-09-07T13:29:27Z</time>
      </trkpt>
      <trkpt lat="42.84899" lon="1.45857">
        <ele>1753.1</ele>
        <time>2014-09-07T13:29:41Z</time>
      </trkpt>
      <trkpt lat="42.84895" lon="1.45845">
        <ele>1750.22</ele>
        <time>2014-09-07T13:29:58Z</time>
      </trkpt>
      <trkpt lat="42.84891" lon="1.45842">
        <ele>1748.78</ele>
        <time>2014-09-07T13:30:05Z</time>
      </trkpt>
      <trkpt lat="42.84879" lon="1.45834">
        <ele>1746.85</ele>
        <time>2014-09-07T13:30:21Z</time>
      </trkpt>
      <trkpt lat="42.84871" lon="1.45831">
        <ele>1743.49</ele>
        <time>2014-09-07T13:30:35Z</time>
      </trkpt>
      <trkpt lat="42.84866" lon="1.45826">
        <ele>1740.6</ele>
        <time>2014-09-07T13:30:48Z</time>
      </trkpt>
      <trkpt lat="42.84855" lon="1.45823">
        <ele>1739.16</ele>
        <time>2014-09-07T13:31:06Z</time>
      </trkpt>
      <trkpt lat="42.84844" lon="1.4582">
        <ele>1736.76</ele>
        <time>2014-09-07T13:31:22Z</time>
      </trkpt>
      <trkpt lat="42.84839" lon="1.45817">
        <ele>1734.84</ele>
        <time>2014-09-07T13:31:30Z</time>
      </trkpt>
      <trkpt lat="42.84837" lon="1.45817">
        <ele>1734.36</ele>
        <time>2014-09-07T13:31:34Z</time>
      </trkpt>
      <trkpt lat="42.84824" lon="1.4582">
        <ele>1732.91</ele>
        <time>2014-09-07T13:31:52Z</time>
      </trkpt>
      <trkpt lat="42.84812" lon="1.45824">
        <ele>1733.39</ele>
        <time>2014-09-07T13:32:10Z</time>
      </trkpt>
      <trkpt lat="42.84808" lon="1.45819">
        <ele>1730.51</ele>
        <time>2014-09-07T13:32:19Z</time>
      </trkpt>
      <trkpt lat="42.84806" lon="1.45816">
        <ele>1729.55</ele>
        <time>2014-09-07T13:32:24Z</time>
      </trkpt>
      <trkpt lat="42.84805" lon="1.45811">
        <ele>1726.18</ele>
        <time>2014-09-07T13:32:36Z</time>
      </trkpt>
      <trkpt lat="42.84802" lon="1.45809">
        <ele>1723.78</ele>
        <time>2014-09-07T13:32:45Z</time>
      </trkpt>
      <trkpt lat="42.84801" lon="1.45806">
        <ele>1723.78</ele>
        <time>2014-09-07T13:32:58Z</time>
      </trkpt>
      <trkpt lat="42.84799" lon="1.45802">
        <ele>1719.94</ele>
        <time>2014-09-07T13:33:12Z</time>
      </trkpt>
      <trkpt lat="42.84795" lon="1.45798">
        <ele>1718.01</ele>
        <time>2014-09-07T13:33:26Z</time>
      </trkpt>
      <trkpt lat="42.84794" lon="1.45797">
        <ele>1717.05</ele>
        <time>2014-09-07T13:33:29Z</time>
      </trkpt>
      <trkpt lat="42.84788" lon="1.45793">
        <ele>1714.65</ele>
        <time>2014-09-07T13:33:43Z</time>
      </trkpt>
      <trkpt lat="42.84783" lon="1.45788">
        <ele>1711.28</ele>
        <time>2014-09-07T13:33:56Z</time>
      </trkpt>
      <trkpt lat="42.84782" lon="1.45783">
        <ele>1709.84</ele>
        <time>2014-09-07T13:34:10Z</time>
      </trkpt>
      <trkpt lat="42.84777" lon="1.45778">
        <ele>1706</ele>
        <time>2014-09-07T13:34:21Z</time>
      </trkpt>
      <trkpt lat="42.84774" lon="1.4577">
        <ele>1703.59</ele>
        <time>2014-09-07T13:34:36Z</time>
      </trkpt>
      <trkpt lat="42.84774" lon="1.45762">
        <ele>1700.23</ele>
        <time>2014-09-07T13:34:48Z</time>
      </trkpt>
      <trkpt lat="42.84773" lon="1.45755">
        <ele>1696.86</ele>
        <time>2014-09-07T13:35:02Z</time>
      </trkpt>
      <trkpt lat="42.84774" lon="1.45754">
        <ele>1696.38</ele>
        <time>2014-09-07T13:35:06Z</time>
      </trkpt>
      <trkpt lat="42.84772" lon="1.45748">
        <ele>1693.02</ele>
        <time>2014-09-07T13:35:18Z</time>
      </trkpt>
      <trkpt lat="42.84775" lon="1.45739">
        <ele>1689.17</ele>
        <time>2014-09-07T13:35:35Z</time>
      </trkpt>
      <trkpt lat="42.84778" lon="1.45734">
        <ele>1686.29</ele>
        <time>2014-09-07T13:35:50Z</time>
      </trkpt>
      <trkpt lat="42.84779" lon="1.45729">
        <ele>1683.89</ele>
        <time>2014-09-07T13:36:06Z</time>
      </trkpt>
      <trkpt lat="42.84777" lon="1.45725">
        <ele>1682.93</ele>
        <time>2014-09-07T13:36:13Z</time>
      </trkpt>
      <trkpt lat="42.84778" lon="1.4572">
        <ele>1679.56</ele>
        <time>2014-09-07T13:36:27Z</time>
      </trkpt>
      <trkpt lat="42.84776" lon="1.45711">
        <ele>1676.68</ele>
        <time>2014-09-07T13:36:43Z</time>
      </trkpt>
      <trkpt lat="42.84775" lon="1.45705">
        <ele>1673.79</ele>
        <time>2014-09-07T13:36:58Z</time>
      </trkpt>
      <trkpt lat="42.84773" lon="1.45699">
        <ele>1670.43</ele>
        <time>2014-09-07T13:37:11Z</time>
      </trkpt>
      <trkpt lat="42.8477" lon="1.45694">
        <ele>1668.51</ele>
        <time>2014-09-07T13:37:26Z</time>
      </trkpt>
      <trkpt lat="42.8477" lon="1.45688">
        <ele>1665.62</ele>
        <time>2014-09-07T13:37:40Z</time>
      </trkpt>
      <trkpt lat="42.84771" lon="1.45682">
        <ele>1662.74</ele>
        <time>2014-09-07T13:37:55Z</time>
      </trkpt>
      <trkpt lat="42.8477" lon="1.45675">
        <ele>1659.85</ele>
        <time>2014-09-07T13:38:09Z</time>
      </trkpt>
      <trkpt lat="42.84767" lon="1.45666">
        <ele>1656.97</ele>
        <time>2014-09-07T13:38:26Z</time>
      </trkpt>
      <trkpt lat="42.84763" lon="1.45661">
        <ele>1654.09</ele>
        <time>2014-09-07T13:38:42Z</time>
      </trkpt>
      <trkpt lat="42.84758" lon="1.45654">
        <ele>1651.68</ele>
        <time>2014-09-07T13:38:59Z</time>
      </trkpt>
      <trkpt lat="42.84754" lon="1.45645">
        <ele>1647.36</ele>
        <time>2014-09-07T13:39:16Z</time>
      </trkpt>
      <trkpt lat="42.84754" lon="1.45639">
        <ele>1646.4</ele>
        <time>2014-09-07T13:39:30Z</time>
      </trkpt>
      <trkpt lat="42.84754" lon="1.45635">
        <ele>1643.03</ele>
        <time>2014-09-07T13:39:41Z</time>
      </trkpt>
      <trkpt lat="42.84754" lon="1.45628">
        <ele>1640.63</ele>
        <time>2014-09-07T13:39:57Z</time>
      </trkpt>
      <trkpt lat="42.84746" lon="1.45621">
        <ele>1638.22</ele>
        <time>2014-09-07T13:40:12Z</time>
      </trkpt>
      <trkpt lat="42.84744" lon="1.45617">
        <ele>1636.78</ele>
        <time>2014-09-07T13:40:20Z</time>
      </trkpt>
      <trkpt lat="42.84743" lon="1.45611">
        <ele>1633.42</ele>
        <time>2014-09-07T13:40:32Z</time>
      </trkpt>
      <trkpt lat="42.84741" lon="1.45606">
        <ele>1630.53</ele>
        <time>2014-09-07T13:40:45Z</time>
      </trkpt>
      <trkpt lat="42.84739" lon="1.45598">
        <ele>1627.65</ele>
        <time>2014-09-07T13:41:00Z</time>
      </trkpt>
      <trkpt lat="42.84738" lon="1.45595">
        <ele>1624.77</ele>
        <time>2014-09-07T13:41:07Z</time>
      </trkpt>
      <trkpt lat="42.84736" lon="1.4559">
        <ele>1621.88</ele>
        <time>2014-09-07T13:41:20Z</time>
      </trkpt>
      <trkpt lat="42.84734" lon="1.45583">
        <ele>1618.04</ele>
        <time>2014-09-07T13:41:34Z</time>
      </trkpt>
      <trkpt lat="42.84731" lon="1.45579">
        <ele>1614.67</ele>
        <time>2014-09-07T13:41:47Z</time>
      </trkpt>
      <trkpt lat="42.8473" lon="1.45579">
        <ele>1614.67</ele>
        <time>2014-09-07T13:41:48Z</time>
      </trkpt>
      <trkpt lat="42.84725" lon="1.45573">
        <ele>1611.31</ele>
        <time>2014-09-07T13:42:01Z</time>
      </trkpt>
      <trkpt lat="42.84719" lon="1.45568">
        <ele>1607.94</ele>
        <time>2014-09-07T13:42:15Z</time>
      </trkpt>
      <trkpt lat="42.84713" lon="1.45563">
        <ele>1604.58</ele>
        <time>2014-09-07T13:42:31Z</time>
      </trkpt>
      <trkpt lat="42.84713" lon="1.45561">
        <ele>1602.66</ele>
        <time>2014-09-07T13:42:40Z</time>
      </trkpt>
      <trkpt lat="42.84716" lon="1.45554">
        <ele>1600.73</ele>
        <time>2014-09-07T13:42:49Z</time>
      </trkpt>
      <trkpt lat="42.84713" lon="1.45547">
        <ele>1596.89</ele>
        <time>2014-09-07T13:43:02Z</time>
      </trkpt>
      <trkpt lat="42.84709" lon="1.45542">
        <ele>1594</ele>
        <time>2014-09-07T13:43:15Z</time>
      </trkpt>
      <trkpt lat="42.84709" lon="1.45535">
        <ele>1591.12</ele>
        <time>2014-09-07T13:43:26Z</time>
      </trkpt>
      <trkpt lat="42.84704" lon="1.45528">
        <ele>1587.75</ele>
        <time>2014-09-07T13:43:41Z</time>
      </trkpt>
      <trkpt lat="42.84703" lon="1.45528">
        <ele>1587.27</ele>
        <time>2014-09-07T13:43:43Z</time>
      </trkpt>
      <trkpt lat="42.84691" lon="1.45522">
        <ele>1584.87</ele>
        <time>2014-09-07T13:43:59Z</time>
      </trkpt>
      <trkpt lat="42.84687" lon="1.45521">
        <ele>1583.43</ele>
        <time>2014-09-07T13:44:04Z</time>
      </trkpt>
      <trkpt lat="42.84674" lon="1.45518">
        <ele>1582.47</ele>
        <time>2014-09-07T13:44:19Z</time>
      </trkpt>
      <trkpt lat="42.84665" lon="1.45513">
        <ele>1581.03</ele>
        <time>2014-09-07T13:44:30Z</time>
      </trkpt>
      <trkpt lat="42.84656" lon="1.45502">
        <ele>1578.62</ele>
        <time>2014-09-07T13:44:46Z</time>
      </trkpt>
      <trkpt lat="42.84646" lon="1.45497">
        <ele>1576.7</ele>
        <time>2014-09-07T13:45:00Z</time>
      </trkpt>
      <trkpt lat="42.84641" lon="1.45492">
        <ele>1573.82</ele>
        <time>2014-09-07T13:45:12Z</time>
      </trkpt>
      <trkpt lat="42.84633" lon="1.45488">
        <ele>1570.45</ele>
        <time>2014-09-07T13:45:28Z</time>
      </trkpt>
      <trkpt lat="42.84626" lon="1.45482">
        <ele>1567.57</ele>
        <time>2014-09-07T13:45:46Z</time>
      </trkpt>
      <trkpt lat="42.84618" lon="1.45481">
        <ele>1564.68</ele>
        <time>2014-09-07T13:46:00Z</time>
      </trkpt>
      <trkpt lat="42.84618" lon="1.45481">
        <ele>1564.68</ele>
        <time>2014-09-07T13:46:01Z</time>
      </trkpt>
      <trkpt lat="42.84612" lon="1.45476">
        <ele>1560.84</ele>
        <time>2014-09-07T13:46:14Z</time>
      </trkpt>
      <trkpt lat="42.84601" lon="1.45475">
        <ele>1559.4</ele>
        <time>2014-09-07T13:46:30Z</time>
      </trkpt>
      <trkpt lat="42.84594" lon="1.45475">
        <ele>1556.03</ele>
        <time>2014-09-07T13:46:41Z</time>
      </trkpt>
      <trkpt lat="42.84583" lon="1.4548">
        <ele>1555.55</ele>
        <time>2014-09-07T13:46:56Z</time>
      </trkpt>
      <trkpt lat="42.84574" lon="1.45481">
        <ele>1554.59</ele>
        <time>2014-09-07T13:47:11Z</time>
      </trkpt>
      <trkpt lat="42.84567" lon="1.45476">
        <ele>1551.71</ele>
        <time>2014-09-07T13:47:32Z</time>
      </trkpt>
      <trkpt lat="42.84562" lon="1.45477">
        <ele>1548.34</ele>
        <time>2014-09-07T13:47:46Z</time>
      </trkpt>
      <trkpt lat="42.84554" lon="1.45477">
        <ele>1545.46</ele>
        <time>2014-09-07T13:48:03Z</time>
      </trkpt>
      <trkpt lat="42.84556" lon="1.45475">
        <ele>1542.57</ele>
        <time>2014-09-07T13:48:21Z</time>
      </trkpt>
      <trkpt lat="42.84551" lon="1.4547">
        <ele>1539.21</ele>
        <time>2014-09-07T13:48:42Z</time>
      </trkpt>
      <trkpt lat="42.84553" lon="1.45467">
        <ele>1536.32</ele>
        <time>2014-09-07T13:48:55Z</time>
      </trkpt>
      <trkpt lat="42.84553" lon="1.45466">
        <ele>1535.84</ele>
        <time>2014-09-07T13:48:59Z</time>
      </trkpt>
      <trkpt lat="42.84548" lon="1.4546">
        <ele>1532.48</ele>
        <time>2014-09-07T13:49:10Z</time>
      </trkpt>
      <trkpt lat="42.84543" lon="1.45458">
        <ele>1530.08</ele>
        <time>2014-09-07T13:49:31Z</time>
      </trkpt>
      <trkpt lat="42.84536" lon="1.4545">
        <ele>1527.19</ele>
        <time>2014-09-07T13:49:48Z</time>
      </trkpt>
      <trkpt lat="42.84527" lon="1.45446">
        <ele>1524.31</ele>
        <time>2014-09-07T13:50:05Z</time>
      </trkpt>
      <trkpt lat="42.84517" lon="1.45442">
        <ele>1521.42</ele>
        <time>2014-09-07T13:50:20Z</time>
      </trkpt>
      <trkpt lat="42.84506" lon="1.45436">
        <ele>1519.02</ele>
        <time>2014-09-07T13:50:41Z</time>
      </trkpt>
      <trkpt lat="42.84497" lon="1.45421">
        <ele>1518.54</ele>
        <time>2014-09-07T13:51:08Z</time>
      </trkpt>
      <trkpt lat="42.84503" lon="1.45426">
        <ele>1517.58</ele>
        <time>2014-09-07T13:51:38Z</time>
      </trkpt>
      <trkpt lat="42.84502" lon="1.45425">
        <ele>1513.73</ele>
        <time>2014-09-07T13:51:39Z</time>
      </trkpt>
      <trkpt lat="42.84503" lon="1.45424">
        <ele>1519.02</ele>
        <time>2014-09-07T13:51:40Z</time>
      </trkpt>
      <trkpt lat="42.84502" lon="1.45423">
        <ele>1515.66</ele>
        <time>2014-09-07T13:51:44Z</time>
      </trkpt>
      <trkpt lat="42.84503" lon="1.4542">
        <ele>1514.21</ele>
        <time>2014-09-07T13:51:51Z</time>
      </trkpt>
      <trkpt lat="42.84509" lon="1.4541">
        <ele>1513.25</ele>
        <time>2014-09-07T13:52:05Z</time>
      </trkpt>
      <trkpt lat="42.84514" lon="1.45404">
        <ele>1510.85</ele>
        <time>2014-09-07T13:52:23Z</time>
      </trkpt>
      <trkpt lat="42.84522" lon="1.45399">
        <ele>1507.97</ele>
        <time>2014-09-07T13:52:36Z</time>
      </trkpt>
      <trkpt lat="42.8452" lon="1.45385">
        <ele>1504.6</ele>
        <time>2014-09-07T13:52:49Z</time>
      </trkpt>
      <trkpt lat="42.84525" lon="1.45376">
        <ele>1501.72</ele>
        <time>2014-09-07T13:53:01Z</time>
      </trkpt>
      <trkpt lat="42.84528" lon="1.45368">
        <ele>1498.35</ele>
        <time>2014-09-07T13:53:17Z</time>
      </trkpt>
      <trkpt lat="42.84528" lon="1.45359">
        <ele>1495.95</ele>
        <time>2014-09-07T13:53:25Z</time>
      </trkpt>
      <trkpt lat="42.84527" lon="1.45348">
        <ele>1493.06</ele>
        <time>2014-09-07T13:53:38Z</time>
      </trkpt>
      <trkpt lat="42.84528" lon="1.45345">
        <ele>1491.14</ele>
        <time>2014-09-07T13:53:44Z</time>
      </trkpt>
      <trkpt lat="42.84526" lon="1.45341">
        <ele>1489.22</ele>
        <time>2014-09-07T13:53:47Z</time>
      </trkpt>
      <trkpt lat="42.84528" lon="1.45332">
        <ele>1486.34</ele>
        <time>2014-09-07T13:54:04Z</time>
      </trkpt>
      <trkpt lat="42.8453" lon="1.45324">
        <ele>1483.45</ele>
        <time>2014-09-07T13:54:20Z</time>
      </trkpt>
      <trkpt lat="42.84532" lon="1.45313">
        <ele>1479.61</ele>
        <time>2014-09-07T13:54:32Z</time>
      </trkpt>
      <trkpt lat="42.84527" lon="1.45308">
        <ele>1477.68</ele>
        <time>2014-09-07T13:54:38Z</time>
      </trkpt>
      <trkpt lat="42.8452" lon="1.45301">
        <ele>1475.76</ele>
        <time>2014-09-07T13:54:44Z</time>
      </trkpt>
      <trkpt lat="42.8452" lon="1.45291">
        <ele>1472.88</ele>
        <time>2014-09-07T13:54:55Z</time>
      </trkpt>
      <trkpt lat="42.84509" lon="1.45288">
        <ele>1469.03</ele>
        <time>2014-09-07T13:55:06Z</time>
      </trkpt>
      <trkpt lat="42.84506" lon="1.45287">
        <ele>1468.07</ele>
        <time>2014-09-07T13:55:10Z</time>
      </trkpt>
      <trkpt lat="42.845" lon="1.45283">
        <ele>1464.71</ele>
        <time>2014-09-07T13:55:23Z</time>
      </trkpt>
      <trkpt lat="42.84485" lon="1.45281">
        <ele>1461.82</ele>
        <time>2014-09-07T13:55:36Z</time>
      </trkpt>
      <trkpt lat="42.84468" lon="1.4529">
        <ele>1458.94</ele>
        <time>2014-09-07T13:55:55Z</time>
      </trkpt>
      <trkpt lat="42.84453" lon="1.45287">
        <ele>1456.53</ele>
        <time>2014-09-07T13:56:09Z</time>
      </trkpt>
      <trkpt lat="42.84437" lon="1.45284">
        <ele>1455.09</ele>
        <time>2014-09-07T13:56:26Z</time>
      </trkpt>
      <trkpt lat="42.84424" lon="1.45276">
        <ele>1453.17</ele>
        <time>2014-09-07T13:56:42Z</time>
      </trkpt>
      <trkpt lat="42.84408" lon="1.45285">
        <ele>1451.73</ele>
        <time>2014-09-07T13:56:57Z</time>
      </trkpt>
      <trkpt lat="42.844" lon="1.45283">
        <ele>1452.21</ele>
        <time>2014-09-07T13:57:02Z</time>
      </trkpt>
      <trkpt lat="42.84384" lon="1.45293">
        <ele>1451.25</ele>
        <time>2014-09-07T13:57:19Z</time>
      </trkpt>
      <trkpt lat="42.84369" lon="1.45304">
        <ele>1450.77</ele>
        <time>2014-09-07T13:57:35Z</time>
      </trkpt>
      <trkpt lat="42.84355" lon="1.45301">
        <ele>1450.29</ele>
        <time>2014-09-07T13:57:51Z</time>
      </trkpt>
      <trkpt lat="42.84354" lon="1.45299">
        <ele>1450.29</ele>
        <time>2014-09-07T13:57:53Z</time>
      </trkpt>
      <trkpt lat="42.84341" lon="1.45291">
        <ele>1451.25</ele>
        <time>2014-09-07T13:58:12Z</time>
      </trkpt>
      <trkpt lat="42.84331" lon="1.45281">
        <ele>1450.77</ele>
        <time>2014-09-07T13:58:27Z</time>
      </trkpt>
      <trkpt lat="42.84323" lon="1.45272">
        <ele>1454.13</ele>
        <time>2014-09-07T13:58:43Z</time>
      </trkpt>
      <trkpt lat="42.84322" lon="1.45262">
        <ele>1459.9</ele>
        <time>2014-09-07T13:58:56Z</time>
      </trkpt>
      <trkpt lat="42.84322" lon="1.45261">
        <ele>1455.09</ele>
        <time>2014-09-07T13:58:57Z</time>
      </trkpt>
      <trkpt lat="42.84322" lon="1.45262">
        <ele>1454.13</ele>
        <time>2014-09-07T13:58:59Z</time>
      </trkpt>
      <trkpt lat="42.84316" lon="1.45268">
        <ele>1454.13</ele>
        <time>2014-09-07T13:59:16Z</time>
      </trkpt>
      <trkpt lat="42.84298" lon="1.45283">
        <ele>1453.65</ele>
        <time>2014-09-07T13:59:35Z</time>
      </trkpt>
      <trkpt lat="42.84289" lon="1.4529">
        <ele>1455.09</ele>
        <time>2014-09-07T13:59:57Z</time>
      </trkpt>
      <trkpt lat="42.84313" lon="1.45253">
        <ele>1452.69</ele>
        <time>2014-09-07T14:00:12Z</time>
      </trkpt>
      <trkpt lat="42.84315" lon="1.45258">
        <ele>1452.69</ele>
        <time>2014-09-07T14:00:34Z</time>
      </trkpt>
      <trkpt lat="42.84315" lon="1.45256">
        <ele>1453.17</ele>
        <time>2014-09-07T14:00:51Z</time>
      </trkpt>
      <trkpt lat="42.84313" lon="1.45253">
        <ele>1452.69</ele>
        <time>2014-09-07T14:00:55Z</time>
      </trkpt>
      <trkpt lat="42.8431" lon="1.45243">
        <ele>1452.69</ele>
        <time>2014-09-07T14:01:11Z</time>
      </trkpt>
      <trkpt lat="42.84305" lon="1.45227">
        <ele>1452.69</ele>
        <time>2014-09-07T14:01:28Z</time>
      </trkpt>
      <trkpt lat="42.84293" lon="1.45209">
        <ele>1450.29</ele>
        <time>2014-09-07T14:01:45Z</time>
      </trkpt>
      <trkpt lat="42.84282" lon="1.45191">
        <ele>1448.84</ele>
        <time>2014-09-07T14:02:02Z</time>
      </trkpt>
      <trkpt lat="42.84278" lon="1.45177">
        <ele>1445.48</ele>
        <time>2014-09-07T14:02:19Z</time>
      </trkpt>
      <trkpt lat="42.84271" lon="1.45169">
        <ele>1441.63</ele>
        <time>2014-09-07T14:02:27Z</time>
      </trkpt>
      <trkpt lat="42.84271" lon="1.45169">
        <ele>1445.48</ele>
        <time>2014-09-07T14:02:28Z</time>
      </trkpt>
      <trkpt lat="42.84269" lon="1.45168">
        <ele>1442.11</ele>
        <time>2014-09-07T14:02:32Z</time>
      </trkpt>
      <trkpt lat="42.84267" lon="1.45167">
        <ele>1441.63</ele>
        <time>2014-09-07T14:02:33Z</time>
      </trkpt>
      <trkpt lat="42.84257" lon="1.45165">
        <ele>1438.75</ele>
        <time>2014-09-07T14:02:47Z</time>
      </trkpt>
      <trkpt lat="42.84245" lon="1.45161">
        <ele>1435.87</ele>
        <time>2014-09-07T14:03:01Z</time>
      </trkpt>
      <trkpt lat="42.84237" lon="1.45167">
        <ele>1432.5</ele>
        <time>2014-09-07T14:03:14Z</time>
      </trkpt>
      <trkpt lat="42.84224" lon="1.45169">
        <ele>1429.14</ele>
        <time>2014-09-07T14:03:33Z</time>
      </trkpt>
      <trkpt lat="42.84211" lon="1.45173">
        <ele>1426.73</ele>
        <time>2014-09-07T14:03:50Z</time>
      </trkpt>
      <trkpt lat="42.84197" lon="1.45175">
        <ele>1424.33</ele>
        <time>2014-09-07T14:04:05Z</time>
      </trkpt>
      <trkpt lat="42.84193" lon="1.45174">
        <ele>1418.56</ele>
        <time>2014-09-07T14:04:12Z</time>
      </trkpt>
      <trkpt lat="42.84192" lon="1.45174">
        <ele>1425.77</ele>
        <time>2014-09-07T14:04:13Z</time>
      </trkpt>
      <trkpt lat="42.84191" lon="1.45174">
        <ele>1422.41</ele>
        <time>2014-09-07T14:04:14Z</time>
      </trkpt>
      <trkpt lat="42.84189" lon="1.45174">
        <ele>1418.08</ele>
        <time>2014-09-07T14:04:17Z</time>
      </trkpt>
      <trkpt lat="42.84188" lon="1.45174">
        <ele>1424.81</ele>
        <time>2014-09-07T14:04:18Z</time>
      </trkpt>
      <trkpt lat="42.84187" lon="1.45172">
        <ele>1420.49</ele>
        <time>2014-09-07T14:04:20Z</time>
      </trkpt>
      <trkpt lat="42.84185" lon="1.45171">
        <ele>1424.33</ele>
        <time>2014-09-07T14:04:22Z</time>
      </trkpt>
      <trkpt lat="42.84184" lon="1.4517">
        <ele>1420.97</ele>
        <time>2014-09-07T14:04:23Z</time>
      </trkpt>
      <trkpt lat="42.84178" lon="1.45169">
        <ele>1420.49</ele>
        <time>2014-09-07T14:04:40Z</time>
      </trkpt>
      <trkpt lat="42.84169" lon="1.45171">
        <ele>1417.12</ele>
        <time>2014-09-07T14:04:52Z</time>
      </trkpt>
      <trkpt lat="42.84157" lon="1.45175">
        <ele>1415.2</ele>
        <time>2014-09-07T14:05:07Z</time>
      </trkpt>
      <trkpt lat="42.84149" lon="1.45188">
        <ele>1414.72</ele>
        <time>2014-09-07T14:05:20Z</time>
      </trkpt>
      <trkpt lat="42.84138" lon="1.45197">
        <ele>1411.35</ele>
        <time>2014-09-07T14:05:35Z</time>
      </trkpt>
      <trkpt lat="42.84131" lon="1.45209">
        <ele>1408.95</ele>
        <time>2014-09-07T14:05:50Z</time>
      </trkpt>
      <trkpt lat="42.8413" lon="1.45214">
        <ele>1407.51</ele>
        <time>2014-09-07T14:05:53Z</time>
      </trkpt>
      <trkpt lat="42.84122" lon="1.45222">
        <ele>1404.14</ele>
        <time>2014-09-07T14:06:06Z</time>
      </trkpt>
      <trkpt lat="42.8412" lon="1.45218">
        <ele>1402.7</ele>
        <time>2014-09-07T14:06:13Z</time>
      </trkpt>
      <trkpt lat="42.84115" lon="1.45205">
        <ele>1399.34</ele>
        <time>2014-09-07T14:06:30Z</time>
      </trkpt>
      <trkpt lat="42.84114" lon="1.45204">
        <ele>1395.49</ele>
        <time>2014-09-07T14:06:31Z</time>
      </trkpt>
      <trkpt lat="42.84111" lon="1.45203">
        <ele>1402.7</ele>
        <time>2014-09-07T14:06:32Z</time>
      </trkpt>
      <trkpt lat="42.8411" lon="1.45202">
        <ele>1399.34</ele>
        <time>2014-09-07T14:06:33Z</time>
      </trkpt>
      <trkpt lat="42.84105" lon="1.45215">
        <ele>1396.45</ele>
        <time>2014-09-07T14:06:49Z</time>
      </trkpt>
      <trkpt lat="42.84099" lon="1.45215">
        <ele>1393.09</ele>
        <time>2014-09-07T14:07:01Z</time>
      </trkpt>
      <trkpt lat="42.84087" lon="1.45223">
        <ele>1389.72</ele>
        <time>2014-09-07T14:07:17Z</time>
      </trkpt>
      <trkpt lat="42.84082" lon="1.45224">
        <ele>1386.84</ele>
        <time>2014-09-07T14:07:28Z</time>
      </trkpt>
      <trkpt lat="42.84072" lon="1.45214">
        <ele>1383.47</ele>
        <time>2014-09-07T14:07:45Z</time>
      </trkpt>
      <trkpt lat="42.84062" lon="1.45204">
        <ele>1380.59</ele>
        <time>2014-09-07T14:08:01Z</time>
      </trkpt>
      <trkpt lat="42.84052" lon="1.45216">
        <ele>1377.23</ele>
        <time>2014-09-07T14:08:17Z</time>
      </trkpt>
      <trkpt lat="42.84048" lon="1.4524">
        <ele>1374.82</ele>
        <time>2014-09-07T14:08:33Z</time>
      </trkpt>
      <trkpt lat="42.84043" lon="1.45255">
        <ele>1371.46</ele>
        <time>2014-09-07T14:08:46Z</time>
      </trkpt>
      <trkpt lat="42.84033" lon="1.45264">
        <ele>1368.09</ele>
        <time>2014-09-07T14:09:01Z</time>
      </trkpt>
      <trkpt lat="42.84023" lon="1.45275">
        <ele>1365.21</ele>
        <time>2014-09-07T14:09:17Z</time>
      </trkpt>
      <trkpt lat="42.84015" lon="1.45288">
        <ele>1361.84</ele>
        <time>2014-09-07T14:09:31Z</time>
      </trkpt>
      <trkpt lat="42.84009" lon="1.45306">
        <ele>1358.48</ele>
        <time>2014-09-07T14:09:49Z</time>
      </trkpt>
      <trkpt lat="42.83998" lon="1.45325">
        <ele>1357.04</ele>
        <time>2014-09-07T14:10:07Z</time>
      </trkpt>
      <trkpt lat="42.83989" lon="1.45347">
        <ele>1354.63</ele>
        <time>2014-09-07T14:10:23Z</time>
      </trkpt>
      <trkpt lat="42.83979" lon="1.45349">
        <ele>1351.75</ele>
        <time>2014-09-07T14:10:35Z</time>
      </trkpt>
      <trkpt lat="42.83971" lon="1.4536">
        <ele>1348.39</ele>
        <time>2014-09-07T14:10:47Z</time>
      </trkpt>
      <trkpt lat="42.83964" lon="1.45367">
        <ele>1345.02</ele>
        <time>2014-09-07T14:11:00Z</time>
      </trkpt>
      <trkpt lat="42.8396" lon="1.45374">
        <ele>1341.66</ele>
        <time>2014-09-07T14:11:12Z</time>
      </trkpt>
      <trkpt lat="42.83959" lon="1.45375">
        <ele>1341.18</ele>
        <time>2014-09-07T14:11:14Z</time>
      </trkpt>
      <trkpt lat="42.83954" lon="1.45388">
        <ele>1338.29</ele>
        <time>2014-09-07T14:11:27Z</time>
      </trkpt>
      <trkpt lat="42.8395" lon="1.45401">
        <ele>1335.89</ele>
        <time>2014-09-07T14:11:44Z</time>
      </trkpt>
      <trkpt lat="42.83954" lon="1.45404">
        <ele>1333.97</ele>
        <time>2014-09-07T14:12:08Z</time>
      </trkpt>
      <trkpt lat="42.83952" lon="1.45404">
        <ele>1333.97</ele>
        <time>2014-09-07T14:12:38Z</time>
      </trkpt>
      <trkpt lat="42.83949" lon="1.45403">
        <ele>1333.49</ele>
        <time>2014-09-07T14:13:04Z</time>
      </trkpt>
      <trkpt lat="42.83949" lon="1.45403">
        <ele>1333.97</ele>
        <time>2014-09-07T14:13:29Z</time>
      </trkpt>
      <trkpt lat="42.83951" lon="1.45404">
        <ele>1334.45</ele>
        <time>2014-09-07T14:13:48Z</time>
      </trkpt>
      <trkpt lat="42.83951" lon="1.45403">
        <ele>1334.93</ele>
        <time>2014-09-07T14:14:08Z</time>
      </trkpt>
      <trkpt lat="42.83949" lon="1.45401">
        <ele>1334.93</ele>
        <time>2014-09-07T14:14:30Z</time>
      </trkpt>
      <trkpt lat="42.83953" lon="1.45404">
        <ele>1333.97</ele>
        <time>2014-09-07T14:14:53Z</time>
      </trkpt>
      <trkpt lat="42.83949" lon="1.45413">
        <ele>1333.01</ele>
        <time>2014-09-07T14:15:09Z</time>
      </trkpt>
      <trkpt lat="42.83948" lon="1.4542">
        <ele>1330.12</ele>
        <time>2014-09-07T14:15:26Z</time>
      </trkpt>
      <trkpt lat="42.83948" lon="1.45424">
        <ele>1326.76</ele>
        <time>2014-09-07T14:15:39Z</time>
      </trkpt>
      <trkpt lat="42.83945" lon="1.45428">
        <ele>1323.87</ele>
        <time>2014-09-07T14:15:52Z</time>
      </trkpt>
      <trkpt lat="42.83945" lon="1.45434">
        <ele>1320.03</ele>
        <time>2014-09-07T14:16:10Z</time>
      </trkpt>
      <trkpt lat="42.83945" lon="1.45435">
        <ele>1320.03</ele>
        <time>2014-09-07T14:16:14Z</time>
      </trkpt>
      <trkpt lat="42.83942" lon="1.45442">
        <ele>1316.66</ele>
        <time>2014-09-07T14:16:24Z</time>
      </trkpt>
      <trkpt lat="42.83936" lon="1.45445">
        <ele>1313.78</ele>
        <time>2014-09-07T14:16:38Z</time>
      </trkpt>
      <trkpt lat="42.83937" lon="1.45455">
        <ele>1310.9</ele>
        <time>2014-09-07T14:16:58Z</time>
      </trkpt>
      <trkpt lat="42.83935" lon="1.45467">
        <ele>1307.53</ele>
        <time>2014-09-07T14:17:13Z</time>
      </trkpt>
      <trkpt lat="42.83931" lon="1.45474">
        <ele>1304.17</ele>
        <time>2014-09-07T14:17:26Z</time>
      </trkpt>
      <trkpt lat="42.83924" lon="1.4548">
        <ele>1300.8</ele>
        <time>2014-09-07T14:17:40Z</time>
      </trkpt>
      <trkpt lat="42.83921" lon="1.45496">
        <ele>1297.44</ele>
        <time>2014-09-07T14:17:56Z</time>
      </trkpt>
      <trkpt lat="42.8392" lon="1.45503">
        <ele>1294.55</ele>
        <time>2014-09-07T14:18:08Z</time>
      </trkpt>
      <trkpt lat="42.83914" lon="1.45516">
        <ele>1291.19</ele>
        <time>2014-09-07T14:18:22Z</time>
      </trkpt>
      <trkpt lat="42.83913" lon="1.45517">
        <ele>1290.71</ele>
        <time>2014-09-07T14:18:23Z</time>
      </trkpt>
      <trkpt lat="42.8391" lon="1.45532">
        <ele>1287.82</ele>
        <time>2014-09-07T14:18:38Z</time>
      </trkpt>
      <trkpt lat="42.83903" lon="1.45555">
        <ele>1283.98</ele>
        <time>2014-09-07T14:18:51Z</time>
      </trkpt>
      <trkpt lat="42.83901" lon="1.45572">
        <ele>1281.57</ele>
        <time>2014-09-07T14:19:03Z</time>
      </trkpt>
      <trkpt lat="42.83894" lon="1.45573">
        <ele>1278.21</ele>
        <time>2014-09-07T14:19:18Z</time>
      </trkpt>
      <trkpt lat="42.83896" lon="1.45582">
        <ele>1275.33</ele>
        <time>2014-09-07T14:19:34Z</time>
      </trkpt>
      <trkpt lat="42.83896" lon="1.45598">
        <ele>1271.96</ele>
        <time>2014-09-07T14:19:45Z</time>
      </trkpt>
      <trkpt lat="42.83897" lon="1.45618">
        <ele>1268.6</ele>
        <time>2014-09-07T14:19:56Z</time>
      </trkpt>
      <trkpt lat="42.83896" lon="1.45642">
        <ele>1266.19</ele>
        <time>2014-09-07T14:20:10Z</time>
      </trkpt>
      <trkpt lat="42.83897" lon="1.45663">
        <ele>1262.35</ele>
        <time>2014-09-07T14:20:24Z</time>
      </trkpt>
      <trkpt lat="42.83893" lon="1.45663">
        <ele>1259.46</ele>
        <time>2014-09-07T14:20:33Z</time>
      </trkpt>
      <trkpt lat="42.83893" lon="1.45681">
        <ele>1256.58</ele>
        <time>2014-09-07T14:20:45Z</time>
      </trkpt>
      <trkpt lat="42.83891" lon="1.45694">
        <ele>1252.25</ele>
        <time>2014-09-07T14:20:54Z</time>
      </trkpt>
      <trkpt lat="42.83888" lon="1.45708">
        <ele>1248.89</ele>
        <time>2014-09-07T14:21:04Z</time>
      </trkpt>
      <trkpt lat="42.83888" lon="1.45714">
        <ele>1248.41</ele>
        <time>2014-09-07T14:21:08Z</time>
      </trkpt>
      <trkpt lat="42.83888" lon="1.45731">
        <ele>1245.53</ele>
        <time>2014-09-07T14:21:20Z</time>
      </trkpt>
      <trkpt lat="42.8389" lon="1.45748">
        <ele>1242.16</ele>
        <time>2014-09-07T14:21:36Z</time>
      </trkpt>
      <trkpt lat="42.8389" lon="1.45773">
        <ele>1239.28</ele>
        <time>2014-09-07T14:21:49Z</time>
      </trkpt>
      <trkpt lat="42.8389" lon="1.45775">
        <ele>1238.8</ele>
        <time>2014-09-07T14:21:50Z</time>
      </trkpt>
      <trkpt lat="42.83888" lon="1.45782">
        <ele>1237.35</ele>
        <time>2014-09-07T14:21:54Z</time>
      </trkpt>
      <trkpt lat="42.83883" lon="1.45799">
        <ele>1234.47</ele>
        <time>2014-09-07T14:22:04Z</time>
      </trkpt>
      <trkpt lat="42.83884" lon="1.45816">
        <ele>1230.62</ele>
        <time>2014-09-07T14:22:16Z</time>
      </trkpt>
      <trkpt lat="42.83887" lon="1.45843">
        <ele>1227.26</ele>
        <time>2014-09-07T14:22:29Z</time>
      </trkpt>
      <trkpt lat="42.83888" lon="1.45847">
        <ele>1228.22</ele>
        <time>2014-09-07T14:22:31Z</time>
      </trkpt>
      <trkpt lat="42.8389" lon="1.45858">
        <ele>1225.82</ele>
        <time>2014-09-07T14:22:36Z</time>
      </trkpt>
      <trkpt lat="42.83891" lon="1.45877">
        <ele>1222.93</ele>
        <time>2014-09-07T14:22:49Z</time>
      </trkpt>
      <trkpt lat="42.83895" lon="1.45897">
        <ele>1219.57</ele>
        <time>2014-09-07T14:23:01Z</time>
      </trkpt>
      <trkpt lat="42.83898" lon="1.45927">
        <ele>1218.13</ele>
        <time>2014-09-07T14:23:18Z</time>
      </trkpt>
      <trkpt lat="42.83903" lon="1.45959">
        <ele>1215.72</ele>
        <time>2014-09-07T14:23:36Z</time>
      </trkpt>
      <trkpt lat="42.83901" lon="1.45978">
        <ele>1215.24</ele>
        <time>2014-09-07T14:23:49Z</time>
      </trkpt>
      <trkpt lat="42.83894" lon="1.45996">
        <ele>1213.32</ele>
        <time>2014-09-07T14:24:02Z</time>
      </trkpt>
      <trkpt lat="42.83884" lon="1.46022">
        <ele>1210.44</ele>
        <time>2014-09-07T14:24:20Z</time>
      </trkpt>
      <trkpt lat="42.83877" lon="1.46053">
        <ele>1209.96</ele>
        <time>2014-09-07T14:24:36Z</time>
      </trkpt>
      <trkpt lat="42.83873" lon="1.46083">
        <ele>1208.03</ele>
        <time>2014-09-07T14:24:54Z</time>
      </trkpt>
      <trkpt lat="42.83871" lon="1.46077">
        <ele>1208.51</ele>
        <time>2014-09-07T14:25:05Z</time>
      </trkpt>
      <trkpt lat="42.83865" lon="1.46082">
        <ele>1207.55</ele>
        <time>2014-09-07T14:25:22Z</time>
      </trkpt>
      <trkpt lat="42.83863" lon="1.46081">
        <ele>1207.55</ele>
        <time>2014-09-07T14:25:26Z</time>
      </trkpt>
      <trkpt lat="42.83848" lon="1.46081">
        <ele>1207.55</ele>
        <time>2014-09-07T14:25:46Z</time>
      </trkpt>
      <trkpt lat="42.83839" lon="1.46104">
        <ele>1205.63</ele>
        <time>2014-09-07T14:26:05Z</time>
      </trkpt>
      <trkpt lat="42.83834" lon="1.46121">
        <ele>1203.23</ele>
        <time>2014-09-07T14:26:21Z</time>
      </trkpt>
      <trkpt lat="42.83831" lon="1.46135">
        <ele>1204.19</ele>
        <time>2014-09-07T14:26:37Z</time>
      </trkpt>
      <trkpt lat="42.83836" lon="1.46161">
        <ele>1203.71</ele>
        <time>2014-09-07T14:26:53Z</time>
      </trkpt>
      <trkpt lat="42.83837" lon="1.46184">
        <ele>1202.75</ele>
        <time>2014-09-07T14:27:10Z</time>
      </trkpt>
      <trkpt lat="42.83838" lon="1.46206">
        <ele>1201.79</ele>
        <time>2014-09-07T14:27:27Z</time>
      </trkpt>
      <trkpt lat="42.83835" lon="1.46235">
        <ele>1199.86</ele>
        <time>2014-09-07T14:27:44Z</time>
      </trkpt>
      <trkpt lat="42.83829" lon="1.46263">
        <ele>1199.38</ele>
        <time>2014-09-07T14:28:04Z</time>
      </trkpt>
      <trkpt lat="42.83827" lon="1.46296">
        <ele>1197.94</ele>
        <time>2014-09-07T14:28:23Z</time>
      </trkpt>
      <trkpt lat="42.83844" lon="1.46324">
        <ele>1196.5</ele>
        <time>2014-09-07T14:28:41Z</time>
      </trkpt>
      <trkpt lat="42.8385" lon="1.46333">
        <ele>1194.58</ele>
        <time>2014-09-07T14:28:54Z</time>
      </trkpt>
      <trkpt lat="42.83857" lon="1.46351">
        <ele>1194.09</ele>
        <time>2014-09-07T14:29:08Z</time>
      </trkpt>
      <trkpt lat="42.83864" lon="1.46364">
        <ele>1194.09</ele>
        <time>2014-09-07T14:29:21Z</time>
      </trkpt>
      <trkpt lat="42.8387" lon="1.46385">
        <ele>1192.17</ele>
        <time>2014-09-07T14:29:37Z</time>
      </trkpt>
      <trkpt lat="42.83873" lon="1.46393">
        <ele>1192.17</ele>
        <time>2014-09-07T14:29:44Z</time>
      </trkpt>
      <trkpt lat="42.83873" lon="1.4641">
        <ele>1193.13</ele>
        <time>2014-09-07T14:30:00Z</time>
      </trkpt>
      <trkpt lat="42.83874" lon="1.46435">
        <ele>1192.17</ele>
        <time>2014-09-07T14:30:15Z</time>
      </trkpt>
      <trkpt lat="42.83877" lon="1.46442">
        <ele>1191.69</ele>
        <time>2014-09-07T14:30:19Z</time>
      </trkpt>
      <trkpt lat="42.83878" lon="1.4645">
        <ele>1191.69</ele>
        <time>2014-09-07T14:30:23Z</time>
      </trkpt>
      <trkpt lat="42.83883" lon="1.46476">
        <ele>1190.73</ele>
        <time>2014-09-07T14:30:39Z</time>
      </trkpt>
      <trkpt lat="42.83891" lon="1.46506">
        <ele>1190.25</ele>
        <time>2014-09-07T14:30:56Z</time>
      </trkpt>
      <trkpt lat="42.83893" lon="1.46527">
        <ele>1190.25</ele>
        <time>2014-09-07T14:31:10Z</time>
      </trkpt>
      <trkpt lat="42.83894" lon="1.46551">
        <ele>1188.81</ele>
        <time>2014-09-07T14:31:25Z</time>
      </trkpt>
      <trkpt lat="42.83905" lon="1.46578">
        <ele>1186.88</ele>
        <time>2014-09-07T14:31:41Z</time>
      </trkpt>
      <trkpt lat="42.83909" lon="1.46583">
        <ele>1186.88</ele>
        <time>2014-09-07T14:31:45Z</time>
      </trkpt>
      <trkpt lat="42.83914" lon="1.46599">
        <ele>1184.96</ele>
        <time>2014-09-07T14:31:53Z</time>
      </trkpt>
      <trkpt lat="42.8391" lon="1.46632">
        <ele>1182.08</ele>
        <time>2014-09-07T14:32:12Z</time>
      </trkpt>
      <trkpt lat="42.83909" lon="1.46657">
        <ele>1179.67</ele>
        <time>2014-09-07T14:32:27Z</time>
      </trkpt>
      <trkpt lat="42.83907" lon="1.46685">
        <ele>1176.79</ele>
        <time>2014-09-07T14:32:43Z</time>
      </trkpt>
      <trkpt lat="42.83903" lon="1.46697">
        <ele>1175.83</ele>
        <time>2014-09-07T14:32:50Z</time>
      </trkpt>
      <trkpt lat="42.83897" lon="1.46725">
        <ele>1173.43</ele>
        <time>2014-09-07T14:33:07Z</time>
      </trkpt>
      <trkpt lat="42.83893" lon="1.46745">
        <ele>1171.02</ele>
        <time>2014-09-07T14:33:20Z</time>
      </trkpt>
      <trkpt lat="42.83886" lon="1.46777">
        <ele>1168.14</ele>
        <time>2014-09-07T14:33:37Z</time>
      </trkpt>
      <trkpt lat="42.83881" lon="1.46798">
        <ele>1165.26</ele>
        <time>2014-09-07T14:33:50Z</time>
      </trkpt>
      <trkpt lat="42.83878" lon="1.4682">
        <ele>1163.33</ele>
        <time>2014-09-07T14:34:02Z</time>
      </trkpt>
      <trkpt lat="42.83879" lon="1.4685">
        <ele>1159.97</ele>
        <time>2014-09-07T14:34:18Z</time>
      </trkpt>
      <trkpt lat="42.83873" lon="1.46877">
        <ele>1157.56</ele>
        <time>2014-09-07T14:34:33Z</time>
      </trkpt>
      <trkpt lat="42.83871" lon="1.46895">
        <ele>1156.6</ele>
        <time>2014-09-07T14:34:43Z</time>
      </trkpt>
      <trkpt lat="42.83876" lon="1.46918">
        <ele>1155.16</ele>
        <time>2014-09-07T14:34:55Z</time>
      </trkpt>
      <trkpt lat="42.83879" lon="1.46934">
        <ele>1154.2</ele>
        <time>2014-09-07T14:35:06Z</time>
      </trkpt>
      <trkpt lat="42.83882" lon="1.4696">
        <ele>1150.84</ele>
        <time>2014-09-07T14:35:19Z</time>
      </trkpt>
      <trkpt lat="42.83885" lon="1.46982">
        <ele>1147.95</ele>
        <time>2014-09-07T14:35:30Z</time>
      </trkpt>
      <trkpt lat="42.83882" lon="1.47003">
        <ele>1145.07</ele>
        <time>2014-09-07T14:35:39Z</time>
      </trkpt>
      <trkpt lat="42.83882" lon="1.4702">
        <ele>1143.14</ele>
        <time>2014-09-07T14:35:52Z</time>
      </trkpt>
      <trkpt lat="42.83874" lon="1.47035">
        <ele>1141.22</ele>
        <time>2014-09-07T14:36:07Z</time>
      </trkpt>
      <trkpt lat="42.83869" lon="1.47048">
        <ele>1137.86</ele>
        <time>2014-09-07T14:36:18Z</time>
      </trkpt>
      <trkpt lat="42.83863" lon="1.47073">
        <ele>1134.49</ele>
        <time>2014-09-07T14:36:35Z</time>
      </trkpt>
      <trkpt lat="42.8386" lon="1.47083">
        <ele>1133.53</ele>
        <time>2014-09-07T14:36:41Z</time>
      </trkpt>
      <trkpt lat="42.83862" lon="1.47112">
        <ele>1129.69</ele>
        <time>2014-09-07T14:36:55Z</time>
      </trkpt>
      <trkpt lat="42.83866" lon="1.47135">
        <ele>1126.8</ele>
        <time>2014-09-07T14:37:11Z</time>
      </trkpt>
      <trkpt lat="42.8387" lon="1.47166">
        <ele>1125.84</ele>
        <time>2014-09-07T14:37:28Z</time>
      </trkpt>
      <trkpt lat="42.83871" lon="1.47177">
        <ele>1124.88</ele>
        <time>2014-09-07T14:37:33Z</time>
      </trkpt>
      <trkpt lat="42.83868" lon="1.47193">
        <ele>1122</ele>
        <time>2014-09-07T14:37:46Z</time>
      </trkpt>
      <trkpt lat="42.83864" lon="1.47224">
        <ele>1120.07</ele>
        <time>2014-09-07T14:38:05Z</time>
      </trkpt>
      <trkpt lat="42.83865" lon="1.47227">
        <ele>1119.11</ele>
        <time>2014-09-07T14:38:07Z</time>
      </trkpt>
      <trkpt lat="42.83863" lon="1.47255">
        <ele>1117.67</ele>
        <time>2014-09-07T14:38:24Z</time>
      </trkpt>
      <trkpt lat="42.83849" lon="1.47276">
        <ele>1116.71</ele>
        <time>2014-09-07T14:38:40Z</time>
      </trkpt>
      <trkpt lat="42.83846" lon="1.4728">
        <ele>1116.71</ele>
        <time>2014-09-07T14:38:44Z</time>
      </trkpt>
      <trkpt lat="42.83839" lon="1.47316">
        <ele>1114.79</ele>
        <time>2014-09-07T14:39:03Z</time>
      </trkpt>
      <trkpt lat="42.8384" lon="1.47327">
        <ele>1113.82</ele>
        <time>2014-09-07T14:39:08Z</time>
      </trkpt>
      <trkpt lat="42.83852" lon="1.47362">
        <ele>1111.9</ele>
        <time>2014-09-07T14:39:27Z</time>
      </trkpt>
      <trkpt lat="42.8386" lon="1.47399">
        <ele>1109.5</ele>
        <time>2014-09-07T14:39:45Z</time>
      </trkpt>
      <trkpt lat="42.83866" lon="1.47418">
        <ele>1106.13</ele>
        <time>2014-09-07T14:39:56Z</time>
      </trkpt>
      <trkpt lat="42.83871" lon="1.47433">
        <ele>1103.25</ele>
        <time>2014-09-07T14:40:07Z</time>
      </trkpt>
      <trkpt lat="42.83869" lon="1.47449">
        <ele>1100.37</ele>
        <time>2014-09-07T14:40:19Z</time>
      </trkpt>
      <trkpt lat="42.83869" lon="1.47472">
        <ele>1097</ele>
        <time>2014-09-07T14:40:34Z</time>
      </trkpt>
      <trkpt lat="42.8387" lon="1.4748">
        <ele>1096.52</ele>
        <time>2014-09-07T14:40:39Z</time>
      </trkpt>
      <trkpt lat="42.8387" lon="1.47488">
        <ele>1095.56</ele>
        <time>2014-09-07T14:40:43Z</time>
      </trkpt>
      <trkpt lat="42.83873" lon="1.47514">
        <ele>1093.16</ele>
        <time>2014-09-07T14:40:57Z</time>
      </trkpt>
      <trkpt lat="42.83878" lon="1.47539">
        <ele>1090.27</ele>
        <time>2014-09-07T14:41:12Z</time>
      </trkpt>
      <trkpt lat="42.83874" lon="1.47558">
        <ele>1086.91</ele>
        <time>2014-09-07T14:41:24Z</time>
      </trkpt>
      <trkpt lat="42.83874" lon="1.4756">
        <ele>1087.39</ele>
        <time>2014-09-07T14:41:25Z</time>
      </trkpt>
      <trkpt lat="42.83878" lon="1.47593">
        <ele>1084.5</ele>
        <time>2014-09-07T14:41:39Z</time>
      </trkpt>
      <trkpt lat="42.83883" lon="1.47615">
        <ele>1084.02</ele>
        <time>2014-09-07T14:41:54Z</time>
      </trkpt>
      <trkpt lat="42.83883" lon="1.47626">
        <ele>1084.02</ele>
        <time>2014-09-07T14:42:00Z</time>
      </trkpt>
      <trkpt lat="42.8388" lon="1.47647">
        <ele>1083.54</ele>
        <time>2014-09-07T14:42:14Z</time>
      </trkpt>
      <trkpt lat="42.83879" lon="1.47651">
        <ele>1083.06</ele>
        <time>2014-09-07T14:42:17Z</time>
      </trkpt>
      <trkpt lat="42.83879" lon="1.47673">
        <ele>1083.06</ele>
        <time>2014-09-07T14:42:28Z</time>
      </trkpt>
      <trkpt lat="42.8387" lon="1.47698">
        <ele>1083.54</ele>
        <time>2014-09-07T14:42:43Z</time>
      </trkpt>
      <trkpt lat="42.83869" lon="1.47721">
        <ele>1083.06</ele>
        <time>2014-09-07T14:42:58Z</time>
      </trkpt>
      <trkpt lat="42.83871" lon="1.47736">
        <ele>1083.54</ele>
        <time>2014-09-07T14:43:08Z</time>
      </trkpt>
      <trkpt lat="42.83871" lon="1.47755">
        <ele>1082.58</ele>
        <time>2014-09-07T14:43:20Z</time>
      </trkpt>
      <trkpt lat="42.83878" lon="1.47766">
        <ele>1082.1</ele>
        <time>2014-09-07T14:43:31Z</time>
      </trkpt>
      <trkpt lat="42.83885" lon="1.47796">
        <ele>1081.62</ele>
        <time>2014-09-07T14:43:47Z</time>
      </trkpt>
      <trkpt lat="42.83888" lon="1.47808">
        <ele>1080.66</ele>
        <time>2014-09-07T14:43:55Z</time>
      </trkpt>
      <trkpt lat="42.83891" lon="1.47813">
        <ele>1080.18</ele>
        <time>2014-09-07T14:43:58Z</time>
      </trkpt>
      <trkpt lat="42.83899" lon="1.47836">
        <ele>1078.74</ele>
        <time>2014-09-07T14:44:13Z</time>
      </trkpt>
      <trkpt lat="42.83904" lon="1.47848">
        <ele>1077.78</ele>
        <time>2014-09-07T14:44:20Z</time>
      </trkpt>
      <trkpt lat="42.83911" lon="1.47869">
        <ele>1075.85</ele>
        <time>2014-09-07T14:44:32Z</time>
      </trkpt>
      <trkpt lat="42.83916" lon="1.47888">
        <ele>1074.89</ele>
        <time>2014-09-07T14:44:46Z</time>
      </trkpt>
      <trkpt lat="42.83923" lon="1.47909">
        <ele>1072.01</ele>
        <time>2014-09-07T14:45:01Z</time>
      </trkpt>
      <trkpt lat="42.83926" lon="1.47933">
        <ele>1069.12</ele>
        <time>2014-09-07T14:45:15Z</time>
      </trkpt>
      <trkpt lat="42.83939" lon="1.47958">
        <ele>1067.2</ele>
        <time>2014-09-07T14:45:30Z</time>
      </trkpt>
      <trkpt lat="42.83943" lon="1.47976">
        <ele>1064.8</ele>
        <time>2014-09-07T14:45:43Z</time>
      </trkpt>
      <trkpt lat="42.83951" lon="1.47997">
        <ele>1063.36</ele>
        <time>2014-09-07T14:45:56Z</time>
      </trkpt>
      <trkpt lat="42.83948" lon="1.48008">
        <ele>1063.84</ele>
        <time>2014-09-07T14:46:04Z</time>
      </trkpt>
      <trkpt lat="42.83942" lon="1.48033">
        <ele>1062.87</ele>
        <time>2014-09-07T14:46:20Z</time>
      </trkpt>
      <trkpt lat="42.83944" lon="1.48052">
        <ele>1061.91</ele>
        <time>2014-09-07T14:46:33Z</time>
      </trkpt>
      <trkpt lat="42.83948" lon="1.48062">
        <ele>1061.43</ele>
        <time>2014-09-07T14:46:39Z</time>
      </trkpt>
      <trkpt lat="42.83956" lon="1.48087">
        <ele>1060.47</ele>
        <time>2014-09-07T14:46:54Z</time>
      </trkpt>
      <trkpt lat="42.83957" lon="1.48093">
        <ele>1059.99</ele>
        <time>2014-09-07T14:46:58Z</time>
      </trkpt>
      <trkpt lat="42.83965" lon="1.48124">
        <ele>1058.55</ele>
        <time>2014-09-07T14:47:13Z</time>
      </trkpt>
      <trkpt lat="42.83971" lon="1.4815">
        <ele>1058.07</ele>
        <time>2014-09-07T14:47:27Z</time>
      </trkpt>
      <trkpt lat="42.83975" lon="1.48178">
        <ele>1057.11</ele>
        <time>2014-09-07T14:47:44Z</time>
      </trkpt>
      <trkpt lat="42.83974" lon="1.48187">
        <ele>1056.63</ele>
        <time>2014-09-07T14:47:49Z</time>
      </trkpt>
      <trkpt lat="42.83976" lon="1.48216">
        <ele>1056.63</ele>
        <time>2014-09-07T14:48:08Z</time>
      </trkpt>
      <trkpt lat="42.83976" lon="1.48222">
        <ele>1056.63</ele>
        <time>2014-09-07T14:48:12Z</time>
      </trkpt>
      <trkpt lat="42.83976" lon="1.4825">
        <ele>1056.15</ele>
        <time>2014-09-07T14:48:28Z</time>
      </trkpt>
      <trkpt lat="42.83977" lon="1.48256">
        <ele>1056.15</ele>
        <time>2014-09-07T14:48:32Z</time>
      </trkpt>
      <trkpt lat="42.83974" lon="1.48277">
        <ele>1055.67</ele>
        <time>2014-09-07T14:48:43Z</time>
      </trkpt>
      <trkpt lat="42.83975" lon="1.48304">
        <ele>1055.67</ele>
        <time>2014-09-07T14:49:00Z</time>
      </trkpt>
      <trkpt lat="42.83976" lon="1.48306">
        <ele>1055.67</ele>
        <time>2014-09-07T14:49:01Z</time>
      </trkpt>
      <trkpt lat="42.83982" lon="1.4833">
        <ele>1054.7</ele>
        <time>2014-09-07T14:49:16Z</time>
      </trkpt>
      <trkpt lat="42.83991" lon="1.48355">
        <ele>1053.26</ele>
        <time>2014-09-07T14:49:34Z</time>
      </trkpt>
      <trkpt lat="42.83988" lon="1.48388">
        <ele>1051.82</ele>
        <time>2014-09-07T14:49:53Z</time>
      </trkpt>
      <trkpt lat="42.83993" lon="1.48419">
        <ele>1050.86</ele>
        <time>2014-09-07T14:50:14Z</time>
      </trkpt>
      <trkpt lat="42.8401" lon="1.48455">
        <ele>1048.94</ele>
        <time>2014-09-07T14:50:36Z</time>
      </trkpt>
      <trkpt lat="42.84017" lon="1.48482">
        <ele>1046.05</ele>
        <time>2014-09-07T14:50:56Z</time>
      </trkpt>
      <trkpt lat="42.84017" lon="1.48496">
        <ele>1042.69</ele>
        <time>2014-09-07T14:51:10Z</time>
      </trkpt>
      <trkpt lat="42.84015" lon="1.4851">
        <ele>1041.73</ele>
        <time>2014-09-07T14:51:21Z</time>
      </trkpt>
      <trkpt lat="42.84004" lon="1.48502">
        <ele>1042.21</ele>
        <time>2014-09-07T14:51:40Z</time>
      </trkpt>
      <trkpt lat="42.84009" lon="1.48521">
        <ele>1041.25</ele>
        <time>2014-09-07T14:52:00Z</time>
      </trkpt>
      <trkpt lat="42.84018" lon="1.48519">
        <ele>1040.76</ele>
        <time>2014-09-07T14:52:22Z</time>
      </trkpt>
      <trkpt lat="42.84029" lon="1.48525">
        <ele>1043.65</ele>
        <time>2014-09-07T14:52:35Z</time>
      </trkpt>
      <trkpt lat="42.8403" lon="1.48526">
        <ele>1039.8</ele>
        <time>2014-09-07T14:52:36Z</time>
      </trkpt>
      <trkpt lat="42.84035" lon="1.48523">
        <ele>1040.28</ele>
        <time>2014-09-07T14:52:54Z</time>
      </trkpt>
      <trkpt lat="42.84035" lon="1.48525">
        <ele>1040.28</ele>
        <time>2014-09-07T14:53:04Z</time>
      </trkpt>
      <trkpt lat="42.84038" lon="1.4852">
        <ele>1039.32</ele>
        <time>2014-09-07T14:53:15Z</time>
      </trkpt>
      <trkpt lat="42.84035" lon="1.4852">
        <ele>1039.32</ele>
        <time>2014-09-07T14:53:48Z</time>
      </trkpt>
      <trkpt lat="42.84035" lon="1.48522">
        <ele>1039.32</ele>
        <time>2014-09-07T14:54:22Z</time>
      </trkpt>
      <trkpt lat="42.8403" lon="1.48516">
        <ele>1039.8</ele>
        <time>2014-09-07T14:54:56Z</time>
      </trkpt>
      <trkpt lat="42.84028" lon="1.4852">
        <ele>1039.32</ele>
        <time>2014-09-07T14:55:26Z</time>
      </trkpt>
      <trkpt lat="42.84024" lon="1.48517">
        <ele>1039.8</ele>
        <time>2014-09-07T14:56:01Z</time>
      </trkpt>
      <trkpt lat="42.8403" lon="1.48525">
        <ele>1040.28</ele>
        <time>2014-09-07T14:56:33Z</time>
      </trkpt>
      <trkpt lat="42.84042" lon="1.48535">
        <ele>1040.28</ele>
        <time>2014-09-07T14:57:14Z</time>
      </trkpt>
      <trkpt lat="42.84043" lon="1.48517">
        <ele>1040.28</ele>
        <time>2014-09-07T14:57:45Z</time>
      </trkpt>
    </trkseg>
  </trk>
</gpx>